[[{"header":{"parameterUnit":"m.s-1","parameterCategory":1,"la1":30.6,"la2":29.2853,"lo1":-89.7004,"lo2":-87.6739,"dy":0.0162,"dx":0.0183,"nx":112,"ny":82,"refTime":"2026-05-05T12:00:00:Z","depth":0,"parameterNumber":2,"parameterNumberName":"U-component_of_WINDS"},"data":[0.0,0.0,0.0,0.0,0.0,0.0,0.0,0.0,0.0,0.0,0.0,0.0,0.0,0.0,0.0,0.0,0.0,0.0,0.0,0.0,0.0,0.0,0.0,0.0,0.0,0.0,0.0,0.0,0.0,0.0,0.0,0.0,0.0,0.0,0.0,0.0,0.0,0.0,0.0,0.0,0.0,0.0,0.0,0.0,0.0,0.0,0.0,0.0,0.0,0.0,0.0,0.0,0.0,0.0,0.0,0.0,0.0,0.0,0.0,0.0,0.0,0.0,0.0,0.0,0.0,0.0,0.0,0.0,0.0,0.0,0.0,0.0,0.0,0.0,0.0,0.0,0.0,0.0,0.0,0.0,0.0,0.0,0.0,0.0,0.0,0.0,0.0,0.0,0.0,0.0,0.2318,0.2059,0.1056,0.0819,0.1929,0.3217,0.2788,0.0187,0.0,0.0,0.0,0.0,0.0,0.0,0.0,0.0,0.0,0.0,0.0,0.0,0.0,0.0,0.0,0.0,0.0,0.0,0.0,0.0,0.0,0.0,0.0,0.0,0.0,0.0,0.0,0.0,0.0,0.0,0.0,0.0,0.0,0.0,0.0,0.0,0.0,0.0,0.0,0.0,0.0,0.0,0.0,0.0,0.0,0.0,0.0,0.0,0.0,0.0,0.0,0.0,0.0,0.0,0.0,0.0,0.0,0.0,0.0,0.0,0.0,0.0,0.0,0.0,0.0,0.0,0.0,0.0,0.0,0.0,0.0,0.0,0.0,0.0,0.0,0.0,0.0,0.0,0.0,0.0,0.0,0.0,0.0,0.0,0.0,0.0,0.0,0.0,0.0,0.0,0.0,0.0,0.0,0.0,0.0,0.0,0.0,0.0,0.0,0.0,0.0,0.0,0.0,0.0,0.3151,0.4647,0.3205,0.221,0.2429,0.2372,0.1869,0.0684,0.0,0.0,0.0,0.0,0.0,0.0,0.0,0.0,0.0,0.0,0.0,0.0,0.0,0.0,0.0,0.0,0.0,0.0,0.0,0.0,0.0,0.0,0.0,0.0,0.0,0.0,0.0,0.0,0.0,0.0,0.0,0.0,0.0,0.0,0.0,0.0,0.0,0.0,0.0,0.0,0.0,0.0,0.0,0.0,0.0,0.0,0.0,0.0,0.0,0.0,0.0,0.0,0.0,0.0,0.0,0.0,0.0,0.0,0.0,0.0,0.0,0.0,0.0,0.0,0.0,0.0,0.0,0.0,0.0,0.0,0.0,0.0,0.0,0.0,0.0,0.0,0.0,0.0,0.0,0.0,0.0,0.0,0.0,0.0,0.0,0.0,0.0,0.0,0.0,0.0,0.0,0.0,0.0,0.0,0.0,0.0,0.0,0.0,0.0,0.0,0.0,0.0,0.0,0.2824,0.3473,0.5042,0.4499,0.3939,0.3622,0.348,0.2817,0.1488,0.1131,0.0,0.0,0.0,0.0,0.0,0.0,0.0,0.0,0.0,0.0,0.0,0.0,0.0,0.0,0.0,0.0,0.0,0.0,0.0,0.0,0.0,0.0,0.0,0.0,0.0,0.0,0.0,0.0,0.0,0.0,0.0,0.0,0.0,0.0,0.0,0.0,0.0,0.0,0.0,0.0,0.0,0.0,0.0,0.0,0.0,0.0,0.0,0.0,0.0,0.0,0.0,0.0,0.0,0.0,0.0,0.0,0.0,0.0,0.0,0.0,0.0,0.0,0.0,0.0,0.0,0.0,0.0,0.0,0.0,0.0,0.0,0.0,0.0,0.0,0.0,0.0,0.0,0.0,0.0,0.0,0.0,0.0,0.0,0.0,0.0,0.0,0.0,0.0,0.0,0.0,0.0,0.0,0.0,0.0,0.0,0.0,0.0,0.0,0.0,0.0,0.0,0.0,0.3701,0.3925,0.4975,0.5173,0.5059,0.4751,0.4577,0.3696,0.2019,0.1465,0.0,0.0,0.0,0.0,0.0,0.0,0.0,0.0,0.0,0.0,0.0,0.0,0.0,0.0,0.0,0.0,0.0,0.0,0.0,0.0,0.0,0.0,0.0,0.0,0.0,0.0,0.0,0.0,0.0,0.0,0.0,0.0,0.0,0.0,0.0,0.0,0.0,0.0,0.0,0.0,0.0,0.0,0.0,0.0,0.0,0.0,0.0,0.0,0.0,0.0,0.0,0.0,0.0,0.0,0.0,0.0,0.0,0.0,0.0,0.0,0.0,0.0,0.0,0.0,0.0,0.0,0.0,0.0,0.0,0.0,0.0,0.0,0.0,0.0,0.0,0.0,0.0,0.0,0.0,0.0,0.0,0.0,0.0,0.0,0.0,0.0,0.0,0.0,0.0,0.0,0.0,0.0,0.0,0.0,0.0,0.0,0.0,0.0,0.0,0.0,0.0,0.0,0.3664,0.4762,0.5146,0.5086,0.5021,0.4951,0.4599,0.3577,0.1714,0.1093,0.0,0.0,0.0,0.0,0.0,0.0,0.0,0.0,0.0,0.0,0.0,0.0,0.0,0.0,0.0,0.0,0.0,0.0,0.0,0.0,0.0,0.0,0.0,0.0,0.0,0.0,0.0,0.0,0.0,0.0,0.0,0.0,0.0,0.0,0.0,0.0,0.0,0.0,0.0,0.0,0.0,0.0,0.0,0.0,0.0,0.0,0.0,0.0,0.0,0.0,0.0,0.0,0.0,0.0,0.0,0.0,0.0,0.0,0.0,0.0,0.0,0.0,0.0,0.0,0.0,0.0,0.0,0.0,0.0,0.0,0.0,0.0,0.0,0.0,0.0,0.0,0.0,0.0,0.0,0.0,0.0,0.0,0.0,0.0,0.0,0.0,0.0,0.0,0.0,0.0,0.0,0.0,0.0,0.0,0.0,0.0,0.0,0.0,0.0,0.0,0.0,0.0,0.3364,0.4163,0.4956,0.5042,0.5018,0.5018,0.4643,0.3919,0.2673,0.0,0.0,0.0,0.0,0.0,0.0,0.0,0.0,0.0,0.0,0.0,0.0,0.0,0.0,0.0,0.0,0.0,0.0,0.0,0.0,0.0,0.0,0.0,0.0,0.0,0.0,0.0,0.0,0.0,0.0,0.0,0.0,0.0,0.0,0.0,0.0,0.0,0.0,0.0,0.0,0.0,0.0,0.0,0.0,0.0,0.0,0.0,0.0,0.0,0.0,0.0,0.0,0.0,0.0,0.0,0.0,0.0,0.0,0.0,0.0,0.0,0.0,0.0,0.0,0.0,0.0,0.0,0.0,0.0,0.0,0.0,0.0,0.0,0.0,0.0,0.0,0.0,0.0,0.0,0.0,0.0,0.0,0.0,0.0,0.0,0.0,0.0,0.0,0.0,0.0,0.0,0.0,0.0,0.0,0.0,0.0,0.0,0.0,0.0,0.0,0.0,0.0,0.3001,0.3506,0.4133,0.4894,0.5093,0.5154,0.5343,0.5012,0.4398,0.3537,0.0,0.0,0.0,0.0,0.0,0.0,0.0,0.0,0.0,0.0,0.0,0.0,0.0,0.0,0.0,0.0,0.0,0.0,0.0,0.0,0.0,0.0,0.0,0.0,0.0,0.0,0.0,0.0,0.0,0.0,0.0,0.0,0.0,0.0,0.0,0.0,0.0,0.0,0.0,0.0,0.0,0.0,0.0,0.0,0.0,0.0,0.0,0.0,0.0,0.0,0.0,0.0,0.0,0.0,0.0,0.0,0.0,0.0,0.0,0.0,0.0,0.0,0.0,0.0,0.0,0.0,0.0,0.0,0.0,0.0,0.0,0.0,0.0,0.0,0.0,0.0,0.0,0.0,0.0,0.0,0.0,0.0,0.0,0.0,0.0,0.0,0.0,0.0,0.0,0.0,0.0,0.0,0.0,0.0,0.0,0.0,0.0,0.0,0.0,0.0,0.0,0.0,0.367,0.4288,0.4817,0.4991,0.5246,0.5573,0.6101,0.5613,0.4938,0.0,0.0,0.0,0.0,0.0,0.0,0.0,0.0,0.0,0.0,0.0,0.0,0.0,0.0,0.0,0.0,0.0,0.0,0.0,0.0,0.0,0.0,0.0,0.0,0.0,0.0,0.0,0.0,0.0,0.0,0.0,0.0,0.0,0.0,0.0,0.0,0.0,0.0,0.0,0.0,0.0,0.0,0.0,0.0,0.0,0.0,0.0,0.0,0.0,0.0,0.0,0.0,0.0,0.0,0.0,0.0,0.0,0.0,0.0,0.0,0.0,0.0,0.0,0.0,0.0,0.0,0.0,0.0,0.0,0.0,0.0,0.0,0.0,0.0,0.0,0.0,0.0,0.0,0.0,0.0,0.0,0.0,0.0,0.0,0.0,0.0,0.0,0.0,0.0,0.0,0.0,0.0,0.0,0.0,0.0,0.0,0.0,0.0,0.0,0.0,0.0,0.0,0.0,0.4451,0.542,0.629,0.6878,0.7,0.7083,0.7208,0.6912,0.6285,0.5205,0.0,0.0,0.0,0.0,0.0,0.0,0.0,0.0,0.0,0.0,0.0,0.0,0.0,0.0,0.0,0.0,0.0,0.0,0.0,0.0,0.0,0.0,0.0,0.0,0.0,0.0,0.0,0.0,0.0,0.0,0.0,0.0,0.0,0.0,0.0,0.0,0.0,0.0,0.0,0.0,0.0,0.0,0.0,0.0,0.0,0.0,0.0,0.0,0.0,0.0,0.0,0.0,0.0,0.0,0.0,0.0,0.0,0.0,0.0,0.0,0.0,0.0,0.0,0.0,0.0,0.0,0.0,0.0,0.0,0.0,0.0,0.0,0.0,0.0,0.0,0.0,0.0,0.0,0.0,0.0,0.0,0.0,0.0,0.0,0.0,0.0,0.0,0.0,0.0,0.0,0.0,0.0,0.0,0.0,0.0,0.0,0.0,0.0,0.0,0.0,0.0,0.0,0.5892,0.6542,0.7229,0.8227,0.8429,0.868,0.9216,0.8653,0.7936,0.707,0.0,0.0,0.0,0.0,0.0,0.0,0.0,0.0,0.0,0.0,0.0,0.0,0.0,0.0,0.0,0.0,0.0,0.0,0.0,0.0,0.0,0.0,0.0,0.0,0.0,0.0,0.0,0.0,0.0,0.0,0.0,0.0,0.0,0.0,0.0,0.0,0.0,0.0,0.0,0.0,0.0,0.0,0.0,0.0,0.0,0.0,0.0,0.0,0.0,0.0,0.0,0.0,0.0,0.0,0.0,0.0,0.0,0.0,0.0,0.0,0.0,0.0,0.0,0.0,0.0,0.0,0.0,0.0,0.0,0.0,0.0,0.0,0.0,0.0,0.0,0.0,0.0,0.0,0.0,0.0,0.0,0.0,0.0,0.0,0.0,0.0,0.0,0.0,0.0,0.0,0.0,0.0,0.0,0.0,0.0,0.0,0.0,0.0,0.0,0.0,0.0,0.0,0.7949,0.7836,0.8103,0.9414,0.9761,1.0353,1.1598,1.0622,0.9765,0.9337,0.0,0.0,0.0,0.0,0.0,0.0,0.0,0.0,0.0,0.0,0.0,0.0,0.0,0.0,0.0,0.0,0.0,0.0,0.0,0.0,0.0,0.0,0.0,0.0,0.0,0.0,0.0,0.0,0.0,0.0,0.0,0.0,0.0,0.0,0.0,0.0,0.0,0.0,0.0,0.0,0.0,0.0,0.0,0.0,0.0,0.0,0.0,0.0,0.0,0.0,0.0,0.0,0.0,0.0,0.0,0.0,0.0,0.0,0.0,0.0,-0.0617,0.0,0.0,0.0,0.0,0.0,0.0,0.0,0.0,0.0,0.0,0.0,0.0,0.0,0.0,0.0,0.0,0.0,0.0,0.0,0.0,0.0,0.0,0.0,0.0,0.0,0.0,0.0,0.0,0.0,0.0,0.0,0.0,0.0,0.0,0.0,0.0,0.0,0.0,0.0,0.0,0.0,1.0585,1.0775,1.1077,1.2244,1.2405,1.2528,1.2735,1.2232,1.141,1.0365,0.9172,0.0,0.0,0.0,0.0,0.0,0.0,0.0,0.0,0.0,0.0,0.0,0.0,0.0,0.0,0.0,0.0,0.0,0.0,0.0,0.0,0.0,0.0,0.0,0.0,0.0,0.0,0.0,0.0,0.0,0.0,0.0,0.0,0.0,0.0,0.0,0.0,0.0,0.0,0.0,0.0,0.0,0.0,0.0,0.0,0.0,0.0,0.0,0.0,0.0,0.0,0.0,0.0,0.0,0.0,0.0,0.0,0.0,0.0,0.0,0.0,-0.3211,0.0,0.0,0.0,0.0,0.0,0.0,0.0,0.0,0.0,0.0,0.0,0.0,0.0,0.0,0.0,0.0,0.0,0.0,0.0,0.0,0.0,0.0,0.0,0.0,0.0,0.0,0.0,0.0,0.0,0.0,0.0,0.0,0.0,0.0,0.0,0.0,0.0,0.0,0.0,0.0,1.2739,1.246,1.2573,1.4204,1.4164,1.4002,1.3949,1.341,1.2601,1.1391,1.0212,0.0,0.0,0.0,0.0,0.0,0.0,0.0,0.0,0.0,0.0,0.0,0.0,0.0,0.0,0.0,0.0,0.0,0.0,0.0,0.0,0.0,0.0,0.0,0.0,0.0,0.0,0.0,0.0,0.0,0.0,0.0,0.0,0.0,0.0,0.0,0.0,0.0,0.0,0.0,0.0,0.0,0.0,0.0,0.0,0.0,0.0,0.0,0.0,0.0,0.0,0.0,0.0,0.0,0.7226,0.6725,0.5738,0.4626,0.4064,0.3847,-0.0635,-0.2424,-0.2542,0.0,0.0,0.0,0.0,0.0,0.0,0.0,0.0,0.0,0.0,0.0,0.0,0.0,0.0,0.0,0.0,0.0,0.0,0.0,0.0,0.0,0.0,0.0,0.0,0.0,0.5501,0.7212,0.0,0.0,0.0,0.0,0.0,0.0,0.0,0.0,0.0,0.0,0.0,0.0,1.4364,1.3698,1.3664,1.5473,1.5361,1.5023,1.4925,1.4435,1.3602,1.2455,1.1341,1.0155,0.0,0.0,0.0,0.0,0.0,0.0,0.0,0.0,0.0,0.0,0.0,0.0,0.0,0.0,0.0,0.0,0.0,0.0,0.0,0.0,0.0,0.0,0.0,0.0,0.0,0.0,0.0,0.0,0.0,0.0,0.0,0.0,1.7255,1.7,0.0,0.0,0.0,0.0,0.0,0.0,0.0,0.0,0.0,0.0,0.0,0.0,0.0,0.7411,0.7741,0.8576,0.8439,0.7198,0.8072,0.7869,0.6817,0.4299,0.243,0.1026,-0.1937,0.0,-0.0653,-0.5372,0.0,0.0,0.0,0.0,0.0,0.0,0.0,0.0,0.0,0.0,0.0,0.0,0.0,0.0,0.0,0.0,0.0,0.0,0.0,0.0,0.0,0.0,0.3509,0.5894,0.8154,0.9695,0.0,0.8719,0.8417,0.9329,0.9644,0.0,0.0,0.0,0.0,0.0,0.0,0.0,1.5168,1.5185,1.5362,1.5964,1.5974,1.5769,1.5368,1.5312,1.4726,1.3478,1.3661,1.2968,1.1055,1.0596,0.0,0.0,0.0,0.0,0.0,0.0,0.0,0.0,0.0,0.0,0.0,0.0,0.0,0.0,0.0,0.0,0.0,0.0,0.0,0.0,0.0,0.0,0.0,0.0,0.0,0.0,0.0,0.0,0.0,1.6367,1.6966,1.6095,1.5736,1.4868,0.0,0.0,0.0,0.0,0.0,0.0,0.0,0.0,0.0,0.9847,0.9,0.869,0.8962,0.8607,0.8047,0.7413,0.6936,0.6158,0.5103,0.4025,0.2648,0.1078,-0.0491,-0.1434,-0.2179,-0.5823,-0.8132,-0.9437,0.0,0.0,0.0,0.0,-1.808,-1.9673,-2.3345,-2.4587,0.0,0.0,0.0,0.0,0.0,0.0,0.0,0.0,0.0,0.0,0.0,0.0,0.0,0.7007,0.9038,1.0627,1.0762,1.1474,1.2147,0.0,1.2954,1.3363,1.317,0.0,0.0,0.0,0.0,1.4406,1.6041,1.6137,1.6393,1.7162,1.7284,1.6822,1.5553,1.5901,1.5466,1.3756,1.4138,1.383,1.2645,1.228,1.1411,0.0,0.0,0.0,0.0,0.0,0.0,0.0,0.0,0.0,0.0,0.0,0.0,0.0,0.0,0.0,0.0,0.0,0.0,0.0,0.0,0.0,0.0,0.0,0.0,0.0,0.0,0.0,0.0,1.6063,1.708,1.5492,1.6128,1.5834,0.0,0.0,0.0,0.0,0.0,0.0,1.123,1.0247,0.9932,1.0366,0.9828,0.9453,0.9451,0.802,0.7167,0.6872,0.5388,0.4124,0.3221,0.312,0.2012,0.0201,-0.0202,-0.1896,-0.4501,-0.6302,-0.8385,-1.045,-1.1091,-1.3051,-1.5765,-1.7352,-1.8854,-2.0687,-2.4771,-2.6392,-2.669,-2.7121,0.0,-2.7096,-2.4745,0.0,0.0,0.0,0.0,-0.4754,-0.1191,0.2903,0.6329,0.7458,0.9737,1.1708,1.1851,1.4125,1.5743,0.0,1.5351,1.5899,1.5407,0.0,0.0,0.0,0.0,1.559,1.7043,1.7217,1.7441,1.8069,1.8244,1.7656,1.599,1.6634,1.6229,1.417,1.4576,1.4515,1.3594,1.3347,1.2635,1.1247,0.0,0.0,0.0,0.0,0.0,0.0,0.0,0.0,0.0,0.0,0.0,0.0,0.0,0.0,0.0,0.0,0.0,0.0,0.0,0.0,0.0,0.0,0.0,0.0,0.0,0.0,0.0,0.0,0.0,1.6375,1.7827,0.0,0.0,0.0,0.0,1.2171,1.2857,1.2725,1.1315,1.1292,1.1181,1.0792,0.9776,0.8898,0.8069,0.7009,0.5922,0.4918,0.3822,0.2918,0.2009,0.1006,-0.0805,-0.3318,-0.2814,-0.4316,-0.7003,-0.623,-0.7682,-1.0632,-1.2741,-1.4137,-1.5338,-1.8583,-2.0048,-2.0918,-2.4578,-2.5728,-2.6045,-2.8102,-2.8029,-2.6753,-2.4805,-2.2878,0.0,0.0,-0.8881,-0.6799,-0.0931,0.3572,0.6759,0.7265,1.0741,1.3748,1.3368,1.6276,1.8162,0.0,1.536,1.5816,1.6159,0.0,1.7678,1.7725,1.8942,1.9452,1.8286,1.8645,1.8761,1.8321,1.8417,1.7996,1.6831,1.7653,1.7261,1.506,1.5871,1.5593,1.3765,1.3328,1.27,1.1864,1.103,0.0,0.0,0.0,0.0,0.0,0.0,0.0,0.0,0.0,0.0,0.0,0.0,0.0,0.0,0.0,0.0,0.0,0.0,0.0,0.0,0.0,0.0,0.0,0.0,0.0,0.0,0.0,0.0,1.6101,1.7543,0.0,1.4904,1.4941,1.4758,1.3688,1.3136,1.2721,1.2598,1.0964,1.0022,0.9989,0.8336,0.7279,0.6924,0.5227,0.4126,0.3725,0.2722,0.1613,0.0704,0.0302,-0.0907,-0.2821,-0.2216,-0.3621,-0.6129,-0.6216,-0.8108,-1.1246,-1.3097,-1.4743,-1.6402,-1.828,-1.9934,-2.1575,-2.3034,-2.3949,-2.4699,-2.571,-2.7141,-2.7535,-2.2354,-2.0657,-1.8736,-1.0193,-0.6448,-0.4045,-0.0083,0.3835,0.6848,0.7431,1.0878,1.4067,1.4514,1.6775,1.869,1.8417,1.8468,1.865,1.8782,1.8358,1.8188,1.8963,1.9317,1.9339,1.8953,1.9397,1.9723,1.962,1.9722,1.9207,1.7702,1.8101,1.76,1.5702,1.6104,1.614,1.5442,1.4601,1.3969,1.371,1.1868,1.0363,0.0,0.0,0.0,0.0,0.0,0.0,0.0,0.0,0.0,0.0,0.0,0.0,0.0,0.0,0.0,0.0,0.0,0.0,0.0,0.0,0.0,0.0,0.0,0.0,0.0,0.0,1.6976,1.5489,1.7115,1.7413,1.4989,1.512,1.5026,1.4148,1.3046,1.2232,1.2073,0.9992,0.8698,0.8411,0.6625,0.5529,0.5229,0.3825,0.2922,0.2622,0.1614,0.0504,-0.0504,-0.0907,-0.2015,-0.3627,-0.3021,-0.4225,-0.6434,-0.6907,-0.8713,-1.134,-1.3048,-1.4995,-1.6929,-1.8097,-1.947,-2.0881,-2.1771,-2.2824,-2.384,-2.4068,-2.6207,-2.7705,-2.2337,-2.0276,-1.8236,-1.0856,-0.6159,-0.2559,0.1125,0.4582,0.7535,0.9039,1.2183,1.4967,1.5861,1.7475,1.9236,2.0628,2.0653,2.0547,2.0619,1.9977,1.9851,2.1199,2.0887,2.0677,2.1014,2.0885,2.0706,2.0594,2.0573,2.001,1.8637,1.8877,1.8385,1.6681,1.6681,1.6522,1.6094,1.5185,1.4522,1.4249,1.2084,1.0452,0.9474,0.0,0.0,0.0,0.0,0.0,0.0,0.0,0.0,0.0,0.0,0.0,0.0,0.0,0.0,0.0,0.0,0.0,0.0,0.0,0.0,0.0,0.0,0.0,1.4591,1.6076,1.637,1.4853,1.6603,1.6894,1.4359,1.4549,1.442,1.3315,1.2571,1.1346,0.9604,0.8506,0.7313,0.6027,0.4922,0.382,0.282,0.2719,0.2319,0.1617,0.0504,-0.0504,-0.1613,-0.272,-0.4228,-0.5942,-0.5432,-0.6232,-0.7939,-0.8209,-0.9197,-1.0605,-1.2716,-1.4727,-1.6741,-1.8133,-1.8596,-1.8609,-2.0631,-2.2257,-2.3426,-2.3589,-2.536,-2.7067,-2.4908,-2.2149,-1.8718,-1.3846,-0.8359,-0.28,0.2453,0.609,0.9091,1.206,1.4668,1.665,1.7529,1.8685,2.0105,2.1784,2.1644,2.1319,2.1565,2.1938,2.2796,2.4465,2.3908,0.0,2.4506,2.3086,2.1827,2.1369,2.097,2.0437,1.9725,1.9993,1.9588,1.8056,1.763,1.6839,1.5561,1.4942,1.4218,1.3331,1.1584,1.0266,0.9435,0.0,0.0,0.0,0.0,0.0,0.0,0.0,0.0,0.0,0.0,0.0,0.0,0.0,0.0,0.0,0.0,0.0,0.0,0.0,0.0,0.0,1.0789,1.2139,1.379,1.47,1.5161,1.5122,1.5047,1.4596,1.3761,1.2958,1.2073,1.1255,0.9628,0.8477,0.8199,0.6208,0.5016,0.4822,0.3618,0.2918,0.282,0.2017,0.1615,0.1617,0.1313,0.0202,-0.1613,-0.1915,-0.3123,-0.5135,-0.5131,-0.5929,-0.7129,-0.7419,-0.8806,-1.0881,-1.2711,-1.3974,-1.4854,-1.6567,-1.698,-1.6857,-1.824,-1.8904,-1.9486,-2.1033,-2.3835,-2.6131,-2.3713,-2.4008,-2.3695,-1.6622,-1.0129,-0.3816,0.2734,0.8543,1.2782,1.3131,1.6195,1.9203,1.9759,2.1144,2.2563,2.3605,2.3935,2.3983,2.3725,2.3366,2.3532,2.4878,2.4685,0.0,2.4864,2.3688,2.2935,2.3342,2.27,2.182,2.0783,2.0543,1.9565,1.7536,1.7218,1.6784,1.6017,1.5419,1.4541,1.3414,1.1618,1.0553,0.0,0.0,0.0,0.0,0.0,0.0,0.0,0.0,0.0,0.0,0.0,0.0,0.0,0.0,0.0,0.0,0.0,0.0,0.0,0.0,0.0,0.0,1.0267,1.1139,1.2012,1.2904,1.3701,1.4154,1.3076,1.2292,1.2216,1.0728,0.9551,0.9076,0.7093,0.5904,0.6106,0.4314,0.3316,0.3417,0.2215,0.1613,0.1814,0.1211,0.101,0.1415,0.101,0.0202,-0.1008,-0.1814,-0.3122,0.0,-0.5233,-0.6232,-0.7431,-0.7528,-0.8619,0.0,0.0,0.0,0.0,0.0,-1.5536,-1.5718,-1.6769,-1.7451,-1.8029,-1.9525,-2.2139,-2.4645,-2.4095,-2.0684,-1.6576,-1.4386,-0.5866,0.3559,0.7676,1.1864,1.5311,1.6171,1.8803,2.1305,2.172,2.2598,2.3593,2.4597,2.4964,0.0,2.4764,2.4571,2.4859,2.5997,2.5648,2.5408,2.579,2.4551,2.36,2.3576,2.2922,2.2141,2.1312,2.0954,0.0,0.0,0.0,1.7303,1.617,1.5507,0.0,0.0,0.0,0.0,0.0,0.0,0.0,0.0,0.6012,0.5605,0.0,0.0,0.0,0.0,0.0,0.0,0.0,0.0,0.0,0.0,0.0,0.0,0.0,0.0,0.0,0.0,0.9653,0.9893,0.978,1.0872,1.1893,1.2292,1.1049,1.0075,0.9972,0.8086,0.6898,0.6796,0.491,0.3715,0.3817,0.0,0.0,0.0,0.0,0.0404,0.0404,0.0404,0.0606,0.1111,0.0202,-0.0202,-0.0202,-0.2015,-0.3422,-0.4422,-0.5434,-0.6836,-0.8428,-0.8134,-0.8733,-0.9628,-1.031,-1.157,-1.3022,-1.3476,-1.3999,-1.4514,-1.5792,0.0,0.0,-1.8754,-2.0646,-2.251,-2.3614,-1.4415,-0.4425,-0.8031,0.2126,1.4203,1.4842,1.5912,1.7467,2.0232,2.197,2.3157,2.3533,2.3696,2.4055,2.5119,2.5287,2.5204,2.5048,2.5629,2.6379,2.7215,2.668,2.6366,2.6844,2.5467,2.4028,2.3053,0.0,0.0,2.1655,2.1507,2.1064,2.0156,1.9374,1.8081,1.6184,1.5458,1.4787,1.4047,1.3329,1.2498,1.1536,1.0192,0.9194,0.8448,0.8076,0.7224,0.0,0.0,0.0,0.0,0.0,0.0,0.0,0.0,0.0,0.0,0.0,0.0,0.0,0.0,0.0,0.8832,0.889,0.8829,0.9037,0.8667,0.8867,1.0083,0.9008,0.8011,0.7496,0.6116,0.4926,0.4021,0.2818,0.2116,0.2417,0.121,0.0505,0.0707,0.0303,0.0202,0.0404,0.0404,0.0606,0.0909,0.0,0.0,-0.0706,-0.1109,-0.2317,-0.4131,-0.5031,-0.6526,-0.8418,-0.8623,-0.9027,-0.9723,-1.1277,-1.1955,-1.195,-1.2237,-1.1638,-1.1039,-1.3718,-1.3254,-1.2373,-1.8032,-1.9626,-1.8402,-1.3219,-1.0455,0.0,0.2783,0.899,1.3619,1.7642,2.0091,2.1647,2.1958,2.4045,2.5941,2.5666,2.6006,2.6371,2.6283,2.6229,2.596,2.516,2.6048,2.6762,2.6509,2.6826,2.6995,2.6561,2.5617,2.4854,2.443,2.4225,2.3788,2.2996,2.292,2.2252,2.0822,1.9718,1.8419,1.6878,1.6224,1.5337,1.4163,1.3603,1.2982,1.2277,1.1888,1.1377,1.0804,0.8137,0.6632,0.0,0.0,0.0,0.0,0.0,0.0,0.0,0.0,0.0,0.0,0.0,0.6768,0.7504,0.0,0.7496,0.7626,0.7376,0.714,0.6819,0.6027,0.6022,0.7611,0.6825,0.5927,0.5116,0.3922,0.3022,0.2418,0.1412,0.0908,0.1009,0.0202,-0.0101,0.0202,-0.0101,-0.0101,0.0202,0.0202,0.0303,0.0606,0.0606,0.0404,0.0,-0.0605,-0.1713,-0.3224,-0.4228,-0.5732,-0.763,-0.8028,-0.823,-0.8627,-1.048,-1.0872,-1.0498,-1.0988,-1.0096,-0.9197,-1.3126,-1.2565,-1.1196,-1.7679,-1.865,-1.6082,-0.9594,-0.3848,0.1861,0.9073,1.6112,2.1623,2.2294,2.3462,2.4755,2.5818,2.7523,2.865,2.7708,2.7718,2.7691,2.6674,2.6654,2.6481,2.5453,2.652,2.7144,2.6357,2.7181,2.7534,2.6518,2.6043,2.5413,2.4416,2.4256,2.3967,2.3334,2.3005,2.2402,2.141,2.0456,1.9398,1.8293,1.7794,1.7068,1.595,1.5639,1.4967,1.3997,1.3988,1.344,1.2288,1.0709,0.9456,0.0,0.0,0.0,0.0,0.0,0.0,0.0,0.6441,0.6309,0.7309,0.6841,0.6376,0.7009,0.699,0.6712,0.6265,0.5867,0.5322,0.4529,0.3726,0.3623,0.4916,0.4726,0.4029,0.3022,0.2016,0.1412,0.121,0.0404,-0.0202,-0.0202,-0.0404,-0.0404,-0.0202,-0.0404,-0.0303,-0.0101,-0.0101,0.0101,0.0303,0.0303,0.0404,0.0606,-0.0202,-0.131,-0.2618,-0.4128,-0.5536,-0.6942,-0.7531,-0.7431,-0.7129,-0.8598,-0.8799,-0.8322,-0.9809,-0.9217,-0.8312,-1.272,-1.2336,-1.0835,-1.7062,-1.6893,-1.2977,-0.5754,0.3974,1.3217,1.6212,2.4023,3.0664,2.7158,2.6601,2.7494,2.9663,3.063,3.0745,2.9546,2.9055,2.8449,2.7261,2.7159,2.6938,2.625,2.7093,2.7545,2.6553,2.7565,2.7966,2.6639,2.6425,2.5708,2.3975,2.3882,2.3824,2.361,2.3143,2.2688,2.2192,2.1556,2.0769,1.986,1.9453,1.8791,1.7842,1.781,1.7227,1.6023,1.6379,1.5723,1.4281,1.4475,1.324,0.5515,0.5109,0.5309,0.6587,0.6877,0.7135,0.0,0.7513,0.6759,0.7423,0.679,0.6287,0.6637,0.6206,0.5676,0.5085,0.4514,0.3924,0.3122,0.3123,0.282,0.1813,0.2719,0.2922,0.1915,0.1412,0.0807,-0.0101,-0.0505,-0.0707,-0.0707,-0.0707,-0.0707,-0.0707,-0.0707,-0.0606,-0.0404,-0.0404,-0.0202,0.0,0.0,0.0101,0.0101,0.0,-0.121,-0.3323,-0.6224,-0.7428,-0.7238,-0.8021,-0.7415,-0.6116,-0.6111,-0.5508,-0.5003,-0.8685,-0.9205,-0.8326,-1.1011,-1.0245,-0.9261,-1.5579,-1.3231,-0.5731,0.5366,1.266,1.9391,2.9968,3.3738,3.3827,3.0523,3.0061,3.0522,3.0897,3.1159,3.1298,3.1129,2.9916,2.8843,2.8961,2.8188,2.763,2.7856,2.8046,2.7944,2.7375,2.7913,2.8046,2.6992,2.6588,2.5708,2.3975,2.4051,2.4343,2.4614,2.4831,2.4554,2.3528,2.3383,2.2642,2.0985,2.0365,1.9509,1.8341,1.8732,1.8621,1.798,1.8946,1.9107,1.852,1.8555,1.6165,0.4891,0.5226,0.6143,0.7285,0.7549,0.7597,0.7841,0.7279,0.6719,0.6765,0.5981,0.534,0.5546,0.467,0.3886,0.3715,0.2816,0.2014,0.1712,0.121,0.0706,0.0101,0.0504,0.0706,0.0202,0.0101,-0.0101,-0.0606,-0.0707,-0.0808,-0.0808,-0.0909,-0.101,-0.0808,-0.0909,-0.0909,-0.0606,-0.0606,-0.0505,-0.0202,-0.0404,-0.0303,0.0,-0.0202,-0.1312,-0.3324,-0.5329,-0.5929,-0.5532,-0.5222,-0.452,-0.372,-0.4017,-0.3407,-0.28,-0.6192,-0.6807,-0.6415,-1.0219,-0.8539,-0.5661,-1.1424,-0.9292,-0.2001,1.0849,1.6151,1.9826,3.0335,3.4187,3.4452,3.1361,3.1306,3.2497,3.4231,3.3975,3.3226,3.2822,3.1531,3.0264,2.9762,2.8929,2.8354,2.8497,2.8321,2.8271,2.8544,2.8654,2.8341,2.7311,2.7067,2.6498,2.5155,2.4989,2.5121,2.5411,2.5443,2.5176,2.4632,2.4292,2.3739,2.2916,2.1934,2.1273,2.1014,2.086,2.0513,2.0009,2.0927,2.0804,1.9603,2.0114,1.9044,0.4337,0.5018,0.6084,0.7435,0.7561,0.7344,0.6958,0.6501,0.6078,0.5861,0.491,0.423,0.4288,0.3399,0.2499,0.2298,0.1306,0.0504,0.0303,-0.0404,-0.0707,-0.0606,-0.0808,-0.0808,-0.0707,-0.0808,-0.0909,-0.0909,-0.101,-0.101,-0.101,-0.1212,-0.1212,-0.101,-0.1212,-0.1212,-0.0909,-0.0909,-0.0808,-0.0505,-0.0707,-0.0606,-0.0202,-0.0606,-0.1614,-0.2922,-0.3929,-0.423,-0.4028,-0.3122,-0.2216,-0.141,-0.181,-0.1003,0.01,-0.2299,-0.31,-0.3597,-0.7024,-0.5347,-0.2377,-0.6898,-0.4414,0.2508,1.41,1.9052,2.25,3.1495,3.5202,3.5951,3.3772,3.3597,3.4585,3.6769,3.6139,3.4796,3.413,3.3017,3.1853,3.0704,2.9972,2.9502,2.9572,2.9243,2.9315,3.022,2.9891,2.9102,2.7907,2.7426,2.6872,2.6007,2.5709,2.5672,2.5966,2.5819,2.5631,2.5346,2.5044,2.4776,2.4561,2.349,2.2995,2.3216,2.2756,2.2303,2.182,2.2622,2.2338,2.1145,2.1778,2.1614,0.3927,0.412,0.4484,0.6524,0.6521,0.5992,0.6214,0.5544,0.482,0.4828,0.3971,0.314,0.3142,0.2453,0.1668,0.0882,0.0299,-0.0202,-0.101,-0.0909,-0.0606,-0.0101,-0.0707,-0.101,0.0,-0.0909,-0.1212,-0.1212,-0.1415,-0.1617,-0.1617,-0.1617,-0.1617,-0.1617,-0.1617,-0.1415,-0.1212,-0.1212,-0.101,-0.0808,-0.0808,-0.0808,-0.0808,-0.1614,-0.2017,-0.2117,-0.2923,-0.3224,-0.3224,-0.292,-0.161,0.0402,0.0905,0.2313,0.4124,0.3211,0.1798,0.0199,0.0099,0.0199,-0.0099,-0.2528,0.1811,0.926,1.5596,2.2677,3.0112,3.7701,3.9705,3.9505,3.9295,3.8199,3.722,3.7433,3.6594,3.5548,3.4839,3.4122,3.3305,3.2229,3.1593,3.1308,3.1482,3.1336,3.1498,3.2451,3.1812,3.0577,2.8773,2.7437,2.6466,2.6033,2.5799,2.5815,2.6179,2.6245,2.6101,2.5701,2.5868,2.5799,2.5449,2.4737,2.4225,2.3971,2.3971,2.3734,2.3304,2.3952,2.4219,2.4162,2.4204,2.3775,0.2235,0.3197,0.4587,0.5909,0.6164,0.5932,0.536,0.5012,0.4618,0.3869,0.3217,0.278,0.2746,0.1794,0.0758,0.048,-0.0391,-0.0996,-0.0706,-0.0606,-0.0303,0.0404,-0.0202,0.0,0.0,0.0,0.0,-0.1415,-0.1516,-0.1617,-0.1617,-0.1617,-0.1617,-0.1617,-0.1617,-0.1516,-0.1516,-0.1415,-0.1314,-0.1111,-0.0909,-0.0909,-0.1111,-0.1917,-0.2118,-0.2017,-0.2319,-0.2319,-0.2016,-0.0504,0.0604,0.1511,0.2417,0.3924,0.5427,0.5122,0.5894,0.635,0.1986,0.3635,0.7436,0.5122,0.8617,1.4928,2.0871,2.5516,2.9606,3.4025,3.7493,3.9444,3.749,3.7821,3.8686,3.8588,3.7914,3.7256,3.7019,3.5727,3.4511,3.406,3.2757,3.1756,3.1754,3.1062,3.0796,3.1638,3.1272,3.0364,2.8849,2.7902,2.7241,2.6859,2.6839,2.692,2.7175,2.7255,2.7175,2.6918,2.6573,2.6351,2.623,2.5293,2.4847,2.4996,2.0585,1.8117,1.7844,1.374,1.1396,1.0816,1.5963,1.5348,0.2004,0.2995,0.4223,0.5202,0.5287,0.495,0.4283,0.4091,0.3864,0.2996,0.2446,0.2205,0.2451,0.1073,0.009,0.0468,-0.0477,-0.107,-0.0603,-0.0505,-0.0202,0.0706,-0.0202,-0.0606,0.0,0.0,0.0,-0.1617,-0.1617,-0.1617,-0.1617,-0.1617,-0.1617,-0.1617,-0.1617,-0.1617,-0.1617,-0.1617,-0.1516,-0.1314,-0.1212,-0.1212,-0.1314,-0.1817,-0.1614,-0.1008,-0.0907,-0.0504,0.0201,0.1612,0.2719,0.3521,0.4325,0.5922,0.7707,0.7809,0.9947,1.1945,0.6499,0.8076,1.2165,1.1162,1.4009,1.8816,2.3435,2.6773,2.9758,3.3184,3.6366,3.8501,3.7415,3.8297,3.9476,3.9355,3.9003,3.8616,3.8358,3.7272,3.6182,3.558,3.4393,3.3407,3.3165,3.2469,3.2048,3.2373,3.2175,3.1395,2.9799,2.9025,2.8403,2.776,2.7504,2.7452,2.7607,2.7747,2.773,2.7525,2.7095,2.6855,2.6855,2.3803,2.2128,2.2221,1.5614,1.1968,1.1398,0.7083,0.4503,0.373,0.8595,0.8011,0.3194,0.3285,0.3373,0.4493,0.3929,0.3111,0.2856,0.2742,0.2709,0.2326,0.1605,0.1295,0.1983,0.05,-0.0417,0.0727,0.0,-0.0757,-0.0702,-0.0707,-0.0404,0.0706,-0.0606,-0.0909,0.0605,-0.0707,0.0,-0.1617,0.0,-0.1617,-0.1617,-0.1617,-0.1617,-0.1617,-0.1617,-0.1617,-0.1617,-0.1617,-0.1617,-0.1617,-0.1617,-0.1617,-0.1516,-0.1313,-0.0404,0.0806,0.1109,0.1915,0.3123,0.3324,0.4422,0.6016,0.642,0.8297,1.0858,1.1068,1.3622,1.6427,1.3535,1.3279,1.433,1.5313,1.8037,2.138,2.3352,2.6794,3.0861,3.5009,3.626,3.6833,3.8982,3.952,3.9559,3.9657,3.9692,3.95,3.8788,3.8613,3.8203,3.686,3.6334,3.5992,3.5473,3.531,3.5063,3.449,3.4373,3.3589,3.1492,3.0614,2.9801,2.8795,2.7971,2.7542,2.7607,2.7798,2.7837,2.7584,2.7391,2.7168,2.6819,2.043,1.6574,1.5856,0.9392,0.5508,0.4404,0.3696,0.2927,0.2207,0.2153,0.1856,0.2428,0.2809,0.3292,0.3524,0.3295,0.2861,0.2848,0.2591,0.2416,0.2228,0.1515,0.0876,0.1,-0.0078,-0.0969,-0.0683,-0.1,-0.0865,0.0201,-0.0101,0.0,0.1513,0.0303,-0.0505,-0.0101,-0.101,0.0,0.0,-0.1617,-0.1617,-0.1617,-0.1617,-0.1617,-0.1617,-0.1617,-0.1617,-0.1617,-0.1617,-0.1617,-0.1617,-0.1617,-0.1313,-0.0707,-0.0606,0.0,0.1109,0.1613,0.1916,0.2217,0.442,0.5318,0.5617,0.7419,0.9296,1.0858,1.0858,1.3677,1.7567,1.7682,1.8604,1.9627,1.8547,2.1202,2.4833,2.4927,2.7852,3.1217,3.1502,3.2841,3.4652,3.6781,3.7286,3.7638,3.9179,3.951,3.9429,3.9232,3.884,3.8382,3.787,3.655,3.5152,3.3995,3.4315,3.4661,3.4547,3.4921,3.4319,3.1888,3.1451,3.0975,2.988,2.9343,2.9068,2.9068,2.872,2.8507,2.8456,2.7954,2.549,2.0562,1.8166,1.4617,0.9538,0.3077,-0.0965,-0.2539,-0.7475,-1.076,-1.2381,-0.7203,-0.8049,0.2584,0.2861,0.313,0.3029,0.2885,0.2625,0.2065,0.1818,0.1567,0.105,0.0229,-0.0291,0.0,-0.1009,-0.1662,-0.1226,-0.1491,-0.1215,0.0099,-0.0401,-0.0303,0.131,0.0101,-0.0808,-0.0404,-0.1111,-0.1617,0.0,-0.1617,-0.1718,-0.1919,-0.1717,-0.1718,-0.1919,-0.1919,-0.1919,-0.1919,-0.1414,-0.1111,-0.1111,-0.0707,-0.0303,0.0101,0.0101,0.0807,0.1914,0.0,0.3321,0.3924,0.6121,0.7117,0.731,0.8718,1.0858,1.2956,1.2956,1.5745,1.9611,2.0483,2.1474,2.2247,2.1607,2.3696,2.6288,2.573,2.803,3.0925,3.1305,3.2318,3.3837,3.5982,3.6509,3.6756,3.7836,3.807,3.8041,3.8036,3.7764,3.7544,3.7592,3.6858,3.5833,3.4641,3.4528,3.4645,3.4844,3.5106,3.4781,3.341,3.2683,3.2007,3.1121,3.0712,3.0399,3.0206,3.0143,2.9885,2.9357,2.8738,2.6558,2.2492,1.897,1.3857,0.6983,0.0465,-0.5203,-0.9957,-1.3744,-1.665,-1.8458,-1.4666,-1.5679,0.2939,0.309,0.313,0.2826,0.2776,0.2387,0.115,0.0848,0.0563,-0.05,-0.129,-0.1591,-0.0926,-0.1733,-0.2241,-0.1264,-0.1595,-0.1608,-0.0484,-0.0994,-0.0905,0.0605,-0.0404,-0.101,-0.0505,-0.1111,-0.1616,-0.1718,-0.1819,-0.202,-0.2422,-0.202,-0.202,-0.2422,-0.2422,-0.232,-0.2118,-0.101,-0.0303,-0.0202,0.0504,0.0806,0.1008,0.1108,0.1913,0.3122,0.0,0.0,0.6534,0.8219,0.93,0.9985,1.0676,1.3064,1.6094,1.6094,1.8509,2.1896,2.237,2.2782,2.3374,2.4039,2.5315,2.6582,2.607,2.7681,3.0084,3.206,3.2466,3.2901,3.5057,3.5649,3.5706,3.5993,3.5884,3.5809,3.6152,3.6211,3.621,3.6329,3.6594,3.6556,3.574,3.4959,3.4603,3.5137,3.5109,3.509,3.5269,3.4072,3.2993,3.243,3.1974,3.1532,3.1084,3.0655,2.993,2.8793,2.7282,2.5692,2.4081,1.7918,1.1167,0.3892,-0.1853,-0.8549,-1.6201,-1.6635,-1.7736,-1.9421,-1.9964,-2.0794,0.2397,0.2516,0.2826,0.2826,0.243,0.1847,0.1054,0.0654,0.0226,-0.0552,-0.1234,-0.1676,-0.1573,-0.1601,-0.1662,-0.1889,-0.1811,-0.1342,-0.0485,-0.0885,-0.0693,0.0604,0.0504,0.0202,-0.0303,-0.0908,-0.1513,0.0,-0.2624,-0.2725,-0.2422,-0.2725,-0.2725,-0.2422,-0.2422,-0.1917,-0.0808,-0.0505,-0.0101,0.0605,0.0706,0.1109,0.1815,0.2718,0.3623,0.4531,0.6032,0.0,0.6719,1.0312,1.1656,1.1737,1.4804,1.6908,1.8141,1.8141,2.0138,2.2766,2.2862,2.3337,2.3996,2.4216,2.5265,2.6477,2.6704,2.7565,2.8525,2.874,2.8298,2.8148,3.0082,3.0669,3.1384,3.4115,3.365,3.3255,3.5431,3.5692,3.5244,3.4289,3.387,3.3655,3.3611,3.3254,3.3489,3.5059,3.5269,3.5389,3.5739,3.4937,3.4191,3.3808,3.2852,3.2146,3.1841,2.6116,2.2378,2.2028,1.5959,0.9763,0.3906,0.1834,-0.2792,-1.0477,-1.1721,-1.3791,-1.6795,-1.6871,-1.7845,-1.9608,-2.0246,-2.091,0.0703,0.1108,0.1714,0.1613,0.174,0.1548,0.0341,-0.0234,-0.0778,-0.1606,-0.2243,-0.251,-0.2242,-0.2201,-0.2236,-0.2182,-0.2302,-0.1932,-0.0555,-0.085,-0.0675,0.0602,0.0806,0.0403,-0.0706,-0.1009,-0.1613,-0.2725,-0.333,-0.3531,-0.3228,-0.343,-0.3531,-0.3228,-0.2925,-0.232,-0.121,-0.0504,0.0303,0.1412,0.2417,0.3123,0.3527,0.4524,0.5222,0.5729,0.7617,0.0,0.8393,1.2062,1.3593,1.3677,1.6047,1.8026,1.9521,1.9521,2.1318,2.3856,2.4029,2.4106,2.4165,2.4559,2.5407,2.6181,2.561,2.7077,2.8738,2.7693,2.7341,2.7433,2.7857,2.8318,2.8955,3.0171,2.9888,2.9778,3.0982,3.2269,3.287,3.2075,3.2508,3.3003,3.323,3.2711,3.2868,3.4571,3.4828,3.5099,3.5862,3.5408,3.4944,3.4746,3.4168,3.3665,3.3327,2.9989,2.58,2.0753,1.6892,1.1019,0.2601,0.2106,-0.1862,-1.0107,-0.9855,-1.2265,-1.756,-1.793,-1.8793,-2.0161,-2.0869,-2.1502,-0.0804,-0.0403,0.0302,0.0101,0.0674,0.0809,-0.0658,-0.1344,-0.1812,-0.263,-0.3138,-0.3246,-0.2802,-0.2702,-0.2616,-0.2324,-0.2505,-0.2193,-0.0877,-0.0818,-0.0566,0.0597,0.0905,0.0605,-0.0605,-0.0907,-0.1613,-0.2927,-0.3731,0.0,-0.4133,-0.4133,-0.4033,-0.363,-0.3229,-0.242,-0.1208,-0.0201,0.1109,0.2621,0.413,0.4935,0.5133,0.6226,0.6822,0.7214,0.9091,0.0,0.0,1.373,1.5164,1.5455,1.7201,1.8951,2.0532,2.0891,2.2503,2.4584,2.4935,2.4615,2.419,2.45,2.5129,2.5509,2.4543,2.6266,2.8261,2.6869,2.6751,2.6881,2.595,2.619,2.6496,2.5648,2.595,2.6419,2.627,2.805,2.9711,2.9799,3.0746,3.1773,3.2274,3.1916,3.2071,3.3738,3.4219,3.4786,3.5857,3.5651,3.5398,3.535,3.5115,3.4074,3.1875,3.0446,2.5709,1.6446,1.4038,0.9486,0.17,0.1526,-0.1687,-0.878,-0.8255,-1.1385,-1.8417,-1.8913,-1.9661,-2.073,-2.1325,-2.1839,-0.1402,-0.1509,-0.1006,-0.1006,-0.1047,-0.1229,-0.1929,-0.2254,-0.254,-0.2659,-0.3086,-0.3246,-0.2802,-0.2192,-0.1946,-0.2384,-0.183,-0.1449,-0.1717,-0.0991,-0.0281,0.0392,0.1298,0.1614,0.101,-0.0101,-0.1309,-0.2422,-0.383,0.0,-0.4734,-0.4734,-0.4029,-0.2623,-0.2522,-0.131,0.121,0.1412,0.2519,0.4533,0.4734,0.5331,0.6323,0.7322,0.8411,0.9387,1.0574,0.0,0.0,1.5272,1.6317,1.6685,1.9926,2.1409,2.1686,2.3018,2.3897,2.4498,2.4584,2.4409,2.4072,2.3541,2.3821,2.4339,2.4707,2.5001,2.5121,2.5139,2.4484,2.3677,2.2678,2.2604,2.2519,2.1394,2.2761,2.412,2.3523,2.4413,2.5782,2.7289,2.7304,2.7446,2.8877,2.9604,3.0573,3.2316,3.3619,3.479,3.5858,3.5693,3.5488,3.5466,3.4936,3.1292,2.3201,1.691,0.9665,0.0976,-0.6359,-1.0927,-1.2151,-1.3013,-1.443,-1.6404,-1.6017,-1.6947,-1.918,-1.9114,-1.9716,-2.106,-2.1123,-2.1526,-0.3351,-0.2996,-0.2409,-0.2382,-0.1884,-0.1575,-0.24,-0.2892,-0.3316,-0.3528,-0.3851,-0.3855,-0.3246,-0.2661,-0.2213,-0.2032,-0.1901,-0.1681,-0.1209,-0.0479,0.017,0.0738,0.1722,0.1869,0.0403,-0.0403,-0.1609,-0.3728,0.0,0.0,-0.4834,-0.4834,-0.423,-0.2923,-0.2923,-0.1612,0.1109,0.171,0.3016,0.4834,0.6132,0.7319,0.84,0.9395,1.0476,1.1551,1.263,0.0,0.0,1.6987,1.838,1.9372,2.132,2.2334,2.2599,2.3057,2.3647,2.4231,2.381,2.3499,2.3243,2.2778,2.2859,2.3051,2.2874,2.3374,2.37,2.2275,2.1621,2.1064,2.0246,2.0012,2.0081,2.0071,2.0399,2.0691,2.0428,2.186,2.3295,2.3652,2.5294,2.6829,2.7565,2.8943,3.0593,3.2415,3.3527,3.4603,3.5792,3.572,3.3829,2.9307,3.2411,3.1302,2.2681,1.9444,1.2236,-0.1035,-0.5314,-0.9794,-1.5134,-1.5791,-1.6816,-1.871,-1.8162,-1.8566,-1.9966,-2.0096,-2.0355,-2.0794,-2.1071,-2.1348,-0.4403,-0.4105,-0.3557,-0.3508,-0.3063,-0.2771,-0.3242,-0.3877,-0.4417,-0.4302,-0.4307,-0.4132,-0.3524,-0.3023,-0.255,-0.2106,-0.2075,-0.193,-0.1326,-0.0518,0.0159,0.0527,0.1566,0.153,-0.0099,-0.1,-0.2414,-0.4634,0.0,0.0,-0.4331,-0.4331,-0.3827,-0.272,-0.2113,-0.0704,0.1612,0.2812,0.4114,0.5536,0.7422,0.8905,0.9985,1.1068,1.2334,1.368,0.0,0.0,0.0,1.8311,1.9513,2.0593,2.1615,2.2246,2.252,2.2882,2.356,2.4221,2.382,2.3589,2.353,2.2924,2.2575,2.222,2.1519,2.1921,2.2122,1.9894,1.8824,1.824,1.773,1.7496,1.756,1.816,1.8017,1.7811,1.7963,1.9303,2.0572,2.0984,2.3519,2.5735,2.6231,2.8595,3.0824,3.2033,3.3427,3.4691,3.5661,3.3529,2.9959,2.4809,2.6347,2.4428,1.6284,1.5282,0.9066,-0.5053,-0.6693,-1.0007,-1.6356,-1.6802,-1.7755,-1.9539,-1.8988,-1.9299,-2.0688,-2.0752,-2.0869,-2.0921,-2.1083,-2.1285,-0.4205,-0.4504,-0.4575,-0.4575,-0.5089,-0.5499,-0.4854,-0.5387,-0.5758,-0.4699,-0.4242,-0.3858,-0.3469,-0.3023,-0.2721,-0.2753,-0.2174,-0.1926,-0.2654,-0.1369,-0.0403,-0.0603,0.0451,0.0839,0.0,-0.1971,-0.3626,-0.4734,0.0,0.0,-0.3224,-0.3224,-0.272,-0.1613,0.0402,0.2211,0.3527,0.4924,0.6126,0.7238,0.851,0.9788,1.0779,1.1853,1.3578,0.0,0.0,0.0,0.0,1.9063,1.9239,1.933,2.0791,2.1159,2.1257,2.2872,2.3993,2.4829,2.485,2.5179,2.5325,2.4356,2.3299,2.2169,2.1128,2.0623,2.008,1.8227,1.6413,1.5087,1.5004,1.4851,1.4699,1.4782,1.522,1.5891,1.6617,1.6542,1.7317,2.0053,2.1732,2.3133,2.4402,2.8245,3.1071,3.0692,3.3232,3.5257,3.5478,2.8376,2.3484,2.3857,1.5965,0.7656,0.0241,-0.1268,-0.5624,-1.4481,-1.5773,-1.6549,-1.7373,-1.793,-1.8674,-1.9605,-1.9187,-1.9759,-2.1388,-2.0858,-2.0985,-2.1651,-2.1348,-2.1463,-0.5557,-0.5696,-0.567,-0.5499,-0.5538,-0.5712,-0.5583,-0.5732,-0.5844,-0.5712,-0.5332,-0.4893,-0.4294,-0.3744,-0.3359,-0.3009,-0.2753,-0.2342,-0.1707,-0.1787,-0.1441,-0.0506,-0.0928,-0.1476,-0.1879,0.0,-0.4031,0.0,0.0,0.0,-0.3224,-0.1813,-0.0503,0.0603,0.1205,0.2611,0.4628,0.6024,0.7316,0.8598,0.9882,1.1458,1.3221,1.425,0.0,0.0,0.0,0.0,0.0,1.9886,2.0439,2.1266,2.1633,2.19,2.1989,2.2441,2.2706,2.295,2.2784,2.2775,2.2775,2.1921,2.1532,2.0939,1.8826,1.874,1.8878,1.6527,1.5448,1.4859,1.4021,1.3685,1.3522,1.3353,1.3866,1.4378,1.4448,1.5372,1.6527,1.7857,2.0419,2.2633,2.3523,2.7551,3.0998,3.1844,2.9399,2.7641,2.8125,2.0355,1.2737,0.7395,0.3037,-0.0057,-0.1323,-0.2222,-0.6442,-1.5225,-1.6464,-1.695,-1.7079,-1.8172,-1.9121,-1.9911,-2.0291,-2.0933,-2.1925,-2.1526,-2.1451,-2.1628,-2.121,-2.1451,-0.6106,-0.6006,-0.6,-0.5821,-0.6022,-0.6214,-0.6173,-0.6305,-0.6416,-0.6409,-0.5882,-0.5226,-0.4625,-0.4021,-0.3457,-0.2953,-0.2701,-0.2358,-0.193,-0.1972,-0.1754,-0.095,-0.1973,-0.277,0.0,-0.3812,-0.4232,0.0,0.0,0.0,-0.2015,-0.0705,0.0906,0.2711,0.2812,0.3715,0.5632,0.7518,0.87,0.9387,1.1161,1.2829,1.4382,1.5494,0.0,0.0,0.0,0.0,0.0,2.0718,2.1275,2.1919,2.2097,2.2097,2.2176,2.2097,2.2185,2.2362,2.2176,2.1989,2.1649,2.079,1.9661,1.8362,1.643,1.6254,1.63,1.4608,1.3776,1.3178,1.2504,1.2248,1.2339,1.2516,1.3112,1.362,1.3789,1.4552,1.5553,1.646,1.8734,2.1186,2.3307,2.7488,3.0021,2.8789,2.6343,2.3323,1.9645,1.1634,0.4151,-0.1365,-0.5844,-0.8195,-0.7487,-0.7711,-1.0301,-1.5983,-1.6811,-1.7285,-1.7687,-1.8499,-1.9441,-2.0484,-2.0869,-2.1463,-2.2197,-2.1963,-2.169,-2.1428,-2.1325,-2.169,0.0,-0.5793,-0.5839,-0.5828,-0.6474,-0.7008,-0.653,-0.6927,0.0,-0.6788,-0.5941,-0.5073,-0.4639,-0.3971,-0.3365,-0.2772,-0.2151,-0.2022,-0.2939,-0.2109,-0.1531,-0.1741,-0.2739,-0.3366,-0.3233,-0.4088,0.0,0.0,0.0,0.0,-0.0101,0.0101,0.161,0.4724,0.4824,0.5427,0.6634,0.9106,1.0194,0.9899,1.2339,1.3794,1.4459,1.588,0.0,0.0,0.0,0.0,0.0,2.1463,2.1642,2.1741,2.2008,2.1919,2.1731,2.2008,2.2362,2.2706,2.2706,2.2315,2.1646,2.0569,1.7927,1.4984,1.42,1.3542,1.2954,1.2699,1.1666,1.0636,1.0549,1.0722,1.1068,1.202,1.2687,1.3275,1.3964,1.3984,1.4237,1.5718,1.7138,1.9457,2.3874,2.7987,2.8743,2.2801,2.3583,2.0936,1.0139,0.2078,-0.3164,-0.4356,-1.1397,-1.6289,-1.6921,-1.6462,-1.6455,-1.707,-1.7139,-1.7677,-1.9034,-1.91,-1.9759,-2.106,-2.106,-2.1463,-2.2185,-2.2125,-2.1803,-2.125,-2.1753,-2.2199,-0.7146,0.0,-0.6966,-0.6798,-0.6952,-0.7063,0.0,-0.69,-0.6889,-0.6998,-0.6647,-0.6096,-0.5288,-0.4863,-0.4279,-0.2897,-0.2365,-0.2064,-0.1983,-0.232,-0.2683,-0.2835,-0.3767,-0.3783,-0.2202,-0.2914,0.0,0.0,0.0,-0.0504,0.0,0.1511,0.3219,0.4724,0.5629,0.6927,0.8814,0.9702,1.0877,1.2242,1.3119,1.4274,1.5805,1.6264,0.0,0.0,0.0,0.0,2.0997,2.1087,2.1365,2.1741,2.1741,2.1741,2.1741,2.1731,2.1642,2.1445,2.1445,2.098,1.9982,1.7981,1.5618,1.354,1.3294,1.319,1.3021,1.2169,1.1563,1.0961,1.0028,0.9777,0.9864,1.0641,1.0173,1.0062,1.1466,1.1627,1.2116,1.4323,1.8237,2.206,2.5084,3.0193,3.0938,2.2378,1.7277,1.0381,-0.0763,-0.9719,-1.5316,-1.586,-1.82,-1.9588,-1.9344,-1.818,-1.7988,-1.9288,-1.9365,-1.9497,-1.9835,-2.0085,-2.0398,-2.0719,-2.1008,-2.1463,-2.1963,-2.1815,-2.2051,-2.2628,-2.2494,-2.2837,-0.7521,-0.7538,-0.7582,-0.75,-0.7466,-0.7466,-0.7466,-0.7269,-0.7085,-0.7198,-0.6761,-0.6137,-0.5346,-0.4844,-0.4137,-0.2684,-0.2352,-0.2097,-0.1637,-0.1975,-0.2519,-0.3098,-0.3324,-0.3022,0.0,0.0,0.0,0.0,0.0,0.0403,0.1411,0.2619,0.3925,0.5529,0.6526,0.7918,0.9608,1.0391,1.1463,1.2926,1.3709,1.4669,1.5812,1.6546,1.739,0.0,0.0,0.0,2.0736,2.0907,2.1275,2.1741,2.1741,2.1741,2.1642,2.1454,2.0997,2.0538,2.0637,1.9728,1.8297,1.6174,1.4183,1.2443,1.1997,1.174,1.1563,1.1397,1.0966,1.0366,0.9689,0.8899,0.854,0.941,0.8865,0.8674,1.059,1.1026,1.1792,1.4008,1.802,2.0535,1.9115,2.323,2.2557,1.0254,0.5709,-0.0287,-1.1098,-1.6583,-1.9961,-2.1177,-2.1484,-2.1642,-2.1597,-2.0902,-2.0303,-2.0107,-2.0279,-2.0398,-2.0344,-2.0707,-2.1026,-2.1175,-2.1388,-2.1714,-2.2037,-2.2199,-2.2629,-2.3257,-2.3244,-2.3605,-0.762,-0.7839,-0.8034,-0.7863,-0.7863,-0.788,-0.784,-0.7669,-0.7467,-0.7311,-0.6598,-0.59,-0.5286,-0.4626,-0.3714,-0.2374,-0.2318,-0.2269,-0.1886,-0.1895,-0.2172,-0.2902,-0.2318,0.0,-0.2417,0.0,0.0,0.0,0.0,0.1309,0.3123,0.3525,0.4529,0.6337,0.7518,0.8609,0.9801,1.1072,1.2145,1.2926,1.41,1.4968,1.5622,1.6553,1.7304,0.0,0.0,0.0,2.0201,2.0736,2.1186,2.1642,2.1642,2.1741,2.1642,2.1177,2.0529,1.9795,1.9662,1.8385,1.6462,1.4824,1.3157,1.158,1.0544,0.9941,0.9689,1.0284,1.0033,0.9428,0.9257,0.8101,0.7386,0.8611,0.807,0.7967,1.0235,1.059,1.1428,1.4497,1.623,1.6001,1.2226,1.3712,1.0352,-0.4631,-0.6149,-0.9451,-2.0118,-2.1071,-2.1509,-2.3352,-2.3269,-2.3214,-2.3665,-2.3604,-2.2793,-2.0865,-2.0944,-2.0962,-2.0782,-2.1141,-2.1518,-2.1877,-2.1961,-2.2133,-2.2368,-2.2898,-2.3355,-2.3626,-2.3804,-2.4179,-0.8116,-0.8404,-0.8491,-0.7732,-0.7627,-0.7678,-0.7471,-0.7441,-0.7413,-0.7198,-0.6696,-0.6197,-0.5722,-0.5086,-0.4125,-0.2372,-0.2269,-0.2564,-0.315,-0.3864,-0.3685,-0.2003,0.0,-0.1914,0.0,0.0,0.0,0.0,0.0,0.282,0.3224,0.4931,0.6034,0.6437,0.763,0.9213,1.0979,1.195,1.3022,1.41,1.4298,1.5057,1.6393,1.5906,1.6749,0.0,0.0,1.8711,1.9737,2.0192,2.0645,2.1177,2.1553,2.1741,2.1642,2.1177,2.0257,1.9015,1.7264,1.5665,1.4353,1.3346,1.2034,1.0544,0.9052,0.9065,0.934,0.8364,0.8548,0.8995,0.8727,0.7749,0.7214,0.8794,0.7112,0.5965,0.9131,0.7425,0.7707,1.5576,1.1445,0.8673,1.4858,1.1454,0.3791,-0.827,-0.9325,-1.314,-2.5222,-2.6257,-2.5822,-2.5744,-2.5696,-2.5483,-2.5128,-2.4643,-2.4213,-2.3878,-2.28,-2.1928,-2.1491,-2.1553,-2.1678,-2.1877,-2.2381,-2.2735,-2.3052,-2.3317,-2.3726,-2.4335,-2.4054,-2.398,-0.81,-0.8011,-0.7949,-0.7972,-0.8217,-0.8353,-0.8241,-0.8068,-0.7777,-0.7379,-0.6785,-0.6139,-0.5542,-0.5081,-0.4505,-0.3753,-0.2954,-0.2723,-0.3472,-0.2888,-0.2197,0.0,0.0,-0.0302,0.0,0.0,0.0,0.0,0.0,0.0,0.4929,0.5834,0.6736,0.7434,0.9209,1.0587,1.1658,1.3674,1.4555,1.4298,1.4675,1.5248,1.6008,1.6473,1.7225,1.8257,0.0,1.8812,1.9637,1.9828,2.0192,2.0645,2.1186,2.1365,2.1177,1.9877,1.8688,1.7539,1.5643,1.4715,1.4077,1.2727,1.1505,1.0279,0.924,0.8894,0.8636,0.7573,0.7665,0.8021,0.7749,0.6331,0.5354,0.6675,0.4809,0.3653,0.6289,0.7974,0.869,0.785,0.8915,0.7471,-0.0204,-0.2735,-0.7391,-1.8415,-1.9711,-2.1364,-2.6693,-2.7149,-2.6938,-2.6893,-2.692,-2.6765,-2.6398,-2.6109,-2.5615,-2.4793,-2.3616,-2.3107,-2.3464,-2.2575,-2.2448,-2.3171,-2.3071,-2.311,-2.3452,-2.3875,-2.4017,-2.4067,-2.3959,-2.3978,-0.8069,-0.7743,-0.7608,-0.8264,-0.8387,-0.8365,-0.8657,-0.821,-0.7655,-0.7302,-0.6645,-0.5986,-0.5363,-0.4876,-0.4574,-0.47,-0.3482,-0.2838,-0.3605,-0.2072,-0.1062,-0.1603,0.0,0.0,0.0,0.0,0.0,0.0,0.0,0.0,0.6334,0.6637,0.7434,0.8726,1.0391,1.1663,1.2344,1.4918,1.5697,1.4682,1.5527,1.6089,1.6183,1.7311,1.7971,1.8156,1.8635,1.9004,1.9463,1.9554,1.9828,2.0201,2.0637,2.0628,2.0167,1.8303,1.7023,1.6062,1.4434,1.3976,1.3705,1.2098,1.0896,1.0014,0.9157,0.8544,0.7841,0.7037,0.6596,0.6419,0.6334,0.473,0.3396,0.4283,0.2764,0.1604,0.3544,0.5879,0.6067,0.0806,0.2602,0.0386,-1.4224,-1.6341,-1.8849,-2.7117,-2.809,-2.7841,-2.7789,-2.7564,-2.751,-2.7908,-2.7776,-2.7565,-2.7189,-2.715,-2.6625,-2.5331,-2.4179,-2.3966,-2.4861,-2.3652,-2.3446,-2.4434,-2.402,-2.3821,-2.3974,-2.4329,-2.4323,-2.3907,-2.3826,-2.3802,-0.8458,-0.8329,-0.8175,-0.8446,-0.7406,-0.6543,-0.7555,-0.7084,-0.645,-0.6503,-0.6058,-0.5586,-0.5522,-0.4596,-0.3895,-0.4165,-0.3476,-0.3174,-0.3967,0.0,-0.1931,-0.0702,-0.0403,0.0,0.0,0.0,0.0,0.0,0.0,0.0,0.6437,0.7338,0.8528,0.9801,1.0293,1.1463,1.3414,1.4816,1.5589,1.573,1.7117,1.7948,1.8149,1.8334,1.8804,1.9455,1.9004,1.8827,1.892,1.9371,1.9637,1.9737,2.0192,1.9637,1.8427,1.6908,1.5981,1.5298,1.3796,1.28,1.2005,1.0595,0.9939,0.9336,0.7573,0.7221,0.7312,0.616,0.4734,0.3664,0.4556,0.3393,0.2142,0.2854,0.1516,0.0535,0.1952,-0.3327,-0.652,-0.0337,-1.2245,-2.1656,-1.628,-2.2267,-2.8265,-2.9624,-2.8698,-2.8403,-3.0025,-2.9247,-2.8638,-2.9107,-2.861,-2.7864,-2.6971,-2.6931,-2.6763,-2.6311,-2.476,-2.4041,-2.4344,-2.4214,-2.4409,-2.4924,-2.5272,-2.5177,-2.4694,-2.4582,-2.4503,-2.4399,-2.3686,-2.3183,-0.8111,-0.7979,-0.7824,-0.7795,-0.7026,-0.654,-0.7614,-0.7276,-0.667,-0.6538,-0.6227,-0.5714,-0.4828,-0.4715,-0.4504,-0.35,-0.3601,-0.3709,-0.3441,-0.2334,-0.1321,-0.0679,0.0,0.0,0.0,0.0,0.0,0.0,0.0,0.0,0.7306,0.8283,0.9084,0.9837,1.1377,1.2685,1.3649,1.5597,1.6365,1.6103,1.7117,1.7669,1.7971,1.7971,1.8342,1.9088,1.8688,1.8629,1.8812,1.8763,1.8894,1.9096,1.9088,1.8519,1.7576,1.6532,1.5609,1.4567,1.3324,1.2559,1.1849,1.0196,0.9319,0.8632,0.7217,0.6779,0.6425,0.4465,0.3486,0.3129,0.3486,0.2235,0.1074,0.1428,-0.1838,-0.5109,-0.55,-0.7404,-1.0446,-1.5141,-1.7894,-2.0826,-2.5212,-2.8299,-3.0483,-3.1302,-3.0571,-3.0011,-3.0358,-2.9512,-2.8958,-2.898,-2.861,-2.8271,-2.8261,-2.7565,-2.7141,-2.7249,-2.5987,-2.5483,-2.5933,-2.5286,-2.5099,-2.5454,-2.511,-2.4578,-2.3982,-2.4201,-2.3953,-2.3277,-2.2882,-2.2519,-0.786,-0.7594,-0.735,-0.7341,-0.6724,-0.639,-0.7195,-0.6883,-0.6403,-0.6373,-0.5927,-0.526,-0.4264,-0.4362,-0.4225,0.0,-0.318,-0.3157,-0.2575,-0.1199,-0.0186,0.0095,0.0,0.0,0.0,0.0,0.0,0.0,0.0,0.0,0.0,0.8855,0.9621,1.0177,1.2161,1.3594,1.4341,1.6118,1.6878,1.6607,1.7057,1.7487,1.7963,1.8156,1.8472,1.8835,1.8616,1.8541,1.8653,1.8518,1.8605,1.8727,1.7949,1.7494,1.6922,1.5879,1.4874,1.3896,1.2874,1.213,1.1186,0.9396,0.8376,0.7749,0.6599,0.5802,0.509,0.3484,0.2051,0.089,0.0532,-0.0882,-0.2371,-0.2797,-0.73,-1.1729,-1.2776,-1.4223,-1.7726,-2.5868,-2.4586,-2.4506,-3.1916,-3.2261,-3.163,-3.1901,-3.1319,-3.0703,-3.0237,-2.9761,-2.9324,-2.9058,-2.8739,-2.8688,-2.8958,-2.8002,-2.7483,-2.7617,-2.6681,-2.6333,-2.6726,-2.6033,-2.5549,-2.5537,-2.4978,-2.4315,-2.3559,-2.375,-2.3402,-2.2375,-2.2254,-2.1949,-0.7942,-0.7443,-0.6954,-0.7143,-0.6445,-0.5796,-0.6071,-0.5705,-0.5388,-0.5632,-0.4846,-0.4112,-0.4112,-0.3357,-0.279,-0.2853,-0.2034,-0.1355,-0.1381,0.0185,0.1581,0.0,0.0,0.0,0.0,0.0,0.0,0.0,0.0,0.0,0.0,0.8979,1.0168,1.1273,1.2467,1.3787,1.5384,1.6059,1.6773,1.747,1.7281,1.7637,1.8419,1.9263,1.9356,1.8945,1.8851,1.8613,1.8319,1.8676,1.8819,1.8603,1.6868,1.6394,1.6358,1.4565,1.3696,1.3369,1.2401,1.1303,0.9933,0.776,0.6953,0.6602,0.5364,0.4113,0.3218,0.3129,0.0089,-0.3454,-0.4559,-0.6459,-0.8568,-1.0429,-1.4976,-1.8971,-1.9242,-2.501,-3.0085,-2.9839,-3.3679,-3.6493,-3.4981,-3.3657,-3.247,-3.1377,-3.0584,-3.0115,-3.0011,-3.004,-2.9993,-2.9623,-2.9275,-2.9022,-2.8803,-2.8157,-2.7643,-2.7229,-2.6589,-2.6213,-2.6213,-2.6213,-2.591,-2.53,-2.5087,-2.4515,-2.3593,-2.3372,-2.2852,-2.2111,-2.1873,-2.1492,-0.7707,-0.7979,-0.816,-0.7506,-0.7409,-0.7327,-0.6631,-0.5924,-0.5496,-0.5651,-0.5344,-0.4723,-0.3523,-0.3521,-0.3099,-0.1129,-0.115,-0.0899,0.0362,0.1085,0.1813,0.0,0.0,0.0,0.0,0.0,0.0,0.0,0.0,0.0,0.0,0.9473,1.0642,1.1794,1.3115,1.4147,1.4776,1.5853,1.5953,1.5237,1.6751,1.7873,1.8442,1.83,1.8206,1.8105,1.8129,1.8025,1.7954,1.8311,1.8323,1.7963,1.6843,1.6216,1.5596,1.4378,1.3673,1.3148,1.1864,1.0674,0.9338,0.7399,0.6626,0.602,0.3932,0.3259,0.2861,0.1164,-0.1597,-0.491,-0.8171,-1.3253,-1.7009,-1.4911,-1.868,-2.3487,-2.6318,-3.0675,-3.4317,-3.522,-3.5732,-3.5917,-3.5725,-3.4511,-3.3391,-3.2939,-3.2321,-3.145,-3.0343,-3.0251,-3.0129,-2.9808,-2.9435,-2.9387,-2.9713,-2.8468,-2.7894,-2.8183,-2.704,-2.6233,-2.598,-2.6107,-2.5921,-2.5388,-2.4885,-2.4246,-2.3615,-2.2668,-2.2025,-2.1655,-2.1185,-2.0634,-0.7779,-0.8033,-0.8306,-0.7949,-0.7608,-0.7238,-0.6407,-0.5865,-0.5639,-0.5689,-0.502,-0.426,-0.3596,-0.288,0.0,-0.0264,-0.0178,0.0269,0.1792,0.2331,0.0,0.0,0.0,0.0,0.0,0.0,0.0,0.0,0.0,0.0,0.0,1.0168,1.123,1.1843,1.3293,1.4136,1.4342,1.5432,1.5684,1.5103,1.6756,1.7648,1.7976,1.7807,1.7644,1.7572,1.7572,1.7652,1.7795,1.8152,1.7962,1.7412,1.6765,1.5919,1.5149,1.3954,1.3245,1.2781,1.1731,1.0499,0.9079,0.7311,0.6139,0.5066,0.2955,0.1544,0.0267,-0.1511,-0.5142,-0.9433,-1.3225,-1.9209,-2.3523,-2.1066,-2.485,-2.9759,-3.2511,-3.5026,-3.7051,-3.8007,-3.7027,-3.5976,-3.583,-3.464,-3.3646,-3.3563,-3.281,-3.1946,-3.0955,-3.0478,-3.0176,-3.019,-2.9761,-2.9588,-3.005,-2.8867,-2.8157,-2.8365,-2.7297,-2.6427,-2.6037,-2.6164,-2.6002,-2.5475,-2.4614,-2.3899,-2.3387,-2.2168,-2.1425,-2.1118,-2.0479,-1.9923,-0.8057,-0.7875,-0.7854,-0.8427,-0.7561,-0.6328,-0.5633,-0.5654,-0.5733,-0.5733,-0.4232,-0.3238,-0.4016,-0.1853,0.0,0.0089,0.0896,0.1883,0.2867,0.3762,0.0,0.0,0.0,0.0,0.0,0.0,0.0,0.0,0.0,0.0,0.0,1.0799,1.1929,1.1843,1.3045,1.3861,1.4215,1.5043,1.5792,0.0,1.6922,1.7191,1.7253,1.7624,1.7588,1.7278,1.7247,1.7413,1.7755,1.8016,1.7733,1.7039,1.6415,1.5582,1.4731,1.352,1.2758,1.2194,1.1647,1.0396,0.8917,0.7152,0.5344,0.3696,0.2033,-0.0726,-0.3548,-0.4821,-0.9922,-1.5753,-1.9093,-2.4341,-2.8642,-2.8198,-3.2231,-3.6424,-3.743,-3.8072,-3.8493,-3.8637,-3.7571,-3.6364,-3.5487,-3.4366,-3.3511,-3.3439,-3.247,-3.1747,-3.1667,-3.0689,-3.0162,-3.0642,-3.0036,-2.9665,-2.9988,-2.9099,-2.8379,-2.7999,-2.7364,-2.6769,-2.6358,-2.6427,-2.6151,-2.5676,-2.4552,-2.3672,-2.3032,-2.1863,-2.0964,-2.0489,-1.9844,-1.9292,-0.8133,-0.8261,-0.8686,-0.9297,-0.8641,-0.745,-0.5993,-0.5716,-0.5733,-0.5733,-0.4819,-0.3831,-0.3312,-0.1427,0.0267,0.0985,0.1972,0.2867,0.3851,0.4208,0.4656,0.0,0.0,0.0,0.0,0.0,0.0,0.0,0.0,0.0,1.0631,1.1149,1.1929,1.2966,1.3307,1.3685,1.4097,1.5354,1.559,0.0,1.6578,1.6884,1.6095,1.7274,1.7588,1.7262,1.6976,1.7056,1.7413,1.7136,1.6713,1.6225,1.5718,1.4735,1.352,1.3239,1.2467,1.1404,0.9655,0.8376,0.7061,0.5129,0.3551,0.1883,-0.0461,-0.2638,-0.5092,-0.9117,-1.412,-1.9033,-2.2807,-2.8404,-3.3371,-3.4679,-3.6102,-3.7469,-3.8531,-3.8781,-3.8544,-3.7757,-3.6855,-3.6122,-3.5698,-3.5098,-3.4464,-3.3745,-3.2336,-3.1276,-3.116,-3.0404,-2.9884,-2.9851,-2.9477,-2.9149,-2.9071,-2.8235,-2.7855,-2.8066,-2.7255,-2.6918,-2.7188,-2.685,-2.644,-2.6094,-2.537,-2.442,-2.3379,-2.2209,-2.0924,-1.9539,-1.9311,-1.8594,-0.8364,-0.867,-0.9091,-0.895,-0.8658,-0.7885,-0.6142,-0.5733,-0.5555,-0.5104,-0.43,-0.3494,-0.2956,-0.0985,0.0985,0.1972,0.2957,0.3941,0.4837,0.4926,0.0,0.0,0.0,0.0,0.0,0.0,0.0,0.0,0.0,1.0799,1.1241,1.1757,1.2272,1.3045,1.347,1.3808,1.4068,1.565,1.5982,1.5242,1.673,1.6984,1.6162,1.6944,1.7183,1.7008,1.648,1.643,1.6684,1.6323,1.5736,1.5107,1.5031,1.4123,1.2781,1.2498,1.1655,1.0341,0.91,0.7584,0.5937,0.4493,0.2226,-0.0381,-0.2695,-0.6286,-1.0391,-1.4431,-1.9561,-2.4761,-2.8495,-3.2896,-3.6711,-3.8109,-3.8385,-3.8559,-3.9398,-3.8975,-3.831,-3.7935,-3.6932,-3.6062,-3.5812,-3.5098,-3.4284,-3.3298,-3.2376,-3.1634,-3.116,-3.0343,-2.9685,-2.9449,-2.9008,-2.8688,-2.8688,-2.8039,-2.7656,-2.7802,-2.7268,-2.6985,-2.6973,-2.6701,-2.6496,-2.6289,-2.5134,-2.4264,-2.3672,-2.2048,-2.0692,-1.9599,-1.8825,-1.8121,-0.8438,-0.8913,-0.9344,-0.8286,-0.8226,-0.8009,-0.6195,-0.5703,-0.544,-0.4476,-0.3583,-0.2777,-0.2418,-0.0179,0.1973,0.2956,0.3941,0.4835,0.5555,0.5733,0.0,0.0,0.0,0.0,0.0,0.0,0.0,0.0,0.0,1.1585,1.1585,1.2272,1.2705,1.279,1.3548,1.3971,1.4139,1.565,1.6327,1.6095,1.6902,1.7066,1.673,1.673,1.673,1.6648,1.5982,1.5836,1.607,1.5518,1.4819,1.4074,1.4111,1.3394,1.2167,1.1442,1.0464,0.9287,0.8383,0.6804,0.5072,0.3425,0.0483,-0.2955,-0.5842,-1.0891,-1.6535,-2.0432,-2.5579,-3.0695,-3.4162,-3.6861,-3.8928,-3.9745,-3.9602,-3.9403,-3.9753,-3.8875,-3.8032,-3.8182,-3.7031,-3.5856,-3.5514,-3.4657,-3.3729,-3.2873,-3.2485,-3.2013,-3.1203,-3.0283,-2.9498,-2.9121,-2.8546,-2.8235,-2.8392,-2.7987,-2.759,-2.7403,-2.7201,-2.685,-2.6289,-2.6208,-2.6139,-2.607,-2.4696,-2.3891,-2.3526,-2.1593,-2.0304,-1.9668,-1.8425,-1.7635,-0.7966,-0.8737,-0.9474,-0.8214,-0.8108,-0.7919,-0.6227,-0.5659,-0.5254,-0.4461,-0.3583,-0.2418,-0.0716,0.1343,0.3045,0.3941,0.4926,0.5555,0.5644,0.5733,0.0,0.0,0.0,0.0,0.0,0.0,0.0,0.0,1.1757,1.2528,1.2528,1.2619,1.279,1.3052,1.3137,1.3561,1.4314,1.4992,1.559,1.6095,1.6574,1.673,1.673,1.673,1.673,1.6648,1.5982,1.5836,1.5985,1.4523,1.4,1.3963,1.2398,1.1723,1.1286,0.9651,0.8942,0.8381,0.5625,0.4457,0.3518,-0.0388,-0.2957,-0.5657,-1.169,-1.6046,-2.0278,-2.6913,-3.1083,-3.4225,-3.6906,-3.8607,-3.9705,-4.0008,-3.9892,-3.9558,-3.8921,-3.8619,-3.815,-3.7193,-3.6028,-3.4975,-3.4267,-3.3832,-3.3503,-3.324,-3.2327,-3.1392,-3.0659,-2.9794,-2.8958,-2.8327,-2.8052,-2.7789,-2.7656,-2.7469,-2.7201,-2.685,-2.6633,-2.6289,-2.5746,-2.537,-2.5075,-2.4731,-2.4791,-2.412,-2.2574,-2.1573,-2.0265,-1.8816,-1.7951,-1.7229,-0.8508,-0.8986,-0.9282,-0.8171,-0.8047,-0.7655,-0.6002,-0.5243,-0.4521,-0.3599,-0.2728,-0.1768,-0.0983,0.0806,0.2419,0.3315,0.43,0.5104,0.5644,0.5733,0.0,0.0,0.0,0.0,0.0,0.0,0.0,0.0,1.1929,1.2443,1.2705,1.2705,1.279,1.2881,1.3222,1.3646,1.3984,1.4992,1.5741,1.6245,1.6327,1.6327,1.6327,1.6327,1.6245,1.6064,1.5144,1.473,1.4641,1.3339,1.2727,1.267,1.1721,1.1199,1.0655,0.9001,0.7719,0.6643,0.453,0.1973,-0.0688,-0.3287,-0.7373,-1.2238,-1.7318,-2.2168,-2.721,-3.2675,-3.5901,-3.8225,-4.0346,-4.121,-4.1451,-4.108,-4.076,-4.0258,-3.927,-3.8722,-3.8168,-3.7224,-3.6547,-3.5926,-3.5202,-3.4904,-3.4558,-3.3893,-3.3146,-3.2452,-3.1953,-3.1174,-3.0304,-2.943,-2.8853,-2.8383,-2.7965,-2.7207,-2.6853,-2.6834,-2.6186,-2.5652,-2.53,-2.4945,-2.4515,-2.402,-2.402,-2.3644,-2.2905,-2.1593,-2.0362,-1.9204,-1.8184,-1.7383,-0.8676,-0.8755,-0.8623,-0.784,-0.7663,-0.7142,-0.5473,-0.468,-0.3902,-0.2661,-0.1816,-0.1309,-0.1065,0.0268,0.1793,0.3047,0.3851,0.4656,0.5555,0.5733,0.0,0.0,0.0,0.0,0.0,0.0,0.0,0.0,1.1929,1.2186,1.2705,1.2705,1.2705,1.2705,1.3215,1.3561,1.3737,1.4985,1.5726,1.5966,1.6079,1.6087,1.6087,1.5831,1.5567,1.5137,1.43,1.3771,1.3471,1.215,1.1703,1.1622,1.0872,1.0373,0.9746,0.8081,0.6458,0.4839,0.2846,-0.0591,-0.4552,-0.7279,-1.2417,-1.8352,-2.3113,-2.8239,-3.3295,-3.7344,-3.9708,-4.1377,-4.2705,-4.2879,-4.2585,-4.1942,-4.1465,-4.0808,-3.966,-3.8919,-3.8233,-3.7521,-3.7256,-3.692,-3.6224,-3.5833,-3.5363,-3.451,-3.39,-3.3332,-3.2897,-3.2213,-3.1363,-3.0392,-2.959,-2.8891,-2.8422,-2.7247,-2.6606,-2.6894,-2.5889,-2.5147,-2.4858,-2.4441,-2.402,-2.3446,-2.3224,-2.3075,-2.2927,-2.1395,-2.0235,-1.9362,-1.8184,-1.7302,-0.7641,-0.7656,-0.7417,-0.7107,-0.6788,-0.622,-0.4711,-0.4166,-0.3506,-0.1835,-0.1455,-0.113,-0.0261,0.0709,0.2062,0.3941,0.4297,0.4656,0.5555,0.0,0.0,0.0,0.0,0.0,0.0,0.0,0.0,0.0,1.1757,1.2186,1.2705,1.2705,1.2705,1.2705,1.2705,1.3045,1.3652,1.481,1.522,1.4789,1.5658,1.6087,1.6087,1.522,1.4455,1.3789,1.3704,1.351,1.3006,1.1346,1.1008,1.141,0.9406,0.857,0.8239,0.6164,0.4656,0.3153,-0.069,-0.3469,-0.6454,-1.3531,-1.783,-2.1699,-2.9428,-3.3621,-3.6531,-4.0326,-4.2098,-4.2869,-4.2897,-4.2579,-4.2204,-4.2095,-4.1622,-4.0888,-3.9676,-3.9006,-3.8518,-3.7878,-3.7658,-3.7285,-3.6405,-3.5764,-3.5212,-3.4914,-3.4103,-3.3238,-3.2596,-3.186,-3.1135,-3.0487,-2.9363,-2.8723,-2.869,-2.7521,-2.6677,-2.6538,-2.5679,-2.4964,-2.4374,-2.3925,-2.3446,-2.3075,-2.2852,-2.2478,-2.1883,-2.0615,-1.952,-1.8736,-1.7375,-1.6648,-0.6966,-0.7169,-0.7222,-0.6415,-0.631,-0.5978,-0.421,-0.3563,-0.2977,-0.1638,-0.0921,-0.0428,-0.0087,0.0796,0.1883,0.3224,0.3941,0.4656,0.5555,0.0,0.0,0.0,0.0,0.0,0.0,0.0,0.0,0.0,0.0,1.1327,1.1757,1.1843,1.1843,1.1843,1.21,1.2869,1.4146,1.4132,1.4545,1.5304,1.5582,1.5673,1.559,1.4727,1.4216,1.388,1.2516,1.1767,1.1441,1.1,1.0567,1.02,0.8603,0.7993,0.766,0.4545,0.2205,0.0097,-0.3543,-0.8332,-1.3439,-1.7945,-2.336,-2.9012,-3.4258,-3.7808,-4.0611,-4.3385,-4.4317,-4.4516,-4.4722,-4.4287,-4.3535,-4.2459,-4.1586,-4.0839,-4.0233,-3.9316,-3.8642,-3.8611,-3.8556,-3.833,-3.7847,-3.7242,-3.6511,-3.5839,-3.5049,-3.4371,-3.3783,-3.337,-3.2746,-3.1774,-3.057,-2.9551,-2.9025,-2.75,-2.6576,-2.6442,-2.5306,-2.4559,-2.4343,-2.3563,-2.315,-2.3001,-2.2927,-2.2703,-2.2402,-2.1405,-2.0624,-2.006,-1.9195,-1.855,-0.6379,-0.6435,-0.6486,-0.5945,-0.5787,-0.5284,-0.3738,-0.3041,-0.2385,-0.1105,-0.0407,0.0,0.0,0.1045,0.2133,0.2774,0.3673,0.4656,0.5555,0.0,0.0,0.0,0.0,0.0,0.0,0.0,0.0,0.0,0.0,0.0,1.1241,1.1327,1.1327,1.1327,1.158,1.2351,1.3542,1.3451,1.3957,1.5144,1.4992,1.4999,1.4915,1.4048,1.362,1.3535,1.2009,1.1118,1.0791,1.0445,0.9961,0.944,0.8042,0.7275,0.6656,0.3495,0.0476,-0.2781,-0.693,-1.2464,-1.8518,-2.3319,-2.8756,-3.4176,-3.813,-4.1034,-4.335,-4.5036,-4.547,-4.5488,-4.5582,-4.505,-4.4177,-4.2794,-4.1828,-4.1053,-4.0514,-3.973,-3.9143,-3.9326,-3.9206,-3.8966,-3.8593,-3.7875,-3.7002,-3.6024,-3.5292,-3.4668,-3.4196,-3.3839,-3.3339,-3.2489,-3.1096,-2.9907,-2.9279,-2.7567,-2.647,-2.6428,-2.5284,-2.4604,-2.4604,-2.3743,-2.3241,-2.3241,-2.3003,-2.2852,-2.2703,-2.1787,-2.1088,-2.044,-1.9972,-1.9502,0.0,0.0,0.0,-0.5615,-0.5095,-0.4141,-0.3145,-0.2523,-0.1784,-0.0372,0.0,0.0,0.0,0.1599,0.2879,0.2852,0.3669,0.4656,0.5555,0.0,0.0,0.0,0.0,0.0,0.0,0.0,0.0,0.0,1.0549,1.0809,1.1241,1.1235,1.1241,1.1241,1.1322,1.1585,1.2015,1.2942,1.3626,1.4139,1.4139,1.4139,1.4055,1.3105,1.2674,1.2674,1.218,1.1712,1.1107,0.9592,0.9123,0.9225,0.7427,0.623,0.516,0.2725,-0.0833,-0.5238,-1.1081,-1.6031,-2.1277,-2.9658,-3.3962,-3.6703,-4.106,-4.3331,-4.455,-4.5152,-4.5538,-4.5694,-4.5265,-4.465,-4.3868,-4.2978,-4.2248,-4.1473,-4.046,-4.0153,-4.0037,-3.9901,-3.9487,-3.8974,-3.8407,-3.7472,-3.6492,-3.5488,-3.4595,-3.3977,-3.3632,-3.3058,-3.2632,-3.2331,-3.0758,-2.9614,-2.9369,-2.7637,-2.6517,-2.6445,-2.5672,-2.5175,-2.5175,-2.4257,-2.3744,-2.3656,-2.3037,-2.2713,-2.2703,-2.1614,-2.075,-1.9982,-1.958,-1.9256,-0.5455,0.0,0.0,0.0,0.0,0.0,0.0,-0.3042,-0.2463,-0.1084,-0.044,-0.015,0.0,0.1477,0.2748,0.2726,0.4212,0.5374,0.5644,0.0,0.0,0.0,0.0,0.0,0.0,0.0,0.0,0.0,1.0207,1.0207,1.0381,1.0381,1.0463,1.0809,1.1149,1.1837,1.3027,1.3626,1.3971,1.4139,1.4139,1.4139,1.4055,1.2954,1.2863,1.336,1.158,1.0579,1.027,0.9607,0.8685,0.7427,0.6002,0.4514,0.2574,-0.1854,-0.6192,-1.0768,-1.6643,-2.2903,-2.904,-3.3345,-3.7339,-4.0918,-4.3202,-4.4433,-4.5153,-4.5605,-4.5704,-4.5472,-4.4749,-4.4026,-4.3232,-4.206,-4.1143,-4.03,-3.9542,-3.9206,-3.9007,-3.8969,-3.875,-3.8528,-3.8214,-3.7008,-3.5948,-3.5567,-3.438,-3.3339,-3.2775,-3.2561,-3.2042,-3.0996,-3.0075,-2.9057,-2.8108,-2.708,-2.6362,-2.6052,-2.5519,-2.5175,-2.5175,-2.4596,-2.4026,-2.3502,-2.3285,-2.2895,-2.2252,-2.1939,-2.1711,-2.1482,-2.1242,-2.0692,-0.5213,-0.5277,-0.5331,-0.4976,0.0,0.0,-0.3421,-0.2857,-0.2285,0.0,-0.0351,-0.0072,0.0,0.1184,0.2249,0.2604,0.3982,0.516,0.5561,0.0,0.0,0.0,0.0,0.0,0.0,0.836,0.9069,0.9951,1.0038,1.0038,1.0038,1.0038,1.0294,1.0895,1.1154,1.2089,1.3711,1.3971,1.4139,1.4139,1.3971,1.3711,1.3379,1.2613,1.2699,1.3464,1.158,1.0626,1.0351,0.9222,0.7914,0.6505,0.49,0.2679,-0.009,-0.4468,-0.9731,-1.5434,-2.1094,-2.7284,-3.3306,-3.7196,-4.0437,-4.3104,-4.4504,-4.5213,-4.5592,-4.5802,-4.565,-4.5241,-4.438,-4.3788,-4.3096,-4.1729,-4.0728,-3.9902,-3.9086,-3.859,-3.8359,-3.8488,-3.8278,-3.7976,-3.7695,-3.6415,-3.5325,-3.4802,-3.3699,-3.2704,-3.2155,-3.1763,-3.1294,-3.0784,-2.9447,-2.8414,-2.7947,-2.6846,-2.6135,-2.5895,-2.5633,-2.5382,-2.5175,-2.4636,-2.4078,-2.3513,-2.3078,-2.2603,-2.2101,-2.2101,-2.2035,-2.1959,-2.1873,-2.1492,-0.5056,-0.495,-0.4911,-0.5143,-0.4861,0.0,-0.3304,-0.2608,-0.1856,0.0,-0.0203,-0.0139,-0.0072,0.0747,0.1614,0.2386,0.336,0.4329,0.5333,0.0,0.0,0.0,0.0,0.0,0.7629,0.886,0.9662,0.9859,0.9951,1.0038,1.0038,1.0038,1.0381,1.1241,1.1408,1.2345,1.4055,1.4139,1.4055,1.4055,1.3711,1.3203,1.2534,1.2186,1.2528,1.3222,1.1837,1.123,1.0956,0.8428,0.6851,0.5877,0.3826,0.0704,-0.2957,-0.6316,-1.2362,-1.9554,-2.4788,-3.0185,-3.561,-4.0633,-4.2894,-4.3896,-4.5161,-4.5637,-4.5733,-4.5742,-4.5456,-4.5,-4.4158,-4.3738,-4.3155,-4.1619,-4.0758,-3.9985,-3.8917,-3.8302,-3.8001,-3.8205,-3.7934,-3.7508,-3.6966,-3.5819,-3.4714,-3.3699,-3.2818,-3.2141,-3.1596,-3.0885,-3.0558,-3.111,-2.9073,-2.7877,-2.8335,-2.6871,-2.5975,-2.5975,-2.5902,-2.56,-2.512,-2.4512,-2.4057,-2.3667,-2.2647,-2.2101,-2.2101,-2.2101,-2.2025,-2.1807,-2.1807,-2.1807,-0.495,-0.4988,-0.5012,-0.4763,-0.4964,0.0,-0.4255,-0.3828,-0.328,0.0,-0.1573,-0.1032,-0.0404,0.0339,0.0946,0.1175,0.249,0.3995,0.5248,0.5404,0.0,0.0,0.0,0.0,0.6777,0.7132,0.7786,0.9056,0.9685,1.0038,1.0038,1.0038,1.0381,1.1241,1.1997,1.2936,1.4055,1.4139,1.3971,1.3789,1.3039,1.2875,1.3222,1.296,1.279,1.279,1.1569,1.088,1.0284,0.7471,0.5343,0.3648,0.2318,-0.1323,-0.6279,-1.0852,-1.6792,-2.3353,-2.8996,-3.4462,-3.9264,-4.1378,-4.2977,-4.4304,-4.5527,-4.5375,-4.4843,-4.5208,-4.5194,-4.4833,-4.393,-4.3398,-4.2684,-4.0937,-4.0363,-3.9851,-3.839,-3.8084,-3.7943,-3.7551,-3.7373,-3.7194,-3.6831,-3.5434,-3.4298,-3.3959,-3.269,-3.1669,-3.1421,-3.1198,-3.0797,-3.0088,-2.9124,-2.8488,-2.839,-2.7092,-2.6234,-2.6302,-2.5702,-2.5109,-2.4639,-2.435,-2.3978,-2.3502,-2.2723,-2.2327,-2.2327,-2.2176,-2.2101,-2.2025,-2.2025,-2.1959,-0.489,-0.496,-0.4949,-0.4871,0.0,0.0,0.0,-0.3849,-0.3411,-0.2669,-0.1895,-0.13,-0.1037,-0.0326,0.0325,0.0736,0.1833,0.2887,0.3577,0.4602,0.0,0.0,0.0,0.0,0.6857,0.7261,0.793,0.9034,0.9466,0.9686,0.9795,1.0213,1.0942,1.1997,1.2936,1.3795,1.4741,1.4657,1.4307,1.3704,1.3457,1.33,1.3215,1.296,1.2699,1.2431,1.1826,1.0524,0.8777,0.6734,0.3436,-0.0351,-0.0967,-0.4832,-1.0553,-1.5451,-2.1616,-2.8292,-3.3016,-3.7175,-4.069,-4.2507,-4.3433,-4.3965,-4.4527,-4.4511,-4.441,-4.4968,-4.477,-4.4224,-4.348,-4.2887,-4.2096,-4.0634,-4.0201,-3.9817,-3.8311,-3.8042,-3.787,-3.7118,-3.6892,-3.6708,-3.6117,-3.4978,-3.3959,-3.3269,-3.1928,-3.1043,-3.1172,-3.0537,-2.9969,-2.992,-2.8875,-2.8017,-2.7657,-2.6644,-2.5813,-2.5509,-2.5054,-2.4845,-2.4735,-2.4548,-2.4062,-2.349,-2.2886,-2.2553,-2.2553,-2.2478,-2.2327,-2.2252,-2.2252,-2.2101,-0.4929,-0.4904,-0.4944,-0.5016,0.0,-0.4602,0.0,0.0,0.0,-0.2811,-0.2189,-0.1714,-0.168,0.0,0.0,0.0,0.0,0.0,0.0,0.3253,0.0,0.0,0.0,0.0,0.0,0.7312,0.8175,0.9073,0.9004,0.9068,0.9489,1.0236,1.1249,1.259,1.3199,1.4085,1.534,1.4748,1.4314,1.3873,1.4055,1.3808,1.3222,1.2784,1.2601,1.2419,1.1558,0.9995,0.8063,0.5739,0.1392,-0.3865,-0.4642,-0.9014,-1.5399,-2.0048,-2.6203,-3.2697,-3.6103,-3.8857,-4.1226,-4.3143,-4.3629,-4.342,-4.3331,-4.3637,-4.4154,-4.4748,-4.4346,-4.3643,-4.3067,-4.2429,-4.1639,-4.0463,-4.0136,-3.9766,-3.8367,-3.8042,-3.7754,-3.6831,-3.6538,-3.6211,-3.5464,-3.4566,-3.3504,-3.2425,-3.1186,-3.0401,-3.0607,-2.9599,-2.917,-2.9894,-2.8475,-2.7439,-2.7124,-2.6252,-2.5455,-2.4859,-2.4793,-2.4867,-2.4934,-2.4837,-2.4334,-2.3599,-2.3191,-2.299,-2.299,-2.299,-2.2767,-2.2478,-2.2402,-2.2327,0.0,0.0,0.0,0.0,-0.4874,0.0,0.0,0.0,-0.4346,-0.3626,0.0,0.0,0.0,0.0,0.0,0.0,0.0,0.0,0.0719,0.1647,0.2329,0.0,0.0,0.0,0.0,0.5197,0.6637,0.8307,0.7874,0.8077,0.9255,0.9278,1.0187,1.2413,1.1583,1.2362,1.509,1.3294,1.3033,1.4307,1.3548,1.3476,1.3913,1.2857,1.2687,1.3045,0.9548,0.9118,1.0346,0.4164,-0.0431,-0.3946,-0.7702,-1.3598,-2.039,-2.4671,-2.9728,-3.4777,-3.7174,-3.9564,-4.1661,-4.211,-4.2695,-4.3195,-4.293,-4.3273,-4.387,-4.4395,-4.4095,-4.3483,-4.283,-4.2185,-4.1455,-4.0285,-3.9935,-3.9508,-3.8197,-3.7796,-3.7429,-3.6662,-3.6352,-3.6006,-3.5255,-3.4245,-3.31,-3.1791,-3.0775,-2.9967,-2.9536,-2.9334,-2.9295,-2.9379,-2.8163,-2.751,-2.7949,-2.6712,-2.5934,-2.5922,-2.586,-2.5635,-2.5278,-2.5254,-2.4778,-2.3818,-2.3902,-2.3975,-2.3975,-2.3975,-2.3475,-2.2628,-2.2478,-2.2327,0.0,0.0,0.0,0.0,0.0,0.0,-0.4657,0.0,-0.4509,0.0,0.0,0.0,0.0,0.0,0.0,0.0,-0.0726,0.0,0.0,0.0,0.1694,0.0,0.0,0.0,0.0,0.0,0.0,0.0,0.7092,0.7159,0.8553,0.9156,1.0014,1.12,1.1792,1.2754,1.4139,1.3112,1.3197,1.4391,1.3294,1.2869,1.3033,1.2504,1.1455,0.9889,0.8202,0.6621,0.5036,0.0087,-0.4989,-1.02,-1.6016,-2.0599,-2.4455,-2.8824,-3.309,-3.7066,-3.938,-4.0621,-4.1188,-4.1283,-4.1392,-4.1671,-4.2449,-4.2702,-4.2925,-4.4027,-4.3849,-4.3158,-4.2564,-4.1937,-4.1171,-4.0031,-3.9657,-3.9227,-3.7883,-3.7552,-3.7285,-3.6646,-3.6352,-3.5864,-3.4633,-3.3739,-3.2687,-3.1227,-3.0073,-2.9311,-2.9403,-2.9044,-2.8765,-2.8765,-2.8239,-2.7697,-2.7188,-2.6598,-2.6039,-2.5696,-2.6039,-2.6153,-2.5943,-2.5931,-2.5709,-2.5334,-2.4992,-2.4791,-2.4791,-2.4791,-2.4576,-2.4227,-2.3621,-2.3254,-0.5067,0.0,0.0,0.0,0.0,0.0,0.0,0.0,0.0,0.0,0.0,0.0,0.0,0.0,-0.2875,-0.22,0.0,-0.1214,0.0,-0.0216,0.0,0.0,0.0,0.0,0.0,0.0,0.0,0.0,0.0,0.6051,0.769,0.8679,0.9523,1.0269,1.1277,1.226,1.3275,1.2766,1.3112,1.4321,1.3215,1.2693,1.2681,1.1815,1.0144,0.7774,0.595,0.3132,-0.0521,-0.5014,-1.0514,-1.6802,-2.2826,-2.6807,-2.9546,-3.3077,-3.6215,-3.898,-4.0805,-4.1181,-4.084,-4.0766,-4.0532,-4.0545,-4.1838,-4.1907,-4.1855,-4.3117,-4.2894,-4.2159,-4.174,-4.1047,-4.0301,-3.9404,-3.9003,-3.8486,-3.7294,-3.708,-3.6926,-3.6275,-3.6151,-3.5804,-3.4479,-3.3619,-3.2546,-3.0897,-2.9669,-2.9016,-2.9197,-2.8585,-2.8137,-2.8137,-2.8001,-2.749,-2.6452,-2.6414,-2.6277,-2.5931,-2.6427,-2.6633,-2.6414,-2.6552,-2.6633,-2.6414,-2.5861,-2.5581,-2.5581,-2.5581,-2.5581,-2.5581,-2.4767,-2.4253,0.0,0.0,0.0,-0.4992,0.0,0.0,0.0,0.0,-0.4863,0.0,0.0,0.0,0.0,-0.3989,-0.3729,-0.2997,-0.2871,0.0,0.0,0.0,0.0,0.0,0.0,0.0,0.0,0.0,0.0,0.0,0.0,0.0,0.6737,0.7302,0.8309,0.9933,0.9005,0.9937,1.3008,1.1918,1.2272,1.4088,1.3137,1.3045,1.3561,1.0616,0.91,0.8402,0.2074,-0.1693,-0.3924,-1.0863,-1.6823,-2.204,-2.5966,-3.1054,-3.631,-3.7649,-3.9048,-4.0365,-4.0645,-4.0848,-4.0941,-4.0696,-4.0468,-4.0432,-4.1051,-4.0915,-4.0682,-4.1393,-4.0876,-4.0068,-3.9917,-3.921,-3.8448,-3.8294,-3.7742,-3.7086,-3.6381,-3.6262,-3.6142,-3.54,-3.5752,-3.5934,-3.5108,-3.4303,-3.3002,-3.0743,-2.9958,-2.9319,-2.8546,-2.7902,-2.7562,-2.7562,-2.6863,-2.644,-2.6414,-2.6414,-2.6701,-2.739,-2.7456,-2.7108,-2.6427,-2.7121,-2.7108,-2.6414,-2.6346,-2.6346,-2.6346,-2.6346,-2.6346,-2.6346,-2.5405,-2.4957,0.0,0.0,-0.544,-0.5135,0.0,0.0,0.0,0.0,0.0,0.0,0.0,0.0,0.0,-0.461,-0.4366,-0.3603,-0.3488,-0.3268,0.0,0.0,0.0,0.0,0.0,0.0,0.0,0.0,0.0,0.0,0.3394,0.0,0.0,0.6423,0.7247,0.8542,0.9485,1.0254,1.0966,1.1149,1.1843,1.2966,1.0778,1.0341,1.1305,0.7767,0.4819,0.207,-0.3521,-0.7667,-1.1027,-1.7967,-2.2739,-2.6128,-3.0846,-3.4728,-3.7753,-3.8242,-3.9337,-4.0625,-4.0821,-4.0879,-4.084,-4.0655,-4.0345,-4.0157,-4.076,-4.0633,-4.0436,-4.112,-4.0991,-4.0581,-4.0238,-3.9589,-3.8824,-3.8009,-3.7371,-3.6666,-3.5616,-3.5814,-3.6031,-3.5488,-3.5953,-3.615,-3.5386,-3.494,-3.4112,-3.2382,-3.0391,-2.9226,-2.9455,-2.8465,-2.7723,-2.7723,-2.7377,-2.7108,-2.7108,-2.7108,-2.7255,-2.7456,-2.7523,-2.739,-2.7121,-2.739,-2.739,-2.7108,-2.7108,-2.7108,-2.7108,-2.7108,-2.7108,-2.7108,-2.6824,-2.6389,-0.5686,-0.5829,0.0,-0.5826,-0.5821,0.0,-0.5163,0.0,0.0,0.0,0.0,0.0,0.0,-0.5392,-0.4823,-0.4601,-0.4349,-0.3946,0.0,-0.3174,0.0,0.0,0.0,-0.051,0.0,0.0286,0.1054,0.2812,0.2631,0.0,0.0,0.0,0.6607,0.765,0.9086,0.9965,1.0253,1.0854,1.158,1.2351,1.0086,0.9118,0.9174,0.5078,0.0948,-0.3367,-0.9277,-1.4304,-1.8844,-2.4951,-2.874,-3.1191,-3.4989,-3.7418,-3.8798,-3.9125,-3.9882,-4.0777,-4.0854,-4.0879,-4.0796,-4.0549,-4.0262,-4.0059,-4.0245,-4.008,-3.9907,-4.0253,-4.0166,-3.9815,-3.9355,-3.8812,-3.8087,-3.7189,-3.6666,-3.6055,-3.4868,-3.5214,-3.554,-3.488,-3.5231,-3.5584,-3.5296,-3.4942,-3.4265,-3.3129,-3.1246,-2.9943,-2.9915,-2.8853,-2.8026,-2.7802,-2.759,-2.7523,-2.7523,-2.7523,-2.7523,-2.7523,-2.7523,-2.7523,-2.7523,-2.7523,-2.7523,-2.7523,-2.7523,-2.7523,-2.7523,-2.7523,-2.7523,-2.7523,-2.7523,-2.7255]},{"header":{"parameterUnit":"m.s-1","parameterCategory":1,"la1":30.6,"la2":29.2853,"lo1":-89.7004,"lo2":-87.6739,"dy":0.0162,"dx":0.0183,"nx":112,"ny":82,"refTime":"2026-05-05T12:00:00:Z","depth":0,"parameterNumber":3,"parameterNumberName":"V-component_of_WINDS"},"data":[0.0,0.0,0.0,0.0,0.0,0.0,0.0,0.0,0.0,0.0,0.0,0.0,0.0,0.0,0.0,0.0,0.0,0.0,0.0,0.0,0.0,0.0,0.0,0.0,0.0,0.0,0.0,0.0,0.0,0.0,0.0,0.0,0.0,0.0,0.0,0.0,0.0,0.0,0.0,0.0,0.0,0.0,0.0,0.0,0.0,0.0,0.0,0.0,0.0,0.0,0.0,0.0,0.0,0.0,0.0,0.0,0.0,0.0,0.0,0.0,0.0,0.0,0.0,0.0,0.0,0.0,0.0,0.0,0.0,0.0,0.0,0.0,0.0,0.0,0.0,0.0,0.0,0.0,0.0,0.0,0.0,0.0,0.0,0.0,0.0,0.0,0.0,0.0,0.0,0.0,-2.8656,-3.0399,-3.4554,-3.755,-3.8409,-3.6774,-3.3556,-2.8515,0.0,0.0,0.0,0.0,0.0,0.0,0.0,0.0,0.0,0.0,0.0,0.0,0.0,0.0,0.0,0.0,0.0,0.0,0.0,0.0,0.0,0.0,0.0,0.0,0.0,0.0,0.0,0.0,0.0,0.0,0.0,0.0,0.0,0.0,0.0,0.0,0.0,0.0,0.0,0.0,0.0,0.0,0.0,0.0,0.0,0.0,0.0,0.0,0.0,0.0,0.0,0.0,0.0,0.0,0.0,0.0,0.0,0.0,0.0,0.0,0.0,0.0,0.0,0.0,0.0,0.0,0.0,0.0,0.0,0.0,0.0,0.0,0.0,0.0,0.0,0.0,0.0,0.0,0.0,0.0,0.0,0.0,0.0,0.0,0.0,0.0,0.0,0.0,0.0,0.0,0.0,0.0,0.0,0.0,0.0,0.0,0.0,0.0,0.0,0.0,0.0,0.0,0.0,0.0,-2.9363,-3.5301,-3.6637,-3.7474,-3.8341,-3.6192,-3.2916,-2.8488,0.0,0.0,0.0,0.0,0.0,0.0,0.0,0.0,0.0,0.0,0.0,0.0,0.0,0.0,0.0,0.0,0.0,0.0,0.0,0.0,0.0,0.0,0.0,0.0,0.0,0.0,0.0,0.0,0.0,0.0,0.0,0.0,0.0,0.0,0.0,0.0,0.0,0.0,0.0,0.0,0.0,0.0,0.0,0.0,0.0,0.0,0.0,0.0,0.0,0.0,0.0,0.0,0.0,0.0,0.0,0.0,0.0,0.0,0.0,0.0,0.0,0.0,0.0,0.0,0.0,0.0,0.0,0.0,0.0,0.0,0.0,0.0,0.0,0.0,0.0,0.0,0.0,0.0,0.0,0.0,0.0,0.0,0.0,0.0,0.0,0.0,0.0,0.0,0.0,0.0,0.0,0.0,0.0,0.0,0.0,0.0,0.0,0.0,0.0,0.0,0.0,0.0,0.0,-2.8042,-3.0486,-3.645,-3.6639,-3.6703,-3.7619,-3.5337,-3.2201,-2.8398,-2.7262,0.0,0.0,0.0,0.0,0.0,0.0,0.0,0.0,0.0,0.0,0.0,0.0,0.0,0.0,0.0,0.0,0.0,0.0,0.0,0.0,0.0,0.0,0.0,0.0,0.0,0.0,0.0,0.0,0.0,0.0,0.0,0.0,0.0,0.0,0.0,0.0,0.0,0.0,0.0,0.0,0.0,0.0,0.0,0.0,0.0,0.0,0.0,0.0,0.0,0.0,0.0,0.0,0.0,0.0,0.0,0.0,0.0,0.0,0.0,0.0,0.0,0.0,0.0,0.0,0.0,0.0,0.0,0.0,0.0,0.0,0.0,0.0,0.0,0.0,0.0,0.0,0.0,0.0,0.0,0.0,0.0,0.0,0.0,0.0,0.0,0.0,0.0,0.0,0.0,0.0,0.0,0.0,0.0,0.0,0.0,0.0,0.0,0.0,0.0,0.0,0.0,0.0,-3.0145,-3.1967,-3.6557,-3.6234,-3.5994,-3.6705,-3.4187,-3.1227,-2.7994,-2.5798,0.0,0.0,0.0,0.0,0.0,0.0,0.0,0.0,0.0,0.0,0.0,0.0,0.0,0.0,0.0,0.0,0.0,0.0,0.0,0.0,0.0,0.0,0.0,0.0,0.0,0.0,0.0,0.0,0.0,0.0,0.0,0.0,0.0,0.0,0.0,0.0,0.0,0.0,0.0,0.0,0.0,0.0,0.0,0.0,0.0,0.0,0.0,0.0,0.0,0.0,0.0,0.0,0.0,0.0,0.0,0.0,0.0,0.0,0.0,0.0,0.0,0.0,0.0,0.0,0.0,0.0,0.0,0.0,0.0,0.0,0.0,0.0,0.0,0.0,0.0,0.0,0.0,0.0,0.0,0.0,0.0,0.0,0.0,0.0,0.0,0.0,0.0,0.0,0.0,0.0,0.0,0.0,0.0,0.0,0.0,0.0,0.0,0.0,0.0,0.0,0.0,0.0,-3.0956,-3.3886,-3.6613,-3.6187,-3.5723,-3.5792,-3.2725,-2.9668,-2.7055,-2.3842,0.0,0.0,0.0,0.0,0.0,0.0,0.0,0.0,0.0,0.0,0.0,0.0,0.0,0.0,0.0,0.0,0.0,0.0,0.0,0.0,0.0,0.0,0.0,0.0,0.0,0.0,0.0,0.0,0.0,0.0,0.0,0.0,0.0,0.0,0.0,0.0,0.0,0.0,0.0,0.0,0.0,0.0,0.0,0.0,0.0,0.0,0.0,0.0,0.0,0.0,0.0,0.0,0.0,0.0,0.0,0.0,0.0,0.0,0.0,0.0,0.0,0.0,0.0,0.0,0.0,0.0,0.0,0.0,0.0,0.0,0.0,0.0,0.0,0.0,0.0,0.0,0.0,0.0,0.0,0.0,0.0,0.0,0.0,0.0,0.0,0.0,0.0,0.0,0.0,0.0,0.0,0.0,0.0,0.0,0.0,0.0,0.0,0.0,0.0,0.0,0.0,0.0,-3.0106,-3.2724,-3.5831,-3.5878,-3.5704,-3.5704,-3.3035,-3.0275,-2.7762,0.0,0.0,0.0,0.0,0.0,0.0,0.0,0.0,0.0,0.0,0.0,0.0,0.0,0.0,0.0,0.0,0.0,0.0,0.0,0.0,0.0,0.0,0.0,0.0,0.0,0.0,0.0,0.0,0.0,0.0,0.0,0.0,0.0,0.0,0.0,0.0,0.0,0.0,0.0,0.0,0.0,0.0,0.0,0.0,0.0,0.0,0.0,0.0,0.0,0.0,0.0,0.0,0.0,0.0,0.0,0.0,0.0,0.0,0.0,0.0,0.0,0.0,0.0,0.0,0.0,0.0,0.0,0.0,0.0,0.0,0.0,0.0,0.0,0.0,0.0,0.0,0.0,0.0,0.0,0.0,0.0,0.0,0.0,0.0,0.0,0.0,0.0,0.0,0.0,0.0,0.0,0.0,0.0,0.0,0.0,0.0,0.0,0.0,0.0,0.0,0.0,0.0,-2.7964,-3.0188,-3.2492,-3.5386,-3.5673,-3.5546,-3.5222,-3.2566,-2.9873,-2.7331,0.0,0.0,0.0,0.0,0.0,0.0,0.0,0.0,0.0,0.0,0.0,0.0,0.0,0.0,0.0,0.0,0.0,0.0,0.0,0.0,0.0,0.0,0.0,0.0,0.0,0.0,0.0,0.0,0.0,0.0,0.0,0.0,0.0,0.0,0.0,0.0,0.0,0.0,0.0,0.0,0.0,0.0,0.0,0.0,0.0,0.0,0.0,0.0,0.0,0.0,0.0,0.0,0.0,0.0,0.0,0.0,0.0,0.0,0.0,0.0,0.0,0.0,0.0,0.0,0.0,0.0,0.0,0.0,0.0,0.0,0.0,0.0,0.0,0.0,0.0,0.0,0.0,0.0,0.0,0.0,0.0,0.0,0.0,0.0,0.0,0.0,0.0,0.0,0.0,0.0,0.0,0.0,0.0,0.0,0.0,0.0,0.0,0.0,0.0,0.0,0.0,0.0,-2.8849,-3.1506,-3.374,-3.551,-3.5631,-3.5186,-3.4166,-3.1039,-2.8005,0.0,0.0,0.0,0.0,0.0,0.0,0.0,0.0,0.0,0.0,0.0,0.0,0.0,0.0,0.0,0.0,0.0,0.0,0.0,0.0,0.0,0.0,0.0,0.0,0.0,0.0,0.0,0.0,0.0,0.0,0.0,0.0,0.0,0.0,0.0,0.0,0.0,0.0,0.0,0.0,0.0,0.0,0.0,0.0,0.0,0.0,0.0,0.0,0.0,0.0,0.0,0.0,0.0,0.0,0.0,0.0,0.0,0.0,0.0,0.0,0.0,0.0,0.0,0.0,0.0,0.0,0.0,0.0,0.0,0.0,0.0,0.0,0.0,0.0,0.0,0.0,0.0,0.0,0.0,0.0,0.0,0.0,0.0,0.0,0.0,0.0,0.0,0.0,0.0,0.0,0.0,0.0,0.0,0.0,0.0,0.0,0.0,0.0,0.0,0.0,0.0,0.0,0.0,-2.8502,-3.0737,-3.2741,-3.4975,-3.5189,-3.4814,-3.391,-3.1836,-2.9254,-2.6167,0.0,0.0,0.0,0.0,0.0,0.0,0.0,0.0,0.0,0.0,0.0,0.0,0.0,0.0,0.0,0.0,0.0,0.0,0.0,0.0,0.0,0.0,0.0,0.0,0.0,0.0,0.0,0.0,0.0,0.0,0.0,0.0,0.0,0.0,0.0,0.0,0.0,0.0,0.0,0.0,0.0,0.0,0.0,0.0,0.0,0.0,0.0,0.0,0.0,0.0,0.0,0.0,0.0,0.0,0.0,0.0,0.0,0.0,0.0,0.0,0.0,0.0,0.0,0.0,0.0,0.0,0.0,0.0,0.0,0.0,0.0,0.0,0.0,0.0,0.0,0.0,0.0,0.0,0.0,0.0,0.0,0.0,0.0,0.0,0.0,0.0,0.0,0.0,0.0,0.0,0.0,0.0,0.0,0.0,0.0,0.0,0.0,0.0,0.0,0.0,0.0,0.0,-2.8638,-3.0777,-3.2607,-3.4602,-3.4774,-3.4491,-3.3805,-3.2015,-2.9619,-2.6616,0.0,0.0,0.0,0.0,0.0,0.0,0.0,0.0,0.0,0.0,0.0,0.0,0.0,0.0,0.0,0.0,0.0,0.0,0.0,0.0,0.0,0.0,0.0,0.0,0.0,0.0,0.0,0.0,0.0,0.0,0.0,0.0,0.0,0.0,0.0,0.0,0.0,0.0,0.0,0.0,0.0,0.0,0.0,0.0,0.0,0.0,0.0,0.0,0.0,0.0,0.0,0.0,0.0,0.0,0.0,0.0,0.0,0.0,0.0,0.0,0.0,0.0,0.0,0.0,0.0,0.0,0.0,0.0,0.0,0.0,0.0,0.0,0.0,0.0,0.0,0.0,0.0,0.0,0.0,0.0,0.0,0.0,0.0,0.0,0.0,0.0,0.0,0.0,0.0,0.0,0.0,0.0,0.0,0.0,0.0,0.0,0.0,0.0,0.0,0.0,0.0,0.0,-2.8907,-3.1138,-3.2803,-3.4237,-3.4323,-3.4128,-3.3684,-3.1747,-2.9397,-2.6737,0.0,0.0,0.0,0.0,0.0,0.0,0.0,0.0,0.0,0.0,0.0,0.0,0.0,0.0,0.0,0.0,0.0,0.0,0.0,0.0,0.0,0.0,0.0,0.0,0.0,0.0,0.0,0.0,0.0,0.0,0.0,0.0,0.0,0.0,0.0,0.0,0.0,0.0,0.0,0.0,0.0,0.0,0.0,0.0,0.0,0.0,0.0,0.0,0.0,0.0,0.0,0.0,0.0,0.0,0.0,0.0,0.0,0.0,0.0,0.0,2.8274,0.0,0.0,0.0,0.0,0.0,0.0,0.0,0.0,0.0,0.0,0.0,0.0,0.0,0.0,0.0,0.0,0.0,0.0,0.0,0.0,0.0,0.0,0.0,0.0,0.0,0.0,0.0,0.0,0.0,0.0,0.0,0.0,0.0,0.0,0.0,0.0,0.0,0.0,0.0,0.0,0.0,-2.7757,-2.9604,-3.128,-3.3413,-3.3625,-3.3287,-3.2538,-3.1455,-2.9532,-2.6481,-2.3739,0.0,0.0,0.0,0.0,0.0,0.0,0.0,0.0,0.0,0.0,0.0,0.0,0.0,0.0,0.0,0.0,0.0,0.0,0.0,0.0,0.0,0.0,0.0,0.0,0.0,0.0,0.0,0.0,0.0,0.0,0.0,0.0,0.0,0.0,0.0,0.0,0.0,0.0,0.0,0.0,0.0,0.0,0.0,0.0,0.0,0.0,0.0,0.0,0.0,0.0,0.0,0.0,0.0,0.0,0.0,0.0,0.0,0.0,0.0,0.0,3.0554,0.0,0.0,0.0,0.0,0.0,0.0,0.0,0.0,0.0,0.0,0.0,0.0,0.0,0.0,0.0,0.0,0.0,0.0,0.0,0.0,0.0,0.0,0.0,0.0,0.0,0.0,0.0,0.0,0.0,0.0,0.0,0.0,0.0,0.0,0.0,0.0,0.0,0.0,0.0,0.0,-2.6707,-2.8317,-2.98,-3.1903,-3.1813,-3.1266,-3.0432,-3.0118,-2.898,-2.6673,-2.4352,0.0,0.0,0.0,0.0,0.0,0.0,0.0,0.0,0.0,0.0,0.0,0.0,0.0,0.0,0.0,0.0,0.0,0.0,0.0,0.0,0.0,0.0,0.0,0.0,0.0,0.0,0.0,0.0,0.0,0.0,0.0,0.0,0.0,0.0,0.0,0.0,0.0,0.0,0.0,0.0,0.0,0.0,0.0,0.0,0.0,0.0,0.0,0.0,0.0,0.0,0.0,0.0,0.0,3.7175,3.8142,3.8974,3.9083,3.9498,3.9952,3.6362,3.4661,3.4202,0.0,0.0,0.0,0.0,0.0,0.0,0.0,0.0,0.0,0.0,0.0,0.0,0.0,0.0,0.0,0.0,0.0,0.0,0.0,0.0,0.0,0.0,0.0,0.0,0.0,-3.0047,-2.8395,0.0,0.0,0.0,0.0,0.0,0.0,0.0,0.0,0.0,0.0,0.0,0.0,-2.578,-2.7325,-2.8646,-3.0367,-2.9986,-2.9325,-2.8518,-2.8638,-2.82,-2.6862,-2.5031,-2.3079,0.0,0.0,0.0,0.0,0.0,0.0,0.0,0.0,0.0,0.0,0.0,0.0,0.0,0.0,0.0,0.0,0.0,0.0,0.0,0.0,0.0,0.0,0.0,0.0,0.0,0.0,0.0,0.0,0.0,0.0,0.0,0.0,2.2086,2.3185,0.0,0.0,0.0,0.0,0.0,0.0,0.0,0.0,0.0,0.0,0.0,0.0,0.0,3.5245,3.6812,3.8289,3.9279,3.9804,4.105,4.1944,4.2444,4.2694,4.2802,4.2761,4.2241,0.0,3.7397,3.4901,0.0,0.0,0.0,0.0,0.0,0.0,0.0,0.0,0.0,0.0,0.0,0.0,0.0,0.0,0.0,0.0,0.0,0.0,0.0,0.0,0.0,0.0,-3.2703,-3.2596,-3.2106,-3.1225,0.0,-2.6637,-2.3934,-2.3236,-2.1789,0.0,0.0,0.0,0.0,0.0,0.0,0.0,-2.4996,-2.6977,-2.8441,-2.9403,-2.942,-2.9042,-2.8304,-2.8201,-2.7696,-2.6452,-2.5828,-2.5045,-2.3981,-2.2341,0.0,0.0,0.0,0.0,0.0,0.0,0.0,0.0,0.0,0.0,0.0,0.0,0.0,0.0,0.0,0.0,0.0,0.0,0.0,0.0,0.0,0.0,0.0,0.0,0.0,0.0,0.0,0.0,0.0,2.2631,2.4457,2.5386,2.6319,2.6684,0.0,0.0,0.0,0.0,0.0,0.0,0.0,0.0,0.0,3.675,3.7489,3.8404,3.9604,4.138,4.2387,4.2582,4.379,4.4517,4.4788,4.4878,4.4902,4.4928,4.4997,4.3805,4.1583,3.8962,3.6307,3.3744,0.0,0.0,0.0,0.0,2.8244,2.7327,2.6156,2.5129,0.0,0.0,0.0,0.0,0.0,0.0,0.0,0.0,0.0,0.0,0.0,0.0,0.0,-3.4829,-3.3732,-3.2465,-3.24,-2.9696,-2.681,0.0,-2.4236,-2.2685,-1.9434,0.0,0.0,0.0,0.0,-2.1663,-2.4235,-2.5452,-2.649,-2.7599,-2.713,-2.6405,-2.5631,-2.6333,-2.6387,-2.5468,-2.5637,-2.5472,-2.4684,-2.3465,-2.1804,0.0,0.0,0.0,0.0,0.0,0.0,0.0,0.0,0.0,0.0,0.0,0.0,0.0,0.0,0.0,0.0,0.0,0.0,0.0,0.0,0.0,0.0,0.0,0.0,0.0,0.0,0.0,0.0,2.4617,2.6681,2.7521,2.9246,2.9938,0.0,0.0,0.0,0.0,0.0,0.0,3.5349,3.6032,3.7395,3.9724,4.0545,4.1355,4.2197,4.3803,4.4623,4.465,4.5522,4.5987,4.6059,4.6066,4.6089,4.6152,4.6191,4.5703,4.4696,4.2168,3.9451,3.6746,3.572,3.3777,3.162,3.2294,3.1691,3.0384,2.9391,2.8426,2.7279,2.507,0.0,2.1844,1.6613,0.0,0.0,0.0,0.0,-3.0016,-3.412,-3.4938,-3.4999,-3.6252,-3.4816,-3.3294,-3.37,-3.1724,-2.93,0.0,-2.6455,-2.4956,-2.1108,0.0,0.0,0.0,0.0,-2.1458,-2.3565,-2.4137,-2.4792,-2.5926,-2.5227,-2.4302,-2.3374,-2.4661,-2.5231,-2.4543,-2.512,-2.5268,-2.4778,-2.3955,-2.2562,-2.0607,0.0,0.0,0.0,0.0,0.0,0.0,0.0,0.0,0.0,0.0,0.0,0.0,0.0,0.0,0.0,0.0,0.0,0.0,0.0,0.0,0.0,0.0,0.0,0.0,0.0,0.0,0.0,0.0,0.0,3.0002,3.1832,0.0,0.0,0.0,0.0,3.3668,3.5809,3.7757,3.9139,4.004,4.1367,4.3284,4.3645,4.4231,4.5184,4.5538,4.5751,4.5831,4.5994,4.606,4.6011,4.6122,4.6126,4.6013,4.6008,4.5872,4.5499,4.3639,4.1959,4.0382,3.8925,3.8065,3.7492,3.6082,3.5983,3.605,3.2616,3.149,3.1177,2.9228,2.7067,2.2748,0.9336,0.544,0.0,0.0,-2.3912,-2.5374,-3.5554,-3.7094,-3.6032,-3.6112,-3.5133,-3.4027,-3.3296,-3.1602,-3.0078,0.0,-2.7997,-2.6065,-2.4414,0.0,-2.1446,-2.1407,-2.1316,-2.1698,-2.2989,-2.3651,-2.423,-2.4759,-2.4664,-2.41,-2.2849,-2.3966,-2.4537,-2.3984,-2.4323,-2.4595,-2.4705,-2.392,-2.2794,-2.1293,-2.0636,0.0,0.0,0.0,0.0,0.0,0.0,0.0,0.0,0.0,0.0,0.0,0.0,0.0,0.0,0.0,0.0,0.0,0.0,0.0,0.0,0.0,0.0,0.0,0.0,0.0,0.0,0.0,0.0,3.3196,3.5186,0.0,3.5112,3.6071,3.6757,3.6856,3.8422,4.004,4.153,4.2394,4.3409,4.4598,4.4976,4.5317,4.565,4.5875,4.6007,4.6041,4.615,4.6183,4.6127,4.6171,4.6163,4.6125,4.6138,4.601,4.5783,4.4943,4.3747,4.234,4.1539,4.0506,3.9355,3.8541,3.7888,3.7182,3.581,3.4683,3.3379,3.105,2.7739,2.1416,0.4143,-0.208,-0.738,-2.7446,-3.279,-3.3546,-3.8066,-3.8089,-3.6949,-3.6936,-3.5581,-3.396,-3.2599,-3.1384,-3.0351,-2.9762,-2.8575,-2.6759,-2.404,-2.3603,-2.2968,-2.0876,-2.1267,-2.1955,-2.2289,-2.3014,-2.3505,-2.3591,-2.3608,-2.3197,-2.2156,-2.2961,-2.325,-2.2529,-2.3106,-2.3484,-2.3553,-2.3142,-2.2684,-2.2156,-2.0977,-1.9087,0.0,0.0,0.0,0.0,0.0,0.0,0.0,0.0,0.0,0.0,0.0,0.0,0.0,0.0,0.0,0.0,0.0,0.0,0.0,0.0,0.0,0.0,0.0,0.0,0.0,0.0,3.4049,3.6052,3.8217,3.9111,3.8053,3.9134,3.9922,3.9952,4.1063,4.231,4.3533,4.4157,4.4748,4.5379,4.5694,4.5859,4.5894,4.6033,4.6118,4.6176,4.6222,4.6247,4.6208,4.6182,4.6147,4.6088,4.6092,4.5978,4.578,4.5534,4.4825,4.385,4.3352,4.2345,4.1124,4.0646,3.9919,3.9066,3.8286,3.6705,3.4687,3.2825,2.9491,2.3042,0.6352,-0.3075,-1.1506,-2.8281,-3.5842,-3.9037,-3.9671,-3.8714,-3.7453,-3.6937,-3.5383,-3.3616,-3.1987,-3.1045,-3.0194,-2.9188,-2.8426,-2.7143,-2.4792,-2.4234,-2.3346,-2.0923,-2.107,-2.1412,-2.1384,-2.2104,-2.2696,-2.2772,-2.2949,-2.2717,-2.1917,-2.22,-2.2204,-2.174,-2.1937,-2.2227,-2.2563,-2.1889,-2.1632,-2.1837,-2.0514,-1.915,-1.7725,0.0,0.0,0.0,0.0,0.0,0.0,0.0,0.0,0.0,0.0,0.0,0.0,0.0,0.0,0.0,0.0,0.0,0.0,0.0,0.0,0.0,0.0,0.0,3.1469,3.4871,3.765,3.8441,4.0836,4.1814,4.027,4.2253,4.341,4.2883,4.3839,4.4675,4.5182,4.5342,4.553,4.5777,4.5869,4.5974,4.6105,4.6111,4.6172,4.63,4.6228,4.6208,4.6202,4.6131,4.6017,4.5906,4.5891,4.5789,4.5603,4.5396,4.5207,4.5038,4.4346,4.3698,4.3051,4.2462,4.2262,4.2042,4.0058,3.7597,3.5226,3.4646,3.2459,2.7785,1.5792,0.336,-0.9028,-2.0722,-3.175,-4.0039,-4.0101,-3.9,-3.7508,-3.6044,-3.4555,-3.3033,-3.1462,-3.0492,-2.9528,-2.8262,-2.7579,-2.7164,-2.6869,-2.4688,-2.2696,-2.1836,-2.0874,0.0,-2.0291,-2.1062,-2.1732,-2.2128,-2.2586,-2.2598,-2.2004,-2.1628,-2.147,-2.1614,-2.0825,-2.0795,-2.1816,-2.0286,-1.975,-2.043,-1.9471,-1.9206,-1.9671,0.0,0.0,0.0,0.0,0.0,0.0,0.0,0.0,0.0,0.0,0.0,0.0,0.0,0.0,0.0,0.0,0.0,0.0,0.0,0.0,0.0,3.3706,3.6017,3.569,3.7558,3.9495,4.0991,4.2492,4.331,4.2988,4.3746,4.4282,4.4316,4.4817,4.5188,4.5339,4.5615,4.58,4.588,4.5971,4.606,4.6105,4.6206,4.6261,4.63,4.627,4.6249,4.6202,4.6171,4.6105,4.5964,4.5925,4.5809,4.5658,4.5552,4.5304,4.4891,4.4327,4.3986,4.3758,4.316,4.2831,4.2523,4.0967,3.9412,3.7835,3.6615,3.3571,2.8268,1.6836,0.9396,0.0879,-1.8542,-2.5714,-2.9481,-3.7909,-3.8937,-3.7387,-3.5834,-3.3953,-3.196,-2.9995,-2.8575,-2.7493,-2.6916,-2.6466,-2.5945,-2.5331,-2.4839,-2.3947,-2.2107,-2.099,0.0,-2.0224,-2.0501,-2.0471,-1.9674,-2.0529,-2.0616,-1.9296,-1.958,-1.9822,-1.9821,-1.9633,-1.9826,-2.0501,-2.0369,-2.0671,-2.1466,-2.0535,-2.0489,0.0,0.0,0.0,0.0,0.0,0.0,0.0,0.0,0.0,0.0,0.0,0.0,0.0,0.0,0.0,0.0,0.0,0.0,0.0,0.0,0.0,0.0,3.7021,3.9494,3.9911,4.0617,4.1549,4.2922,4.3793,4.4323,4.4425,4.4687,4.4934,4.5112,4.5426,4.5615,4.5609,4.5852,4.5974,4.5986,4.6119,4.6183,4.6175,4.6254,4.6297,4.6306,4.6278,4.6249,4.62,4.6175,4.6086,0.0,4.5933,4.5789,4.5629,4.5594,4.54,0.0,0.0,0.0,0.0,0.0,4.3272,4.2894,4.2032,4.0863,3.9562,3.832,3.5429,3.0983,2.3268,1.5028,0.4831,-1.1964,-2.0627,-2.7032,-3.6506,-3.7627,-3.5852,-3.4288,-3.2242,-3.0145,-2.8435,-2.7414,-2.6667,-2.6147,-2.5851,0.0,-2.5201,-2.4678,-2.3798,-2.24,-2.1331,-2.0484,-1.9969,-2.0329,-2.0335,-1.9608,-2.0369,-2.0646,-1.9874,-1.9798,0.0,0.0,0.0,-1.9217,-1.9271,-1.9759,0.0,0.0,0.0,0.0,0.0,0.0,0.0,0.0,-2.1864,-2.1871,0.0,0.0,0.0,0.0,0.0,0.0,0.0,0.0,0.0,0.0,0.0,0.0,0.0,0.0,0.0,0.0,3.9823,4.2015,4.3664,4.3606,4.3623,4.4323,4.473,4.4979,4.4982,4.528,4.5476,4.5471,4.5753,4.5924,4.5935,0.0,0.0,0.0,0.0,4.6307,4.6307,4.6307,4.6305,4.6295,4.6249,4.621,4.6191,4.6147,4.6045,4.592,4.591,4.5742,4.5475,4.5549,4.5458,4.5297,4.5106,4.4739,4.4318,4.408,4.3732,4.3378,4.3096,0.0,0.0,3.9764,3.7438,3.4497,3.1337,2.021,0.6438,-0.407,-1.615,-2.7726,-3.5393,-3.5739,-3.3734,-3.2221,-3.0101,-2.8092,-2.6953,-2.6549,-2.6251,-2.5673,-2.5508,-2.5536,-2.5825,-2.4321,-2.3032,-2.2836,-2.1799,-2.0692,-1.9773,-2.0348,-2.0795,-2.0485,0.0,0.0,-2.1655,-2.086,-2.0165,-1.9894,-1.9544,-1.9137,-1.8617,-1.9174,-1.9623,-1.9968,-2.0524,-2.1539,-2.3012,-2.3723,-2.4107,-2.4192,-2.3453,-2.2912,0.0,0.0,0.0,0.0,0.0,0.0,0.0,0.0,0.0,0.0,0.0,0.0,0.0,0.0,0.0,4.0253,4.2278,4.3886,4.492,4.5112,4.5093,4.5017,4.5285,4.5432,4.5401,4.5686,4.5908,4.5957,4.6066,4.6143,4.6128,4.6215,4.6267,4.6264,4.6288,4.6308,4.6307,4.6307,4.6305,4.63,0.0,0.0,4.6205,4.6198,4.6133,4.6065,4.5936,4.5708,4.5418,4.5419,4.538,4.5256,4.4814,4.4617,4.4599,4.4501,4.46,4.4692,4.3841,4.3351,4.2798,4.0739,3.8312,3.5163,2.969,2.4482,0.0,-0.4433,-1.1664,-1.6969,-3.3179,-3.5511,-3.3334,-3.2401,-2.9561,-2.6863,-2.6232,-2.5113,-2.4271,-2.4509,-2.4567,-2.4851,-2.5715,-2.4503,-2.3573,-2.3974,-2.251,-2.1091,-2.0473,-2.0285,-1.977,-1.8661,-1.8927,-1.9007,-1.8621,-1.856,-1.8755,-1.908,-1.9891,-2.0367,-2.0384,-2.0859,-2.111,-2.1097,-2.2199,-2.3062,-2.3709,-2.4646,-2.4821,-2.4266,-2.4319,-2.4327,0.0,0.0,0.0,0.0,0.0,0.0,0.0,0.0,0.0,0.0,0.0,3.4817,3.7299,0.0,4.0941,4.2703,4.4075,4.5082,4.5626,4.5777,4.5738,4.5481,4.5665,4.579,4.5789,4.5985,4.6112,4.6147,4.6209,4.6241,4.6258,4.6289,4.6308,4.6308,4.6308,4.6308,4.6308,4.6308,4.6307,4.6305,4.6305,4.6287,4.625,4.6226,4.616,4.6098,4.6017,4.5854,4.5596,4.5528,4.5512,4.5438,4.4947,4.4853,4.5023,4.4905,4.5074,4.5207,4.3961,4.382,4.3686,4.0659,3.91,3.6987,2.931,2.4999,1.8088,-0.4063,-1.1177,-1.5495,-3.0129,-3.3045,-3.1543,-2.9053,-2.7166,-2.5683,-2.4949,-2.4201,-2.3755,-2.4229,-2.4105,-2.4266,-2.5342,-2.4195,-2.3492,-2.4257,-2.2908,-2.1512,-2.0718,-2.0439,-1.9944,-1.8905,-1.8951,-1.9064,-1.898,-1.8796,-1.8881,-1.9363,-1.9754,-2.0175,-2.0586,-2.1019,-2.1362,-2.1654,-2.2335,-2.3047,-2.3762,-2.4107,-2.4372,-2.4646,-2.4628,-2.4634,0.0,0.0,0.0,0.0,0.0,0.0,0.0,3.1656,3.2081,3.5924,3.7367,3.8618,4.0789,4.2337,4.3607,4.4581,4.5325,4.5825,4.5988,4.606,4.6029,4.5811,4.5929,4.6054,4.6112,4.6167,4.6209,4.6215,4.6268,4.6308,4.6308,4.6307,4.6307,4.6308,4.6307,4.6307,4.6308,4.6308,4.6308,4.6307,4.6307,4.6307,4.6305,4.6249,4.6173,4.6098,4.6026,4.5917,4.5765,4.5613,4.5629,4.5658,4.5285,4.5266,4.5455,4.5178,4.5302,4.5398,4.3999,4.4108,4.4279,4.0688,4.0039,3.8785,2.8925,2.4069,1.77,-0.264,-1.0821,-1.5793,-2.566,-2.903,-2.8972,-2.5446,-2.4804,-2.4786,-2.4033,-2.3739,-2.3766,-2.4012,-2.3713,-2.3728,-2.4372,-2.3551,-2.3113,-2.4013,-2.3027,-2.1752,-2.0626,-2.0553,-2.0358,-1.9676,-1.9512,-1.9552,-1.9811,-1.9334,-1.9207,-1.9807,-1.958,-1.9709,-2.0299,-2.077,-2.124,-2.1741,-2.1994,-2.2552,-2.3423,-2.3175,-2.3531,-2.4365,-2.4091,-2.4259,3.1275,3.0532,3.0498,3.2742,3.2703,3.3566,0.0,3.9109,3.883,4.1569,4.2271,4.2704,4.3757,4.4156,4.4621,4.5517,4.5833,4.6005,4.6086,4.6105,4.6105,4.6136,4.6111,4.6118,4.6171,4.6209,4.6223,4.6289,4.6306,4.6303,4.6303,4.6303,4.6303,4.6303,4.6303,4.6305,4.6307,4.6307,4.6308,4.6308,4.6308,4.6308,4.6308,4.6289,4.6215,4.6072,4.5731,4.561,4.57,4.549,4.5533,4.5686,4.5647,4.5685,4.5684,4.5208,4.5245,4.5475,4.4578,4.4821,4.5014,4.1946,4.1332,3.9528,2.729,2.3196,1.8973,0.085,-0.6787,-1.1236,-1.8522,-2.3066,-2.5611,-2.4909,-2.4675,-2.4562,-2.443,-2.401,-2.3566,-2.314,-2.3133,-2.298,-2.2457,-2.2408,-2.2628,-2.3072,-2.2604,-2.1618,-2.0064,-2.0309,-2.0358,-1.9676,-1.9303,-1.8934,-1.8548,-1.8124,-1.8335,-1.9482,-1.9534,-1.977,-2.0443,-2.1088,-2.1383,-2.1193,-2.1836,-2.2389,-2.2808,-2.2881,-2.267,-2.2169,-2.2113,-2.3301,3.3729,3.3956,3.4397,3.5809,3.6293,3.734,4.0816,4.0761,4.0699,4.3323,4.395,4.4289,4.5168,4.5385,4.5557,4.5924,4.6047,4.6128,4.614,4.6195,4.6225,4.625,4.6228,4.6225,4.6269,4.6269,4.6269,4.6305,4.6303,4.6301,4.6301,4.63,4.6297,4.6301,4.63,4.63,4.6305,4.6305,4.6306,4.6308,4.6307,4.6307,4.6308,4.6308,4.6231,4.6091,4.5883,4.5809,4.5879,4.5836,4.5891,4.5982,4.5918,4.585,4.5774,4.5498,4.5549,4.5645,4.4706,4.4978,4.5292,4.2636,4.1912,3.9852,2.7718,2.35,1.8489,-0.3055,-0.8921,-1.0697,-1.9692,-2.2537,-2.2544,-2.0466,-2.1333,-2.2517,-2.2243,-2.2491,-2.2702,-2.2427,-2.2198,-2.1954,-2.167,-2.2027,-2.2187,-2.1705,-2.169,-2.1163,-1.9661,-1.9666,-1.9252,-1.7943,-1.7907,-1.7754,-1.7302,-1.7324,-1.771,-1.8394,-1.8809,-1.9224,-1.9572,-2.0724,-2.1181,-2.0832,-2.1507,-2.1998,-2.2222,-2.1956,-2.2019,-2.2451,-2.2047,-2.2596,3.5321,3.6276,3.7359,3.8249,3.9358,4.0611,4.2144,4.2237,4.2576,4.4518,4.483,4.4958,4.558,4.5733,4.5772,4.5763,4.6036,4.6228,4.6229,4.6268,4.6303,4.6305,4.6301,4.6301,4.6303,4.6301,4.63,4.63,4.6297,4.6297,4.6297,4.6293,4.6293,4.6297,4.6293,4.6293,4.63,4.63,4.6301,4.6306,4.6303,4.6305,4.6308,4.6285,4.6222,4.6118,4.6063,4.6036,4.6035,4.6086,4.6138,4.615,4.6078,4.5966,4.5859,4.5782,4.5774,4.5698,4.4982,4.5173,4.5348,4.2946,4.1995,3.9589,2.7823,2.3527,1.8302,-0.2825,-0.7885,-0.888,-1.7394,-1.9889,-1.9468,-1.6951,-1.8513,-2.0701,-2.071,-2.1237,-2.1688,-2.18,-2.128,-2.0658,-2.004,-2.0381,-2.0242,-1.8975,-1.9597,-2.0001,-1.936,-1.9026,-1.8211,-1.6648,-1.6856,-1.6912,-1.6384,-1.6687,-1.7045,-1.7501,-1.7863,-1.8167,-1.8424,-1.971,-2.0344,-2.0181,-2.067,-2.1073,-2.1349,-2.0729,-2.0922,-2.1801,-2.1308,-2.1614,3.586,3.688,3.8608,4.0058,4.1759,4.3318,4.4214,4.5149,4.5861,4.5938,4.5393,4.491,4.4929,4.4933,4.4949,4.4933,4.5702,4.6308,4.6297,4.63,4.6305,4.6308,4.6303,4.6297,0.0,4.63,4.6293,4.6293,4.6306,4.63,4.63,4.63,4.63,4.63,4.63,4.6306,4.6293,4.6293,4.6297,4.6301,4.6301,4.6301,4.6301,4.6222,4.6206,4.6182,4.6138,4.6098,4.6098,4.6099,4.6105,4.6092,4.6104,4.6055,4.5987,4.5923,4.5765,4.5605,4.5566,4.5585,4.5215,4.2875,4.1484,3.8572,2.6877,2.2677,1.9183,0.5803,-0.0347,-0.3804,-0.7372,-1.232,-1.628,-1.5986,-1.7553,-1.9503,-2.0933,-2.091,-2.071,-2.1231,-2.0419,-1.8998,-1.7005,-1.6574,-1.5963,-1.4364,-1.5861,-1.7742,-1.9408,-1.8594,-1.7517,-1.6425,-1.6754,-1.6765,-1.6042,-1.6083,-1.6389,-1.7011,-1.6719,-1.6754,-1.7246,-1.8055,-1.8672,-1.9153,-1.9153,-1.9478,-2.008,-1.9396,-1.9093,-1.9133,-1.9081,-2.0039,3.7903,3.9519,4.1053,4.2048,4.3175,4.4312,4.5289,4.5761,4.5862,4.5363,4.4611,4.3877,4.335,4.3244,4.3431,4.4001,4.4842,4.5634,4.6225,4.6305,4.6288,4.6248,4.6269,0.0,0.0,0.0,0.0,4.6306,4.6303,4.63,4.63,4.63,4.63,4.63,4.63,4.6303,4.6303,4.6306,4.6309,4.6295,4.63,4.63,4.6295,4.623,4.6201,4.6206,4.6172,4.6172,4.6167,4.6169,4.6168,4.6167,4.6128,4.6005,4.5852,4.5847,4.5538,4.5181,4.5484,4.4931,4.3847,4.2485,4.0979,3.814,2.9806,2.4749,1.9318,0.6845,0.2211,-0.0861,-0.8828,-1.0667,-1.0911,-1.3193,-1.5126,-1.649,-1.6968,-1.8204,-1.8835,-1.773,-1.8533,-1.8706,-1.6618,-1.7484,-1.787,-1.6033,-1.5934,-1.6486,-1.7852,-1.7266,-1.6287,-1.5196,-1.5031,-1.4845,-1.4373,-1.4264,-1.4373,-1.4768,-1.5419,-1.5833,-1.5995,-1.7302,-1.797,-1.7829,-1.9535,-2.0298,-1.9992,-2.1259,-2.201,-2.23,-2.128,-2.1919,3.9911,4.1533,4.2878,4.3951,4.4669,4.5198,4.5522,4.5618,4.5304,4.4234,4.3075,4.2071,4.1568,4.0962,4.1133,4.2947,4.3708,4.4596,4.609,4.6306,4.6289,4.6205,4.6269,4.6285,4.6269,0.0,0.0,4.63,4.63,4.63,4.63,4.63,4.63,4.63,4.63,4.63,4.63,4.63,4.6303,4.6309,4.6293,4.6293,4.6309,4.6253,4.6222,4.62,4.6202,4.6189,4.6152,4.6163,4.6111,4.6018,4.5969,4.5751,4.5445,4.5447,4.4868,4.4195,4.4824,4.411,4.2776,4.1655,3.9835,3.6928,3.0958,2.6425,2.0837,0.8969,0.5354,0.2946,-0.6345,-0.7184,-0.6076,-0.8365,-0.9634,-1.08,-1.2463,-1.4028,-1.508,-1.5103,-1.5946,-1.6024,-1.3992,-1.4371,-1.4689,-1.3909,-1.3575,-1.4142,-1.6011,-1.5677,-1.5102,-1.4605,-1.4165,-1.3837,-1.3614,-1.3235,-1.3226,-1.3648,-1.4483,-1.4963,-1.4963,-1.6979,-1.8079,-1.7995,-2.0441,-2.1481,-2.1103,-2.2812,-2.3717,-2.389,-2.3143,-2.3599,4.1753,4.2941,4.409,4.5619,4.6063,4.593,4.5085,4.4838,4.4292,4.2612,4.0847,3.9569,3.9481,3.82,3.8259,4.1654,4.2344,4.3353,4.5932,4.6303,4.6287,4.6205,4.6265,4.628,4.6207,4.6264,0.0,4.63,0.0,4.63,4.63,4.63,4.63,4.63,4.63,4.63,4.63,4.63,4.63,4.63,4.63,4.63,4.6303,4.629,4.6268,4.6204,4.6198,4.6171,4.6105,4.6091,4.592,4.5699,4.5684,4.5321,4.4796,4.4806,4.3871,4.2795,4.3591,4.3098,4.1915,4.0419,3.8029,3.4888,3.0432,2.7505,2.3467,1.2829,0.9716,0.7829,0.0425,-0.1553,-0.1554,-0.1992,-0.208,-0.3195,-0.7628,-0.8649,-0.9614,-1.2692,-1.2422,-1.1004,-0.9174,-0.7667,-0.7134,-0.844,-0.921,-1.0833,-1.4021,-1.4113,-1.4055,-1.4514,-1.4022,-1.3657,-1.3614,-1.3036,-1.2907,-1.3528,-1.3957,-1.4218,-1.4335,-1.7067,-1.8899,-1.958,-2.1729,-2.2942,-2.3199,-2.4014,-2.4277,-2.402,-2.4613,-2.497,4.2763,4.4345,4.5643,4.6057,4.5682,4.5163,4.4949,4.3927,4.2549,4.0818,3.8564,3.6513,3.5259,3.5722,3.7018,3.9154,4.1668,4.4034,4.5956,4.6269,4.6289,4.6206,4.6268,4.6286,4.6289,4.6297,0.0,0.0,4.63,4.63,4.63,4.63,4.63,4.63,4.63,4.63,4.63,4.63,4.63,4.63,4.63,4.629,4.6303,4.6305,4.6269,4.6198,4.6202,4.6191,4.6158,4.5901,4.5786,4.575,4.5552,4.5186,4.4796,4.4796,4.3711,4.215,4.1911,4.106,3.9799,3.8239,3.5816,3.3255,3.1905,2.8219,2.4062,2.2058,1.9441,1.5519,0.807,0.6407,0.529,-0.0256,-0.1293,-0.1377,-0.2571,-0.3569,-0.4034,-0.323,-0.4731,-0.6357,-0.6994,-0.808,-0.8883,-0.8854,-0.8062,-0.8956,-1.3046,-1.3431,-1.3549,-1.4252,-1.3372,-1.279,-1.279,-1.2117,-1.1663,-1.1787,-1.2887,-1.4202,-1.5778,-1.7543,-1.931,-2.1173,-2.3372,-2.4551,-2.4674,-2.6505,-2.7669,-2.8139,-2.6884,-2.7173,4.3811,4.5163,4.6203,4.6209,4.5534,4.4512,4.2997,4.164,3.9871,3.7016,3.4921,3.3338,3.2422,3.3031,3.4608,3.746,4.0187,4.2815,4.5273,4.5994,4.6249,4.6192,4.6269,4.6301,4.6307,4.6295,4.63,0.0,4.63,4.6296,4.6269,4.6277,4.6296,4.6269,4.6269,4.6269,4.6269,4.6287,4.6295,4.6295,4.6264,4.6268,4.6269,4.6269,4.6223,4.6152,0.0,4.6052,4.6005,4.5725,4.558,4.551,4.5381,4.4796,4.4093,4.4093,4.2968,4.1347,4.0418,3.9345,3.8147,3.705,3.4478,3.189,3.1916,2.9026,2.5493,2.4458,2.2629,1.9634,1.3902,1.2571,1.1766,0.7612,0.6798,0.6622,0.5261,0.447,0.3781,0.3041,0.1126,-0.0704,-0.1361,-0.2642,-0.3718,-0.4047,-0.4155,-0.5509,-0.903,-1.0777,-1.2047,-1.321,-1.2253,-1.1822,-1.2512,-1.1345,-1.0803,-1.1269,-1.257,-1.3825,-1.4887,-1.7081,-1.9337,-2.1492,-2.3687,-2.5291,-2.6282,-2.787,-2.8839,-2.9254,-2.8476,-2.8579,4.4845,4.5618,4.6203,4.6203,4.5384,4.3724,4.053,3.8858,3.6832,3.277,3.1106,3.0349,3.0298,3.0517,3.2051,3.6189,3.8463,4.0925,4.4411,4.5555,4.6065,4.6187,4.6248,4.6297,4.6306,4.6295,4.628,4.6296,4.6292,4.6264,4.6206,4.6264,4.6264,4.6206,4.6206,4.6192,4.6201,4.6278,4.6307,4.6289,4.6228,4.6204,4.62,4.6178,4.6132,4.6086,0.0,0.0,4.5766,4.5454,4.5206,4.5039,4.49,4.4102,4.3047,4.3047,4.2065,4.0539,3.9338,3.8103,3.6867,3.632,3.3748,3.085,3.1207,2.9814,2.7446,2.405,2.3265,2.2507,1.8935,1.7969,1.79,1.7361,1.7405,1.6793,1.3787,1.318,1.2116,0.8387,0.6617,0.579,0.6061,0.5381,0.4249,0.2611,0.0766,-0.1379,-0.394,-0.7476,-1.0324,-1.1804,-1.1166,-1.1243,-1.2638,-1.1538,-1.119,-1.2296,-1.3826,-1.4758,-1.4829,-1.7685,-2.025,-2.2359,-2.4226,-2.6117,-2.8061,-2.8668,-2.8943,-2.8929,-2.9459,-2.9287,4.5738,4.6084,4.6203,4.6203,4.4504,4.2303,4.026,3.7494,3.453,3.1616,2.976,2.8427,2.7709,2.9331,3.1714,3.4597,3.771,4.0994,4.4489,4.5069,4.5385,4.6109,4.6208,4.6249,4.6288,4.6241,4.6225,0.0,4.6215,4.6209,4.6206,4.6209,4.6209,4.6206,4.6206,4.623,4.6282,4.6286,4.6269,4.6226,4.6205,4.6198,4.6195,4.6092,4.6029,4.6008,4.5815,0.0,4.5641,4.4665,4.4272,4.419,4.3301,4.265,4.2225,4.2225,4.1288,4.0034,3.9799,3.827,3.6254,3.5235,3.3075,3.0863,3.0719,3.0081,2.9282,2.874,2.9175,2.9021,2.5466,2.4725,2.3973,1.9895,2.0219,2.0679,1.8053,1.7796,1.7861,1.7283,1.5258,1.3257,1.1985,0.9378,0.6737,0.4382,0.3163,0.1236,-0.2108,-0.6554,-0.9723,-1.066,-1.1553,-1.234,-1.3108,-1.5078,-1.6483,-1.6979,-1.9446,-2.1929,-2.4317,-2.4678,-2.6022,-2.859,-2.9011,-2.9407,-2.9836,-2.9972,-2.9995,-2.9907,-2.9597,-2.918,4.6049,4.6178,4.6199,4.6202,4.4282,4.1709,3.9041,3.5761,3.2432,2.9409,2.7722,2.6679,2.6291,2.796,3.0093,3.2211,3.512,3.8467,4.2418,4.3292,4.4213,4.5992,4.6204,4.6209,4.6245,4.6219,4.6202,4.6209,4.6169,4.6154,4.6157,4.6162,4.6154,4.6157,4.6177,4.6192,4.6195,4.6228,4.6229,4.6209,4.6128,4.6105,4.6096,4.593,4.5836,4.5835,4.5519,0.0,4.5283,4.4244,4.3778,4.3711,4.2919,4.221,4.1626,4.1626,4.0735,3.9508,3.9404,3.8022,3.6166,3.5401,3.3262,3.1063,3.1485,3.0338,2.899,2.9697,3.01,2.9937,2.8596,2.8195,2.7597,2.5542,2.5753,2.6,2.4866,2.3338,2.238,2.2669,2.0215,1.7641,1.5939,1.4308,1.1801,0.7664,0.5828,0.3302,-0.1096,-0.4583,-0.703,-0.7862,-0.8996,-1.0132,-1.1313,-1.2576,-1.4449,-1.726,-1.9009,-2.1281,-2.4236,-2.4695,-2.5812,-2.7769,-2.8025,-2.8721,-2.996,-2.9694,-2.9642,-2.975,-2.9257,-2.8795,4.6067,4.6131,4.6171,4.6172,4.4116,4.1183,3.7709,3.4212,3.0728,2.7315,2.6022,2.5517,2.5589,2.6837,2.8474,3.038,3.2736,3.5851,4.0205,4.1672,4.3219,4.5641,4.6104,4.6207,4.6226,4.6202,4.6183,4.6196,4.6119,0.0,4.6084,4.6084,4.6093,4.6127,4.6176,4.6167,4.6117,4.6171,4.6198,4.6156,4.6046,4.5986,4.5944,4.575,4.5645,4.5545,4.5188,0.0,0.0,4.3879,4.3424,4.3343,4.2574,4.1825,4.1181,4.1,4.0182,3.9152,3.8952,3.7904,3.6548,3.6152,3.396,3.1642,3.2275,3.0889,2.9265,3.0105,3.0236,3.0251,3.0926,3.08,3.0615,3.1252,3.0926,3.0526,3.0758,2.8544,2.6518,2.6596,2.4347,2.1735,1.9777,1.8894,1.6517,1.0557,0.7979,0.4811,-0.0391,-0.2806,-0.4346,-0.5283,-0.6667,-0.8654,-1.1209,-1.1916,-1.4251,-1.9087,-2.0236,-2.1816,-2.4316,-2.4953,-2.5745,-2.6822,-2.7213,-2.8178,-2.9762,-2.9403,-2.9286,-2.9332,-2.8951,-2.859,4.5896,4.6108,4.6102,4.6102,4.3601,4.0235,3.6805,3.3283,2.9775,2.6409,2.5596,2.5517,2.5589,2.6374,2.7823,3.0297,3.2233,3.4931,3.9318,4.1297,4.3007,4.4881,4.5763,4.6222,4.6278,4.6172,4.6134,4.6206,4.6091,0.0,4.6007,4.6007,4.6054,4.6195,4.6201,4.6192,4.6195,4.6209,4.6142,4.6027,4.6007,4.5902,4.5717,4.5587,4.5379,4.5128,4.4905,0.0,0.0,4.3428,4.3067,4.2905,4.1542,4.0908,4.0784,4.007,3.9575,3.9206,3.9152,3.85,3.7604,3.7131,3.515,3.2892,3.2199,3.2144,3.2299,3.1888,3.2491,3.3348,3.3941,3.399,3.4023,3.4742,3.3272,3.2008,3.2978,3.2104,3.0863,3.0042,2.9152,2.7686,2.4772,2.2409,1.8552,1.1603,0.9008,0.5822,0.0313,-0.1871,-0.3339,-0.4433,-0.7267,-1.139,-1.7012,-1.9975,-2.3479,-2.7952,-2.9598,-3.0857,-3.1863,-3.0844,-3.0423,-3.0851,-3.1098,-3.0891,-3.0252,-3.0294,-2.9929,-2.912,-2.9074,-2.8826,4.509,4.5703,4.5972,4.5445,4.3142,4.0086,3.6621,3.3057,2.9679,2.68,2.5768,2.5412,2.5517,2.5859,2.6627,2.8169,2.9,3.0794,3.4627,3.6618,3.8906,4.2259,4.3833,4.5059,4.6131,4.615,4.6085,4.608,0.0,0.0,4.5997,4.5997,4.6036,4.6138,4.6138,4.6163,4.6198,4.6081,4.6014,4.5997,4.5802,4.5568,4.5322,4.5166,4.4928,4.4663,4.4411,0.0,0.0,4.2849,4.2271,4.1782,4.0955,4.05,4.0353,4.0138,3.9747,3.9348,3.9627,3.9108,3.8304,3.8287,3.712,3.5496,3.4233,3.3537,3.338,3.4137,3.4601,3.5057,3.5603,3.5735,3.5674,3.5657,3.5155,3.4779,3.5205,3.4149,3.3115,3.3006,3.1515,2.9536,2.7207,2.4394,2.0058,1.3097,0.9772,0.6101,0.0781,-0.1716,-0.4604,-0.882,-0.876,-1.0474,-1.5516,-1.7431,-2.1194,-2.7891,-2.8672,-2.9922,-3.2272,-3.1847,-3.1296,-3.0683,-3.0988,-3.0747,-2.9881,-2.9793,-2.9617,-2.9287,-2.9136,-2.8982,4.3724,4.4675,4.5192,4.4569,4.2468,3.963,3.6144,3.276,2.9555,2.6786,2.5736,2.5369,2.548,2.5544,2.589,2.6753,2.7128,2.8489,3.1965,3.3922,3.6425,4.025,4.2217,4.3821,4.5293,4.5848,4.6069,4.6017,0.0,0.0,4.6027,4.6027,4.6052,4.6131,4.6084,4.6108,4.6163,4.5969,4.587,4.5917,4.5571,4.5285,4.5039,4.4806,4.4474,4.4058,0.0,0.0,0.0,4.2364,4.1846,4.1303,4.0866,4.0549,4.0419,4.0238,3.9799,3.9332,3.9644,3.9259,3.8587,3.8723,3.8135,3.7164,3.5991,3.5081,3.4724,3.589,3.6353,3.6584,3.6964,3.7097,3.7023,3.6624,3.6738,3.6925,3.6829,3.5924,3.5099,3.4923,3.3125,3.108,2.926,2.5861,2.1185,1.4768,1.07,0.6273,0.0467,-0.3302,-0.74,-1.2572,-1.2496,-1.3821,-1.8085,-1.8788,-2.1888,-2.8659,-2.8703,-2.9481,-3.1758,-3.1768,-3.1223,-3.0231,-3.0535,-3.0293,-2.9409,-2.9364,-2.9257,-2.9196,-2.9152,-2.9029,4.1761,4.285,4.353,4.353,4.1446,3.8516,3.5095,3.2189,2.9283,2.5985,2.5351,2.5432,2.5488,2.5544,2.5892,2.6753,2.7629,2.939,3.2803,3.4836,3.6931,3.9507,4.1345,4.2726,4.3555,4.5133,4.6068,4.6007,0.0,0.0,4.6098,4.6098,4.6131,4.6202,4.6072,4.6021,4.6096,4.5889,4.5764,4.57,4.5361,4.5082,4.4896,4.4624,4.4069,0.0,0.0,0.0,0.0,4.2074,4.1973,4.1931,4.1248,4.1082,4.1053,4.0221,3.954,3.8974,3.9007,3.8772,3.8443,3.8048,3.7651,3.7263,3.6966,3.6825,3.6791,3.6961,3.7524,3.8056,3.8089,3.819,3.8291,3.8259,3.815,3.7897,3.7542,3.7596,3.7137,3.5443,3.4277,3.3038,3.1374,2.7039,2.1959,1.6578,1.1768,0.6217,-0.0852,-0.7207,-1.1901,-1.4335,-1.9111,-2.3737,-2.7636,-2.7666,-2.8931,-3.2335,-3.2161,-3.179,-3.1504,-3.1213,-3.0773,-3.0189,-3.041,-2.9995,-2.8904,-2.9241,-2.915,-2.8732,-2.8982,-2.8873,3.7185,3.8112,3.8511,3.7351,3.5982,3.4135,3.1263,2.9487,2.7791,2.5501,2.5084,2.5173,2.5322,2.5429,2.5955,2.7472,2.7951,2.8948,3.1262,3.4094,3.6671,3.8668,4.2509,4.5073,4.5293,0.0,4.6074,0.0,0.0,0.0,4.6098,4.6136,4.6149,4.607,4.6019,4.5981,4.5959,4.5757,4.5549,4.5285,4.5042,4.4707,4.4279,4.3856,0.0,0.0,0.0,0.0,0.0,4.1692,4.1445,4.1071,4.0901,4.0758,4.071,4.0485,4.0337,4.0154,4.0271,4.0254,4.0051,3.9546,3.9247,3.8969,3.8386,3.7382,3.6655,3.756,3.7995,3.8209,3.8524,3.8645,3.8722,3.8781,3.8621,3.8455,3.8387,3.8047,3.756,3.6816,3.5188,3.3713,3.2978,2.8158,2.2728,1.7925,0.8988,0.0905,-0.4203,-1.193,-1.8191,-2.1477,-2.387,-2.5898,-2.7546,-2.7469,-2.876,-3.21,-3.1966,-3.1711,-3.162,-3.1004,-3.0452,-2.9941,-2.9661,-2.9212,-2.8573,-2.8826,-2.8858,-2.8701,-2.9059,-2.8858,3.3352,3.4501,3.4918,3.3878,3.2891,3.1602,2.9358,2.815,2.6982,2.5234,2.4981,2.5126,2.5264,2.5387,2.5824,2.6968,2.7426,2.8379,3.0466,3.3438,3.652,3.9578,4.3041,4.5286,0.0,4.5877,4.6056,0.0,0.0,0.0,4.6147,4.6186,4.6124,4.5975,4.5969,4.5924,4.5866,4.5536,4.5285,4.5128,4.4762,4.4374,4.3936,4.3453,0.0,0.0,0.0,0.0,0.0,4.1328,4.1088,4.0793,4.0697,4.0697,4.0631,4.0697,4.0648,4.0551,4.0631,4.071,4.0716,4.0151,3.9869,3.9603,3.8942,3.8061,3.7488,3.8305,3.8633,3.882,3.9063,3.9144,3.9136,3.91,3.8905,3.873,3.867,3.841,3.8016,3.7632,3.618,3.4572,3.3131,2.922,2.3245,1.4042,0.4349,-0.427,-1.0889,-1.7829,-2.3245,-2.6038,-2.7791,-2.8818,-2.895,-2.9032,-2.9917,-3.1882,-3.1785,-3.1507,-3.1261,-3.0788,-3.0225,-2.9528,-2.9257,-2.8873,-2.8411,-2.8494,-2.8654,-2.8826,-2.8951,-2.8654,0.0,3.1642,3.2289,3.2231,3.147,3.0354,2.886,2.7782,0.0,2.5114,2.4987,2.5217,2.534,2.5434,2.5561,2.5828,2.6593,2.8033,3.0523,3.3293,3.6921,4.1976,4.3234,4.3992,4.4825,4.5579,0.0,0.0,0.0,0.0,4.6191,4.6191,4.6105,4.591,4.5899,4.5852,4.5752,4.5265,4.5052,4.5118,4.4493,4.4084,4.3849,4.3334,0.0,0.0,0.0,0.0,0.0,4.1012,4.0918,4.0888,4.0745,4.0793,4.0871,4.0745,4.0551,4.0337,4.0337,4.0466,4.0496,3.9936,3.9566,3.929,3.875,3.8778,3.8998,3.9082,3.9383,3.9693,3.9717,3.967,3.9575,3.9317,3.9045,3.8828,3.8628,3.8683,3.859,3.7948,3.6962,3.5283,3.2264,3.0144,2.3069,0.6216,-0.1804,-0.9541,-1.9581,-2.4365,-2.7239,-2.83,-3.0686,-3.1968,-3.1328,-3.1792,-3.1949,-3.1603,-3.1565,-3.1244,-3.046,-3.0418,-2.9995,-2.912,-2.912,-2.8873,-2.8396,-2.8319,-2.8543,-2.8982,-2.8606,-2.8286,2.5988,0.0,2.743,2.6767,2.6405,2.6133,0.0,2.5529,2.5269,2.4813,2.4808,2.5151,2.5991,2.5617,2.5919,2.8152,2.924,3.0477,3.242,3.6626,4.0928,4.4754,4.5332,4.5527,4.5845,4.6001,0.0,0.0,0.0,4.6189,4.6191,4.6147,4.604,4.591,4.5847,4.5669,4.5343,4.5161,4.4872,4.4519,4.4289,4.3931,4.3424,4.3212,0.0,0.0,0.0,0.0,4.1209,4.1163,4.1041,4.0888,4.0888,4.0888,4.0888,4.0871,4.0918,4.0977,4.0977,4.0735,4.0298,3.9455,3.9148,3.9047,3.8884,3.8857,3.8915,3.9189,3.9352,3.9524,3.9851,3.9954,3.9933,3.9712,3.9694,3.9621,3.9339,3.9252,3.9021,3.8308,3.56,3.3647,3.4211,2.9157,1.9521,0.3145,-0.8102,-1.6613,-2.1862,-2.7638,-3.1058,-3.063,-3.0897,-3.0896,-3.0218,-3.0864,-3.0999,-3.0276,-3.0251,-3.0166,-2.9968,-2.9777,-2.954,-2.9316,-2.9182,-2.8873,-2.8494,-2.8559,-2.8352,-2.7944,-2.8027,-2.8202,2.4599,2.5246,2.5804,2.5319,2.5206,2.5206,2.5206,2.4939,2.4707,2.4695,2.4798,2.508,2.57,2.5819,2.6495,2.8526,2.9888,3.2002,3.5705,3.9325,4.2719,4.5735,4.6091,4.6112,0.0,0.0,0.0,0.0,0.0,4.619,4.617,4.6117,4.6024,4.5859,4.5708,4.5488,4.5201,4.5007,4.4726,4.4346,4.4151,4.3841,4.3442,4.3105,4.2772,0.0,0.0,0.0,4.1363,4.1255,4.1088,4.0888,4.0888,4.0888,4.0918,4.0995,4.1209,4.1418,4.1391,4.0901,4.0148,3.9534,3.9234,3.9165,3.9242,3.932,3.9352,3.9421,3.9543,3.9724,3.9975,4.0139,4.0177,3.9962,3.9986,3.9948,3.9524,3.9425,3.9182,3.8487,3.5558,3.1773,2.7173,1.9321,0.8322,-0.7484,-1.8821,-2.6326,-2.8355,-3.1353,-3.2894,-3.1843,-3.1259,-3.0481,-2.9454,-2.9713,-2.996,-2.981,-2.9645,-2.954,-2.9601,-2.93,-2.9073,-2.9012,-2.8904,-2.8685,-2.8462,-2.8286,-2.8195,-2.8212,-2.8197,-2.8508,2.4731,2.5441,2.6075,2.5719,2.5719,2.5775,2.5645,2.5084,2.4615,2.4682,2.4842,2.5057,2.5413,2.6236,2.7287,2.8573,3.0302,3.3497,3.9271,4.1343,4.3246,4.5806,4.6153,0.0,4.6128,0.0,0.0,0.0,0.0,4.6153,4.6105,4.6076,4.5988,4.5814,4.5536,4.5342,4.514,4.4825,4.4546,4.4346,4.4048,4.3781,4.3511,4.3123,4.2828,0.0,0.0,0.0,4.1648,4.1363,4.1134,4.0918,4.0918,4.0888,4.0918,4.1117,4.1401,4.1735,4.169,4.1052,4.0239,3.9914,3.961,3.9408,3.9698,3.9873,3.9975,3.9766,3.987,4.0038,4.0098,4.0267,4.0345,4.0081,4.0114,4.0055,3.9577,3.9524,3.9208,3.8013,3.4412,2.7996,1.6828,0.6177,-0.5738,-2.0259,-2.9243,-3.4369,-3.4324,-3.3885,-3.3121,-3.1994,-3.1303,-3.039,-2.8964,-2.8761,-2.8912,-2.9523,-2.9227,-2.9118,-2.9271,-2.8965,-2.8686,-2.8511,-2.862,-2.8585,-2.8501,-2.8026,-2.8207,-2.9046,-2.8748,-2.9072,2.5354,2.6656,2.7345,2.529,2.5342,2.5714,2.5022,2.4725,2.4631,2.4695,2.4775,2.5327,2.6918,2.7443,2.8452,3.1003,3.3497,3.6668,4.1169,4.2049,4.3202,4.5874,0.0,4.6152,0.0,0.0,0.0,0.0,0.0,4.6105,4.6098,4.5947,4.5835,4.58,4.5596,4.5283,4.4868,4.4599,4.4318,4.4048,4.4005,4.373,4.3268,4.3408,4.3069,0.0,0.0,4.2274,4.1849,4.1631,4.1408,4.1117,4.0965,4.0888,4.0918,4.1117,4.1534,4.1967,4.1937,4.1622,4.1101,4.0473,3.9986,3.9698,4.0004,4.0061,4.0058,4.0213,4.0215,4.0157,4.0196,4.0336,4.0396,4.0082,4.0335,4.052,3.9946,4.006,3.9191,3.561,2.6799,1.7783,1.1146,-0.2382,-1.5942,-2.6841,-3.0501,-3.1722,-3.087,-3.1153,-3.1185,-3.041,-3.022,-2.9837,-2.9034,-2.8473,-2.8225,-2.833,-2.8282,-2.8448,-2.8779,-2.8732,-2.8638,-2.8511,-2.9036,-2.9231,-2.8981,-2.8794,-2.904,-2.9652,-2.8922,-2.9613,2.4928,2.6001,2.6836,2.6074,2.6877,2.7755,2.738,2.6596,2.6255,2.7301,2.7214,2.7407,2.8847,2.9963,3.1555,3.4268,3.6521,3.8948,4.1789,4.2637,4.3753,0.0,0.0,4.621,0.0,0.0,0.0,0.0,0.0,0.0,4.5928,4.5861,4.5757,4.5648,4.5264,4.4962,4.4676,4.4039,4.3818,4.4005,4.386,4.3664,4.3391,4.3196,4.2902,4.2494,0.0,4.2251,4.1874,4.1805,4.1631,4.1408,4.1134,4.1041,4.1117,4.1674,4.2221,4.2605,4.2402,4.1843,4.1176,4.0673,4.0121,3.9747,4.0021,4.012,4.0196,4.037,4.0372,4.0323,4.0336,4.0544,4.0665,4.0429,4.0634,4.0735,4.0274,3.8759,3.5515,2.8793,2.0382,1.072,-0.0835,-1.0206,-1.9255,-2.8493,-3.0353,-3.0653,-3.0572,-3.0822,-3.0852,-3.0397,-3.0294,-2.9988,-2.9189,-2.8871,-2.8448,-2.79,-2.8269,-2.8662,-2.8976,-2.9157,-2.9255,-2.9261,-2.9265,-2.9184,-2.8961,-2.9221,-2.9659,-3.0121,-3.0256,-3.1109,2.465,2.5327,2.6101,2.6822,2.7867,2.8932,2.9701,2.8631,2.8077,3.0124,2.9975,2.9755,3.0806,3.2626,3.4739,3.6948,3.8828,4.0584,4.2268,4.3134,4.4225,4.5909,4.6211,0.0,0.0,0.0,0.0,0.0,0.0,0.0,4.5794,4.5771,4.5648,4.5419,4.5007,4.4695,4.4511,4.3634,4.3422,4.3878,4.3545,4.332,4.3284,4.2846,4.2595,4.2516,4.2351,4.2187,4.1977,4.1934,4.1805,4.1648,4.1391,4.1373,4.1578,4.2346,4.294,4.3246,4.2828,4.2075,4.126,4.0843,4.0311,3.9794,4.006,4.0196,4.0339,4.0427,4.0501,4.053,4.0563,4.0722,4.0875,4.0752,4.0805,4.0828,4.0509,3.6601,3.0854,2.3091,1.4038,0.3258,-1.0526,-1.6774,-2.207,-2.8576,-2.986,-3.0119,-3.0194,-3.0478,-3.0553,-3.019,-3.0312,-3.0081,-2.9285,-2.9242,-2.8929,-2.8257,-2.8562,-2.8944,-2.9366,-2.9602,-2.9741,-2.9773,-2.9531,-2.9416,-2.9342,-2.991,-3.0441,-3.1016,-3.1618,-3.2462,2.5097,2.5634,2.5929,2.6786,2.6707,2.7253,3.0303,2.9794,2.9398,3.1962,3.191,3.1679,3.2562,3.4913,3.7061,3.8034,3.9731,4.148,4.3177,0.0,4.4235,4.5991,4.6209,0.0,0.0,0.0,0.0,0.0,0.0,0.0,4.58,4.5684,4.5457,4.514,4.503,4.4726,4.4221,4.3647,4.3419,4.3513,4.2903,4.2541,4.2498,4.2418,4.2234,4.1959,4.2187,4.2287,4.2246,4.2019,4.1874,4.1849,4.1631,4.1874,4.2378,4.2923,4.3318,4.3502,4.31,4.253,4.1867,4.134,4.0618,4.0039,4.037,4.0434,4.0438,4.061,4.0761,4.0852,4.0781,4.0836,4.0881,4.0818,4.0851,4.0836,4.0637,3.3782,2.6394,2.2068,0.7034,-0.6724,-1.2212,-2.1224,-2.7776,-2.8112,-2.9331,-2.967,-2.7999,-2.8867,-2.9526,-2.898,-2.9498,-2.975,-2.9433,-2.939,-2.9464,-2.9739,-2.899,-2.8907,-2.9796,-2.9902,-2.9743,-2.9441,-3.0118,-3.0679,-3.1044,-3.1183,-3.1789,-3.2823,-3.2451,-3.2955,2.3895,2.4926,2.5997,2.6962,2.7919,2.9198,3.1414,3.1515,3.2067,3.5278,3.5315,3.5085,3.6065,3.7064,3.8055,3.9023,4.0151,4.1357,4.2537,4.2749,4.3241,4.4448,0.0,0.0,0.0,0.0,0.0,0.0,0.0,0.0,4.4858,4.4152,4.3675,4.3471,4.3599,4.3521,4.329,4.3146,4.3195,4.3356,4.2903,4.2657,4.2595,4.2595,4.2436,4.2127,4.1729,4.1841,4.2251,4.1652,4.17,4.2145,4.2127,4.2338,4.2696,4.3069,4.3474,4.3855,4.3922,4.309,4.2013,4.2063,4.1185,4.0177,4.0415,4.0511,4.0568,4.0772,4.0867,4.0896,4.0867,4.0935,4.1001,4.0893,4.0095,3.8806,3.6798,2.889,1.9441,1.0069,-0.1841,-1.2514,-1.9085,-2.4277,-2.7207,-2.6382,-2.7285,-2.7986,-2.7696,-2.8624,-2.9212,-2.9107,-2.9498,-2.9662,-2.9265,-2.9174,-2.9489,-3.0131,-2.9763,-2.9837,-3.0634,-3.0539,-3.0313,-3.0067,-3.0734,-3.1037,-3.0834,-3.1971,-3.2667,-3.2937,-3.345,-3.4023,2.3155,2.4085,2.5424,2.6927,2.8555,3.039,3.2794,3.3459,3.4548,3.8084,3.7958,3.7425,3.8161,3.8287,3.8578,0.0,4.0402,4.1266,4.2109,4.2268,4.2617,4.3496,0.0,0.0,0.0,0.0,0.0,0.0,0.0,0.0,0.0,4.3044,4.2519,4.2389,4.2412,4.2467,4.2551,4.2265,4.2304,4.2705,4.2485,4.2479,4.2577,4.2516,4.223,4.1813,4.1569,4.1645,4.1895,4.1591,4.1787,4.231,4.2286,4.2497,4.2959,4.3043,4.3504,4.4072,4.3812,4.301,4.2114,4.1949,4.1168,4.0336,4.0521,4.0642,4.0718,4.0848,4.0847,4.0771,4.0621,4.042,4.0203,4.0,3.7996,3.531,3.2228,2.2872,1.207,0.2149,-0.7693,-1.6374,-2.2556,-2.4979,-2.5958,-2.5718,-2.6514,-2.7284,-2.7829,-2.8365,-2.8817,-2.9058,-2.9373,-2.9449,-2.9212,-2.9379,-2.9731,-3.0404,-3.0558,-3.0832,-3.1292,-3.1162,-3.1132,-3.1117,-3.1542,-3.1688,-3.1549,-3.2839,-3.3422,-3.3486,-3.4267,-3.4787,2.3065,2.3252,2.4054,2.6657,2.8198,3.0171,3.443,3.5521,3.6598,4.0075,3.9469,3.8315,3.8315,3.8369,3.8688,3.9565,4.0496,4.1384,4.2184,4.2285,4.2607,0.0,0.0,0.0,0.0,0.0,0.0,0.0,0.0,0.0,0.0,4.2699,4.2351,4.207,4.1753,4.1809,4.2268,4.1032,4.0745,4.1407,4.1465,4.1803,4.236,4.2026,4.151,4.0861,4.1848,4.1805,4.1145,4.1948,4.2269,4.2279,4.2014,4.2431,4.3177,4.2908,4.3439,4.4071,4.2546,4.2184,4.2186,4.0871,4.0462,4.054,4.0742,4.0848,4.0889,4.0896,4.0742,4.0497,4.0014,3.9119,3.8251,3.7928,3.4443,3.0361,2.7227,1.5704,0.4698,0.0521,-0.9737,-1.8594,-2.1227,-2.3132,-2.4803,-2.6445,-2.7417,-2.796,-2.7986,-2.8012,-2.8091,-2.8481,-2.8894,-2.9149,-2.931,-2.9931,-3.0433,-3.0777,-3.1409,-3.1799,-3.1799,-3.1799,-3.1996,-3.2382,-3.2547,-3.298,-3.3694,-3.3848,-3.4201,-3.4707,-3.4835,-3.5071,2.2382,2.4022,2.6077,2.7064,3.0278,3.3745,3.5777,3.6376,3.7332,4.021,3.9917,3.9169,3.9276,3.9256,3.937,3.9789,4.055,4.1182,4.1424,4.1451,4.1523,0.0,0.0,0.0,0.0,0.0,0.0,0.0,0.0,0.0,0.0,4.103,4.0419,4.0139,4.0364,4.0511,4.0598,4.0504,4.0759,4.1302,4.0691,4.0381,4.0468,4.1837,4.1622,4.0192,4.0481,4.0485,4.0324,4.1127,4.189,4.2577,4.2759,4.3084,4.3437,4.2971,4.3036,4.3343,4.3145,4.281,4.2562,4.306,4.2435,4.1519,4.1788,4.1415,4.0916,4.1019,4.0652,3.9993,3.8857,3.5685,3.3026,3.4089,3.0335,2.4751,1.8258,0.8148,-0.1123,-0.5973,-1.3627,-1.9603,-2.011,-2.2092,-2.3818,-2.4374,-2.5252,-2.6389,-2.7683,-2.7842,-2.7973,-2.8287,-2.8675,-2.8753,-2.8444,-2.9608,-3.0176,-2.996,-3.097,-3.1682,-3.194,-3.1811,-3.1585,-3.1213,-3.2284,-3.2767,-3.2503,-3.3925,-3.4739,-3.4994,-3.5258,-3.556,2.2915,2.4908,2.7381,2.8907,3.1998,3.5181,3.7286,3.8106,3.889,4.0481,4.0156,3.9694,4.0093,3.9935,0.0,4.0272,4.0761,4.1093,4.1055,4.1047,0.0,0.0,0.0,0.0,0.0,0.0,0.0,0.0,0.0,0.0,0.0,4.0037,3.9489,3.935,3.9441,3.9645,3.9945,3.9683,3.9815,4.0394,3.9715,3.9177,3.877,4.0709,4.0823,3.9468,3.9468,3.9646,3.9968,4.077,4.1558,4.2298,4.2559,4.2862,4.3078,4.2946,4.2986,4.3147,4.3403,4.3316,4.3177,4.3689,4.3001,4.202,4.226,4.1612,4.0761,4.0714,3.9727,3.8188,3.6091,3.15,2.7786,2.8995,2.3893,1.7009,1.0485,0.1912,-0.5785,-0.9829,-1.5337,-1.9534,-1.9963,-2.1962,-2.3559,-2.361,-2.4612,-2.5755,-2.7027,-2.7564,-2.7894,-2.7908,-2.8365,-2.8573,-2.8145,-2.9247,-2.9931,-2.9761,-3.0718,-3.1495,-3.1868,-3.1739,-3.1543,-3.1319,-3.2516,-3.3045,-3.2787,-3.43,-3.5135,-3.5321,-3.565,-3.5941,2.4078,2.5757,2.8082,3.1449,3.3413,3.5435,3.8851,4.023,4.079,4.079,4.0266,4.0025,4.0779,4.0407,4.0215,4.0898,4.1064,4.107,4.0994,4.0941,0.0,0.0,0.0,0.0,0.0,0.0,0.0,0.0,0.0,0.0,0.0,3.9609,3.9324,3.935,3.8989,3.9142,3.9866,3.8682,3.8361,0.0,3.8687,3.8162,3.7425,3.9124,3.9504,3.8808,3.8736,3.9111,3.9878,4.0703,4.1274,4.1649,4.1941,4.2237,4.2479,4.288,4.3072,4.3235,4.3467,4.3722,4.3829,4.332,4.2753,4.2241,4.2334,4.1576,4.0548,3.9984,3.8024,3.5382,3.2253,2.6915,2.2378,2.253,1.5895,0.8325,0.3934,-0.3164,-0.9419,-1.1905,-1.5658,-1.893,-2.0488,-2.2317,-2.3683,-2.3852,-2.5028,-2.5938,-2.622,-2.7271,-2.7881,-2.7469,-2.8131,-2.8522,-2.821,-2.9099,-2.9775,-3.0025,-3.0658,-3.1204,-3.1552,-3.1495,-3.1724,-3.2135,-3.2879,-3.3495,-3.3986,-3.4818,-3.5412,-3.5667,-3.5985,-3.6284,2.3454,2.5615,2.8633,3.1386,3.4984,3.8326,4.0101,4.0674,4.079,4.079,4.0712,4.0719,4.094,4.0854,4.0839,4.1043,4.1046,4.0994,4.0932,4.0897,4.0868,0.0,0.0,0.0,0.0,0.0,0.0,0.0,0.0,0.0,3.9675,3.9532,3.9324,3.9036,3.8921,3.8914,3.8995,3.8244,3.8106,0.0,3.79,3.77,3.7917,3.9258,3.9504,3.8772,3.813,3.8308,3.9111,4.0127,4.1107,4.1994,4.2894,4.3098,4.288,4.2967,4.2771,4.2561,4.3552,4.3597,4.3354,4.4156,4.3899,4.3123,4.2263,4.1635,4.0738,3.8345,3.5393,3.2311,2.9323,2.2898,1.6276,1.2536,0.8418,0.3938,-0.1346,-0.6925,-1.1876,-1.5255,-1.7777,-1.9511,-2.0197,-2.1298,-2.2381,-2.3519,-2.5264,-2.6595,-2.6731,-2.7617,-2.8235,-2.8327,-2.8716,-2.9022,-2.9071,-2.9884,-3.0266,-3.0097,-3.0807,-3.1102,-3.0866,-3.1161,-3.1509,-3.1796,-3.2327,-3.3002,-3.37,-3.4529,-3.5345,-3.6174,-3.6318,-3.669,2.4118,2.6488,2.9735,3.3695,3.6768,3.9195,4.0494,4.079,4.0815,4.0834,4.0907,4.0964,4.0987,4.1023,4.1043,4.1046,4.1007,4.0924,4.0867,4.0856,0.0,0.0,0.0,0.0,0.0,0.0,0.0,0.0,0.0,3.9609,3.9526,3.9376,3.9219,3.8989,3.8844,3.8725,3.8652,3.8018,3.788,3.8204,3.7577,3.7484,3.7846,3.8507,3.8594,3.8201,3.79,3.8241,3.9067,4.0148,4.1261,4.2368,4.3347,4.3466,4.3147,4.323,4.3121,4.3073,4.3751,4.4138,4.435,4.4618,4.4319,4.367,4.2532,4.144,3.9819,3.6173,3.1765,2.714,2.2972,1.5779,0.8644,0.5017,0.2012,-0.1094,-0.5099,-0.9989,-1.4038,-1.5231,-1.7616,-1.958,-1.9953,-2.1298,-2.2692,-2.4082,-2.5181,-2.6077,-2.6731,-2.7683,-2.8417,-2.8688,-2.9135,-2.9449,-2.9449,-3.0068,-3.0447,-3.0341,-3.0821,-3.1043,-3.1029,-3.1263,-3.1437,-3.161,-3.2461,-3.3093,-3.3495,-3.4609,-3.5481,-3.6097,-3.655,-3.6948,2.4506,2.7231,3.0801,3.5892,3.7887,3.8931,4.0249,4.0578,4.0633,4.0869,4.0957,4.1,4.1003,4.1054,4.1066,4.0987,4.0924,4.0848,4.0815,4.079,0.0,0.0,0.0,0.0,0.0,0.0,0.0,0.0,0.0,3.9427,3.9427,3.9219,3.9101,3.9073,3.8796,3.8646,3.8585,3.8018,3.7775,3.7917,3.7521,3.7447,3.7577,3.7577,3.7577,3.7613,3.788,3.8469,3.9281,4.0425,4.1558,4.2681,4.3429,4.3471,4.3141,4.346,4.3586,4.3692,4.4153,4.4858,4.5401,4.4771,4.4275,4.363,4.2235,4.0292,3.7578,3.2857,2.7073,2.1096,1.5749,0.8341,0.17,-0.026,-0.3378,-0.6417,-0.8178,-1.2257,-1.5462,-1.4657,-1.7268,-1.9875,-2.0401,-2.1973,-2.3508,-2.4659,-2.504,-2.5578,-2.665,-2.7749,-2.861,-2.8994,-2.956,-2.9884,-2.9789,-3.0144,-3.0507,-3.0702,-3.0881,-3.1161,-3.161,-3.1652,-3.1709,-3.1766,-3.2772,-3.3339,-3.3598,-3.4894,-3.5705,-3.6037,-3.6753,-3.7182,2.2187,2.6302,3.1231,3.4545,3.6573,3.8072,3.9315,3.9637,3.9909,4.0733,4.0957,4.1003,4.1009,4.1013,4.0981,4.0924,4.0856,4.0815,4.0803,4.079,0.0,0.0,0.0,0.0,0.0,0.0,0.0,0.0,3.9376,3.9137,3.9137,3.9129,3.9073,3.9007,3.8979,3.8833,3.8541,3.8303,3.8106,3.7917,3.7667,3.7577,3.7577,3.7577,3.7577,3.7613,3.788,3.8469,3.9316,4.073,4.1841,4.2656,4.3238,4.3001,4.2491,4.3533,4.3465,4.3119,4.5001,4.525,4.4705,4.449,4.365,4.226,3.9783,3.6683,3.2768,2.7031,2.0769,1.4793,1.067,0.4313,-0.13,-0.2009,-0.7034,-1.1624,-1.1437,-1.2734,-1.474,-1.7245,-1.9562,-2.1538,-2.2681,-2.3361,-2.3897,-2.4261,-2.537,-2.6458,-2.7245,-2.8274,-2.9212,-2.9851,-3.0083,-3.0326,-3.0447,-3.0642,-3.0881,-3.1161,-3.1321,-3.161,-3.2079,-3.2327,-3.2532,-3.2819,-3.2749,-3.3198,-3.4268,-3.4861,-3.5637,-3.6533,-3.7009,-3.7372,2.4026,2.6857,3.0126,3.4033,3.5926,3.7209,3.844,3.9162,3.9685,4.0132,4.0279,4.0489,4.0965,4.1066,4.1022,4.0979,4.0907,4.0834,4.0803,4.079,0.0,0.0,0.0,0.0,0.0,0.0,0.0,0.0,3.9324,3.9165,3.9101,3.9101,3.9073,3.9064,3.895,3.8803,3.8683,3.8303,3.8002,3.781,3.7775,3.7775,3.7775,3.7775,3.781,3.7845,3.8201,3.9136,4.0501,4.1359,4.2286,4.3118,4.3366,4.3302,4.3137,4.3273,4.3778,4.4448,4.4987,4.5191,4.5073,4.4233,4.2906,4.0985,3.7352,3.4136,3.0087,2.2457,1.6172,1.0601,0.594,-0.018,-0.5365,-0.669,-1.0257,-1.3862,-1.5469,-1.594,-1.6695,-1.8966,-2.0994,-2.2449,-2.2751,-2.3765,-2.4536,-2.4625,-2.613,-2.7473,-2.8022,-2.8944,-2.991,-3.0743,-3.0671,-3.0974,-3.2029,-3.1575,-3.1441,-3.2122,-3.2049,-3.2104,-3.2382,-3.2656,-3.298,-3.3366,-3.3366,-3.361,-3.4118,-3.4894,-3.5627,-3.6308,-3.6873,-3.7279,2.4671,2.6357,2.8203,3.2345,3.4211,3.55,3.7177,3.8112,3.8749,3.9285,3.9607,3.9998,4.067,4.0956,4.1074,4.1,4.0932,4.0868,4.0815,4.079,0.0,0.0,0.0,0.0,0.0,0.0,0.0,0.0,3.9324,3.9245,3.9101,3.9101,3.9101,3.9101,3.8931,3.8833,3.8792,3.8285,3.7966,3.7844,3.7881,3.7899,3.7899,3.7985,3.8052,3.8183,3.8504,3.9711,4.146,4.1683,4.2561,4.3756,4.3204,4.3206,4.3512,4.3077,4.3863,4.5093,4.4929,4.5152,4.5201,4.3497,4.1584,3.9133,3.459,3.0549,2.578,1.7613,1.1386,0.5907,0.0932,-0.4412,-0.8761,-1.036,-1.2875,-1.5665,-1.8284,-1.8668,-1.8958,-2.0372,-2.1836,-2.2847,-2.2856,-2.417,-2.5224,-2.5304,-2.6845,-2.8217,-2.8723,-2.9517,-3.0419,-3.1335,-3.1318,-3.1806,-3.3131,-3.2616,-3.2564,-3.3211,-3.2988,-3.292,-3.3138,-3.3181,-3.3366,-3.3797,-3.3949,-3.405,-3.4151,-3.5085,-3.5766,-3.6224,-3.6873,-3.7317,2.1578,2.3388,2.5445,2.8241,3.0304,3.2377,3.5194,3.5872,3.6414,3.8198,3.9211,3.9828,3.994,4.0599,4.1061,4.0924,4.0888,4.0868,4.0815,0.0,0.0,0.0,0.0,0.0,0.0,0.0,0.0,0.0,3.9376,3.9245,3.9101,3.9101,3.9101,3.9101,3.9101,3.8989,3.8822,3.8332,3.815,3.8277,3.8036,3.7899,3.7899,3.815,3.8405,3.867,3.87,3.9801,4.1567,4.1261,4.2564,4.4518,4.2427,4.2125,4.2887,4.3175,4.3384,4.3714,4.5151,4.5336,4.4515,4.1954,3.9352,3.6293,3.1283,2.4765,1.7817,1.185,0.5542,-0.0374,-0.4793,-0.8084,-1.0523,-1.1181,-1.4637,-1.7885,-1.8712,-1.9554,-2.0373,-2.154,-2.1961,-2.2625,-2.3982,-2.4926,-2.5701,-2.6071,-2.7249,-2.8388,-2.9093,-2.984,-3.0596,-3.1296,-3.2327,-3.2897,-3.3004,-3.3834,-3.4454,-3.4585,-3.4232,-3.4202,-3.4649,-3.401,-3.3797,-3.405,-3.4201,-3.4448,-3.4851,-3.5526,-3.6139,-3.6574,-3.7261,-3.7613,2.0819,2.2396,2.4382,2.7243,2.9688,3.1866,3.3683,3.5387,3.6794,3.7523,3.8387,3.9216,3.9785,4.0558,4.107,4.0967,4.0924,4.0868,4.0815,0.0,0.0,0.0,0.0,0.0,0.0,0.0,0.0,0.0,0.0,3.9502,3.9376,3.935,3.935,3.935,3.9272,3.9027,3.8603,3.8566,3.8392,3.8117,3.8088,3.8072,3.8106,3.8364,3.8535,3.8658,3.91,4.0045,4.1255,4.1052,4.1609,4.2484,4.1819,4.2099,4.2896,4.3238,4.3909,4.4668,4.5017,4.3884,4.1983,3.9836,3.5971,3.1111,2.5119,1.9368,1.349,0.6484,0.1838,-0.1749,-0.4997,-0.8408,-1.1767,-1.514,-1.819,-2.0473,-2.1056,-2.1569,-2.1974,-2.2068,-2.3052,-2.3835,-2.365,-2.512,-2.6405,-2.6398,-2.813,-2.9616,-3.0285,-3.0712,-3.1348,-3.2333,-3.2782,-3.3548,-3.4745,-3.4727,-3.4949,-3.5734,-3.4991,-3.459,-3.4766,-3.4285,-3.4,-3.4101,-3.4151,-3.43,-3.4497,-3.5102,-3.5543,-3.582,-3.6291,-3.6603,1.9778,2.1213,2.3192,2.6009,2.7822,2.959,3.2186,3.3907,3.5212,3.6174,3.7322,3.834,3.8926,3.9908,4.0706,4.0961,4.0949,4.0868,4.0815,0.0,0.0,0.0,0.0,0.0,0.0,0.0,0.0,0.0,0.0,0.0,3.9526,3.9502,3.9502,3.9502,3.9408,3.9173,3.8778,3.8789,3.8609,3.8201,3.8303,3.8322,3.8354,3.8597,3.873,3.8759,3.9279,4.0088,4.0986,4.0753,4.1095,4.1719,4.1374,4.1793,4.2628,4.3199,4.3611,4.3896,4.3751,4.2079,3.9487,3.6253,3.1797,2.6462,1.9638,1.4129,0.882,0.236,-0.129,-0.378,-0.6305,-0.9473,-1.3086,-1.7073,-1.9505,-2.1257,-2.2227,-2.2708,-2.2942,-2.2705,-2.3791,-2.4586,-2.4115,-2.5788,-2.7256,-2.7518,-2.9222,-3.0672,-3.1198,-3.1556,-3.2055,-3.2917,-3.3493,-3.4404,-3.5676,-3.5765,-3.6101,-3.688,-3.611,-3.5632,-3.5632,-3.4872,-3.4457,-3.4457,-3.4264,-3.4201,-3.43,-3.4866,-3.527,-3.5582,-3.5847,-3.6105,0.0,0.0,0.0,2.4321,2.4495,2.5427,3.0561,3.1187,3.1414,3.4119,3.5996,3.7187,3.7285,3.8561,3.9916,4.0779,4.091,4.0868,4.0815,0.0,0.0,0.0,0.0,0.0,0.0,0.0,0.0,0.0,3.9717,3.9647,3.9526,3.9508,3.9526,3.9526,3.9483,3.9427,3.9298,3.8961,3.8748,3.8585,3.8585,3.8585,3.8615,3.8886,3.9008,3.9008,3.9227,3.9858,4.074,4.034,4.1149,4.2487,4.1072,4.1073,4.2028,4.3019,4.2414,4.1172,4.1354,3.9929,3.7039,3.1253,2.6893,2.2492,1.5046,0.8816,0.3506,-0.0591,-0.3884,-0.6625,-0.9106,-1.1755,-1.4465,-1.6821,-1.848,-2.0116,-2.2082,-2.2833,-2.3232,-2.3503,-2.4079,-2.4829,-2.5663,-2.6976,-2.8255,-2.9384,-3.0607,-3.1408,-3.1776,-3.2345,-3.2775,-3.3044,-3.4461,-3.5449,-3.5627,-3.7011,-3.787,-3.7943,-3.7528,-3.7323,-3.7323,-3.5963,-3.5202,-3.5237,-3.4641,-3.4316,-3.43,-3.4927,-3.5402,-3.5864,-3.6062,-3.6215,2.0538,0.0,0.0,0.0,0.0,0.0,0.0,2.8942,3.0447,3.3127,3.361,3.4316,3.6836,3.7588,3.8104,3.8987,4.0072,4.082,4.0803,0.0,0.0,0.0,0.0,0.0,0.0,0.0,0.0,0.0,3.9826,3.9826,3.9781,3.9781,3.9739,3.9647,3.9532,3.9331,3.8933,3.8748,3.8646,3.8585,3.8585,3.8585,3.8615,3.8998,3.9008,3.8799,3.9408,3.983,4.0072,4.0015,4.0425,4.1072,4.0771,4.1218,4.2089,4.2459,4.1434,3.984,3.9932,3.6125,3.0602,2.6882,2.1341,1.5095,0.9875,0.4376,-0.0493,-0.2989,-0.5511,-0.812,-1.1053,-1.325,-1.5416,-1.8617,-2.0738,-2.2454,-2.3877,-2.4498,-2.485,-2.4946,-2.5285,-2.5622,-2.6019,-2.751,-2.8851,-2.9319,-3.082,-3.2055,-3.2632,-3.2846,-3.3325,-3.4274,-3.5059,-3.5882,-3.6631,-3.7445,-3.8001,-3.8262,-3.7656,-3.7323,-3.7323,-3.6465,-3.5788,-3.534,-3.5179,-3.4921,-3.4594,-3.4771,-3.4913,-3.5055,-3.5178,-3.5481,2.1305,2.2194,2.3324,2.3662,0.0,0.0,2.6893,2.7763,2.9031,0.0,3.2205,3.2871,3.5234,3.6172,3.6767,3.7233,3.8702,3.9863,4.0203,0.0,0.0,0.0,0.0,0.0,0.0,4.0194,4.008,3.9911,3.9889,3.9889,3.9889,3.9889,3.9804,3.9623,3.9551,3.9234,3.8718,3.8646,3.8585,3.8585,3.8646,3.8718,3.8855,3.911,3.9082,3.8826,3.9408,3.9656,3.9668,3.9945,4.0245,4.0496,4.0643,4.0869,4.1152,4.1636,4.0146,3.7727,3.6535,3.1946,2.6021,2.2129,1.6235,0.9951,0.6255,0.1381,-0.3188,-0.4814,-0.6924,-0.9513,-1.2308,-1.4017,-1.5792,-1.9348,-2.1542,-2.3153,-2.4542,-2.5421,-2.5874,-2.5717,-2.6063,-2.6467,-2.6764,-2.8323,-2.9641,-3.0253,-3.1563,-3.2704,-3.3297,-3.3618,-3.4002,-3.4491,-3.5563,-3.6368,-3.6753,-3.7637,-3.8205,-3.8391,-3.8003,-3.763,-3.7323,-3.6697,-3.6036,-3.5356,-3.5199,-3.4972,-3.4691,-3.4691,-3.4756,-3.4804,-3.4835,-3.5071,2.1684,2.2329,2.3356,2.4725,2.4164,0.0,2.6907,2.7082,2.7398,0.0,3.1054,3.1816,3.293,3.425,3.5197,3.5232,3.6565,3.7996,3.9189,0.0,0.0,0.0,0.0,0.0,4.0181,3.9967,3.9861,3.9914,3.9911,3.9889,3.9889,3.9889,3.9781,3.9526,3.9458,3.9154,3.8615,3.8585,3.8615,3.8615,3.8718,3.8894,3.9156,3.9245,3.9137,3.895,3.9331,3.9489,3.9505,4.008,4.04,4.0533,4.066,4.0306,3.9793,4.0447,3.8329,3.4738,3.2014,2.7538,2.2144,1.7143,1.1594,0.6365,0.3455,-0.0797,-0.4908,-0.6429,-0.8425,-1.0596,-1.308,-1.4423,-1.6028,-1.9629,-2.1444,-2.2853,-2.4555,-2.5714,-2.6362,-2.6135,-2.6561,-2.7126,-2.773,-2.9135,-3.0443,-3.1563,-3.2533,-3.3283,-3.3882,-3.4452,-3.4691,-3.4249,-3.5743,-3.666,-3.643,-3.7499,-3.8149,-3.8149,-3.8222,-3.7954,-3.7242,-3.6685,-3.6003,-3.5253,-3.4874,-3.4691,-3.4691,-3.4691,-3.4739,-3.4899,-3.4899,-3.4899,2.4605,2.5075,2.5488,2.4502,2.5538,0.0,2.5091,2.5239,2.6241,0.0,2.7709,2.7813,3.0837,3.1033,3.0962,3.1658,3.2542,3.4398,3.7939,3.845,0.0,0.0,0.0,0.0,3.9441,3.9438,3.9593,4.0023,3.9956,3.9889,3.9889,3.9889,3.9781,3.9526,3.9242,3.8943,3.8615,3.8585,3.8646,3.867,3.897,3.9045,3.895,3.9017,3.9073,3.9073,3.9371,3.9566,3.9766,4.031,4.0587,4.0676,4.0813,4.0427,3.9642,3.8479,3.4814,3.016,2.837,2.2918,1.6163,1.2355,0.7868,0.339,-0.0199,-0.3472,-0.6502,-0.8685,-0.9916,-1.1282,-1.3957,-1.5475,-1.7137,-2.0971,-2.2259,-2.324,-2.5652,-2.6174,-2.6445,-2.7033,-2.7278,-2.7522,-2.8007,-2.9601,-3.0882,-3.1254,-3.269,-3.3813,-3.3991,-3.4196,-3.4505,-3.5073,-3.5018,-3.5337,-3.6338,-3.6613,-3.6778,-3.6705,-3.7223,-3.7226,-3.6529,-3.6442,-3.6056,-3.534,-3.4824,-3.4546,-3.4546,-3.4643,-3.4691,-3.4739,-3.4739,-3.4804,2.5452,2.5518,2.5759,2.5357,0.0,0.0,0.0,2.5374,2.5909,2.7723,2.7102,2.7059,2.9708,2.9842,2.9822,3.0655,3.1079,3.2195,3.4758,3.6173,0.0,0.0,0.0,0.0,3.792,3.8243,3.8548,3.8746,3.8683,3.885,3.9286,3.9139,3.9124,3.9242,3.8943,3.8688,3.8401,3.8433,3.8523,3.87,3.8807,3.8902,3.8931,3.9017,3.9082,3.9127,3.9294,3.9622,4.0005,4.0241,4.0283,4.0213,4.0281,3.9353,3.7732,3.5323,3.1452,2.6848,2.3334,1.7831,1.186,0.9035,0.4565,-0.0096,-0.1458,-0.4384,-0.7731,-0.9763,-1.137,-1.2995,-1.5184,-1.6786,-1.8632,-2.1719,-2.2629,-2.3337,-2.5841,-2.6268,-2.6517,-2.7592,-2.7926,-2.8167,-2.8858,-3.0139,-3.1254,-3.1988,-3.2919,-3.3729,-3.4167,-3.4214,-3.4324,-3.4419,-3.4718,-3.5065,-3.5399,-3.5681,-3.6022,-3.6262,-3.6625,-3.6319,-3.5326,-3.5385,-3.5174,-3.45,-3.4413,-3.4399,-3.4399,-3.4448,-3.4546,-3.4594,-3.4594,-3.4691,2.5962,2.5828,2.6039,2.6422,0.0,2.6101,0.0,0.0,0.0,2.7317,2.706,2.7055,2.8486,0.0,0.0,0.0,0.0,0.0,0.0,3.3024,0.0,0.0,0.0,0.0,0.0,3.676,3.7258,3.7432,3.7147,3.7413,3.8416,3.8203,3.8284,3.8748,3.8607,3.8438,3.8207,3.8419,3.8541,3.864,3.8615,3.8725,3.895,3.9055,3.9073,3.909,3.9333,3.9719,4.0076,4.0198,3.9858,3.9244,3.9218,3.7546,3.4791,3.1622,2.7612,2.3108,1.8197,1.319,0.8481,0.6255,0.1428,-0.3417,-0.2745,-0.5358,-0.8883,-1.064,-1.2716,-1.4709,-1.6317,-1.801,-1.9861,-2.2199,-2.2824,-2.3424,-2.5757,-2.6268,-2.6682,-2.8007,-2.8419,-2.8803,-2.9626,-3.0581,-3.1656,-3.2567,-3.3007,-3.3469,-3.3993,-3.405,-3.3854,-3.3347,-3.4237,-3.4651,-3.4252,-3.468,-3.5197,-3.5668,-3.5738,-3.5186,-3.4006,-3.4029,-3.3958,-3.3547,-3.3901,-3.4084,-3.4084,-3.4084,-3.4234,-3.4448,-3.4497,-3.4546,0.0,0.0,0.0,0.0,2.764,0.0,0.0,0.0,2.6323,2.5801,0.0,0.0,0.0,0.0,0.0,0.0,0.0,0.0,2.7471,2.8996,3.0438,0.0,0.0,0.0,0.0,3.5303,3.6253,3.7469,3.6264,3.606,3.7468,3.7562,3.769,3.7922,3.8184,3.8329,3.8307,3.8884,3.8952,3.8523,3.8796,3.8862,3.875,3.899,3.9045,3.8989,3.9768,3.9889,3.9649,4.047,3.9529,3.7547,3.7439,3.4968,3.1099,2.7642,2.2504,1.6868,1.3899,1.0048,0.5855,0.3129,-0.1304,-0.5879,-0.6992,-0.8706,-1.0532,-1.2104,-1.3692,-1.5292,-1.7088,-1.8672,-2.0331,-2.2561,-2.3173,-2.3856,-2.6008,-2.6588,-2.7069,-2.8259,-2.8657,-2.9028,-2.9845,-3.097,-3.1825,-3.2069,-3.2858,-3.3282,-3.2803,-3.2722,-3.2678,-3.2629,-3.2685,-3.2931,-3.3456,-3.3582,-3.3645,-3.363,-3.3702,-3.3408,-3.2647,-3.2616,-3.2881,-3.3391,-3.3355,-3.3303,-3.3303,-3.3303,-3.3681,-3.4349,-3.4448,-3.4546,0.0,0.0,0.0,0.0,0.0,0.0,2.6409,0.0,2.59,0.0,0.0,0.0,0.0,0.0,0.0,0.0,2.5595,0.0,0.0,0.0,2.6743,0.0,0.0,0.0,0.0,0.0,0.0,0.0,3.4094,3.4419,3.597,3.6385,3.7049,3.8115,3.7977,3.8118,3.8585,3.8905,3.8876,3.8491,3.8884,3.9027,3.8952,3.9063,3.9302,3.9665,3.9868,4.0102,4.0292,4.0019,3.8546,3.6167,3.302,3.0396,2.7886,2.3866,1.8817,1.34,0.9819,0.6343,0.288,-0.0721,-0.4168,-0.7067,-0.8347,-0.9957,-1.1703,-1.2833,-1.4459,-1.6243,-1.774,-1.9222,-2.0639,-2.1848,-2.2323,-2.2992,-2.5074,-2.5568,-2.6228,-2.8119,-2.8657,-2.9172,-3.0506,-3.0916,-3.1155,-3.1363,-3.1829,-3.2269,-3.237,-3.2115,-3.1946,-3.1946,-3.1918,-3.2003,-3.2258,-3.2266,-3.2444,-3.2742,-3.2444,-3.2152,-3.1894,-3.1879,-3.2033,-3.2281,-3.2571,-3.2749,-3.2749,-3.2749,-3.2911,-3.3193,-3.3578,-3.3834,2.8736,0.0,0.0,0.0,0.0,0.0,0.0,0.0,0.0,0.0,0.0,0.0,0.0,0.0,2.6249,2.6471,0.0,2.5283,0.0,2.4784,0.0,0.0,0.0,0.0,0.0,0.0,0.0,0.0,0.0,3.2647,3.4685,3.5135,3.617,3.7992,3.7766,3.8013,3.8828,3.8999,3.8905,3.8559,3.8931,3.9064,3.9027,3.9257,3.958,3.9994,3.9812,3.9799,3.9821,3.8739,3.6667,3.37,2.9085,2.5774,2.3188,1.9387,1.5001,1.0354,0.6554,0.3241,0.0,-0.3746,-0.6148,-0.7698,-0.8988,-1.074,-1.2398,-1.3285,-1.5084,-1.6926,-1.7933,-1.9468,-2.0756,-2.1284,-2.1731,-2.2557,-2.4335,-2.5011,-2.5856,-2.7961,-2.8627,-2.9123,-3.0237,-3.0671,-3.102,-3.1441,-3.1539,-3.1665,-3.2003,-3.1608,-3.125,-3.125,-3.1372,-3.1485,-3.1524,-3.148,-3.1595,-3.1879,-3.1495,-3.1321,-3.148,-3.1364,-3.1321,-3.148,-3.1936,-3.216,-3.216,-3.216,-3.216,-3.216,-3.2718,-3.3077,0.0,0.0,0.0,2.8313,0.0,0.0,0.0,0.0,2.7582,0.0,0.0,0.0,0.0,2.7939,2.7404,2.5803,2.621,0.0,0.0,0.0,0.0,0.0,0.0,0.0,0.0,0.0,0.0,0.0,0.0,0.0,3.3868,3.399,3.4944,3.7071,3.7508,3.808,3.8877,3.9287,3.9219,3.8707,3.8979,3.8989,3.8833,3.9618,3.9813,3.9527,3.9575,3.8772,3.7333,3.6381,3.3558,2.9515,2.6539,2.1744,1.6261,1.3796,1.0554,0.6936,0.4541,0.098,-0.2773,-0.5267,-0.6681,-0.7768,-0.9383,-1.1059,-1.2632,-1.3549,-1.5486,-1.7422,-1.7668,-1.923,-2.0876,-2.1117,-2.2011,-2.3062,-2.4194,-2.5509,-2.6744,-2.7782,-2.8439,-2.8712,-2.843,-3.0083,-3.187,-3.2968,-3.2551,-3.1997,-3.1565,-3.0988,-3.0611,-3.0611,-3.1176,-3.1509,-3.148,-3.148,-3.1263,-3.0687,-3.0628,-3.0911,-3.1495,-3.0925,-3.0911,-3.148,-3.1537,-3.1537,-3.1537,-3.1537,-3.1537,-3.1537,-3.2226,-3.2524,0.0,0.0,3.0852,2.9121,0.0,0.0,0.0,0.0,0.0,0.0,0.0,0.0,0.0,2.7923,2.7566,2.6475,2.6057,2.5691,0.0,0.0,0.0,0.0,0.0,0.0,0.0,0.0,0.0,0.0,2.9218,0.0,0.0,3.3432,3.484,3.6634,3.7007,3.7935,3.9543,3.9532,3.935,3.9036,3.9534,3.963,3.9427,3.9955,3.9964,3.9496,3.8315,3.7266,3.6067,3.2247,2.9104,2.6242,2.0806,1.6565,1.3276,1.2058,0.8901,0.4718,0.1247,-0.1785,-0.4383,-0.5714,-0.7386,-0.9087,-1.0257,-1.1844,-1.3334,-1.4059,-1.5122,-1.619,-1.6873,-1.8251,-1.9569,-1.9998,-2.0929,-2.214,-2.3686,-2.4614,-2.5701,-2.7478,-2.8216,-2.8755,-2.917,-2.9974,-3.0446,-3.0197,-3.0926,-3.1204,-3.0502,-3.0392,-3.0387,-3.0387,-3.0673,-3.0911,-3.0911,-3.0911,-3.0807,-3.0628,-3.0568,-3.0687,-3.0925,-3.0687,-3.0687,-3.0911,-3.0911,-3.0911,-3.0911,-3.0911,-3.0911,-3.0911,-3.1131,-3.145,3.0311,3.0702,0.0,2.9289,2.8932,0.0,2.6872,0.0,0.0,0.0,0.0,0.0,0.0,2.8399,2.7708,2.7132,2.6343,2.5636,0.0,2.4522,0.0,0.0,0.0,2.5971,0.0,2.6229,2.6835,2.7925,2.7962,0.0,0.0,0.0,3.4391,3.5993,3.6785,3.7851,3.929,3.9472,3.9408,3.9173,3.9716,3.9889,3.9736,3.9913,3.95,3.8486,3.5871,3.3903,3.215,2.6992,2.3691,2.1237,1.5578,1.2068,1.0124,0.9213,0.6138,0.187,-0.1427,-0.3576,-0.5099,-0.6422,-0.7826,-0.9248,-1.069,-1.2063,-1.3256,-1.4057,-1.4818,-1.5684,-1.6604,-1.779,-1.899,-1.967,-2.0429,-2.145,-2.3188,-2.3864,-2.477,-2.6764,-2.7649,-2.8305,-2.9096,-2.958,-2.9918,-2.9961,-3.0706,-3.1143,-3.0709,-3.0671,-3.0585,-3.0341,-3.0507,-3.0568,-3.0568,-3.0568,-3.0568,-3.0568,-3.0568,-3.0568,-3.0568,-3.0568,-3.0568,-3.0568,-3.0568,-3.0568,-3.0568,-3.0568,-3.0568,-3.0568,-3.0568,-3.0807]}]]